[[{"header":{"parameterUnit":"m.s-1","parameterCategory":1,"la1":31.0,"la2":29.5877,"lo1":-88.7671,"lo2":-86.6584,"dy":0.0162,"dx":0.0185,"nx":115,"ny":88,"refTime":"2024-08-28T06:00:00:Z","depth":0,"parameterNumber":2,"parameterNumberName":"U-component_of_WINDS"},"data":[0.0,0.0,0.0,0.0,0.0,0.0,0.0,0.0,0.0,0.0,0.0,0.0,0.0,0.0,0.0,0.0,0.0,0.0,0.0,0.0,0.0,0.0,0.0,0.0,0.0,0.0,0.0,0.0,0.0,0.0,0.0,0.0,0.0,0.0,0.0,0.0,0.0,0.0,0.0,0.0,0.0,0.0,0.0,0.0,0.0,0.0,0.0,0.0,0.0,0.0,0.0,0.0,0.0,0.0,0.0,0.0,0.0,0.0,0.0,0.0,0.0,0.0,0.0,0.0,0.0,0.0,0.0,0.0,0.0,0.0,0.0,0.0,0.0,0.0,0.0,0.0,0.0,0.0,0.0,0.0,0.0,0.0,0.0,0.0,0.0,0.0,0.0,0.0,0.0,0.0,0.0,0.0,0.0,0.0,0.0,0.0,0.0,0.0,0.0,0.0,0.0,0.0,0.0,0.0,0.0,0.0,0.0,0.0,0.0,0.0,0.0,0.0,0.0,0.0,0.0,0.0,0.0,0.0,0.0,0.0,0.0,0.0,0.0,0.0,0.0,0.0,0.0,0.0,0.0,0.0,0.0,0.0,0.0,0.0,0.0,0.0,0.0,0.0,0.0,0.0,0.0,0.0,0.0,0.0,0.0,0.0,0.0,0.0,0.0,0.0,0.0,0.0,0.0,0.0,0.0,0.0,0.0,0.0,0.0,0.0,0.0,0.0,0.0,0.0,0.0,0.0,0.0,0.0,0.0,0.0,0.0,0.0,0.0,0.0,0.0,0.0,0.0,0.0,0.0,0.0,0.0,0.0,0.0,0.0,0.0,0.0,0.0,0.0,0.0,0.0,0.0,0.0,0.0,0.0,0.0,0.0,0.0,0.0,0.0,0.0,0.0,0.0,0.0,0.0,0.0,0.0,0.0,0.0,0.0,0.0,0.0,0.0,0.0,0.0,0.0,0.0,0.0,0.0,0.0,0.0,0.0,0.0,0.0,0.0,0.0,0.0,0.0,0.0,0.0,0.0,0.0,0.0,0.0,0.0,0.0,0.0,0.0,0.0,0.0,0.0,0.0,0.0,0.0,0.0,0.0,0.0,0.0,0.0,0.0,0.0,0.0,0.0,0.0,0.0,0.0,0.0,0.0,0.0,0.0,0.0,0.0,0.0,0.0,0.0,0.0,0.0,0.0,0.0,0.0,0.0,0.0,0.0,0.0,0.0,0.0,0.0,0.0,0.0,0.0,0.0,0.0,0.0,0.0,0.0,0.0,0.0,0.0,0.0,0.0,0.0,0.0,0.0,0.0,0.0,0.0,0.0,0.0,0.0,0.0,0.0,0.0,0.0,0.0,0.0,0.0,0.0,0.0,0.0,0.0,0.0,0.0,0.0,0.0,0.0,0.0,0.0,0.0,0.0,0.0,0.0,0.0,0.0,0.0,0.0,0.0,0.0,0.0,0.0,0.0,0.0,0.0,0.0,0.0,0.0,0.0,0.0,0.0,0.0,0.0,0.0,0.0,0.0,0.0,0.0,0.0,0.0,0.0,0.0,0.0,0.0,0.0,0.0,0.0,0.0,0.0,0.0,0.0,0.0,0.0,0.0,0.0,0.0,0.0,0.0,0.0,0.0,0.0,0.0,0.0,0.0,0.0,0.0,0.0,0.0,0.0,0.0,0.0,0.0,0.0,0.0,0.0,0.0,0.0,0.0,0.0,0.0,0.0,0.0,0.0,0.0,0.0,0.0,0.0,0.0,0.0,0.0,0.0,0.0,0.0,0.0,0.0,0.0,0.0,0.0,0.0,0.0,0.0,0.0,0.0,0.0,0.0,0.0,0.0,0.0,0.0,0.0,0.0,0.0,0.0,0.0,0.0,0.0,0.0,0.0,0.0,0.0,0.0,0.0,0.0,0.0,0.0,0.0,0.0,0.0,0.0,0.0,0.0,0.0,0.0,0.0,0.0,0.0,0.0,0.0,0.0,0.0,0.0,0.0,0.0,0.0,0.0,0.0,0.0,0.0,0.0,0.0,0.0,0.0,0.0,0.0,0.0,0.0,0.0,0.0,0.0,0.0,0.0,0.0,0.0,0.0,0.0,0.0,0.0,0.0,0.0,0.0,0.0,0.0,0.0,0.0,0.0,0.0,0.0,0.0,0.0,0.0,0.0,0.0,0.0,0.0,0.0,0.0,0.0,0.0,0.0,0.0,0.0,0.0,0.0,0.0,0.0,0.0,0.0,0.0,0.0,0.0,0.0,0.0,0.0,0.0,0.0,0.0,0.0,0.0,0.0,0.0,0.0,0.0,0.0,0.0,0.0,0.0,0.0,0.0,0.0,0.0,0.0,0.0,0.0,0.0,0.0,0.0,0.0,0.0,0.0,0.0,0.0,0.0,0.0,0.0,0.0,0.0,0.0,0.0,0.0,0.0,0.0,0.0,0.0,0.0,0.0,0.0,0.0,0.0,0.0,0.0,0.0,0.0,0.0,0.0,0.0,0.0,0.0,0.0,0.0,0.0,0.0,0.0,0.0,0.0,0.0,0.0,0.0,0.0,0.0,0.0,0.0,0.0,0.0,0.0,0.0,0.0,0.0,0.0,0.0,0.0,0.0,0.0,0.0,0.0,0.0,0.0,0.0,0.0,0.0,0.0,0.0,0.0,0.0,0.0,0.0,0.0,0.0,0.0,0.0,0.0,0.0,0.0,0.0,0.0,0.0,0.0,0.0,0.0,0.0,0.0,0.0,0.0,0.0,0.0,0.0,0.0,0.0,0.0,0.0,0.0,0.0,0.0,0.0,0.0,0.0,0.0,0.0,0.0,0.0,0.0,0.0,0.0,0.0,0.0,0.0,0.0,0.0,0.0,0.0,0.0,0.0,0.0,0.0,0.0,0.0,0.0,0.0,0.0,0.0,0.0,0.0,0.0,0.0,0.0,0.0,0.0,0.0,0.0,0.0,0.0,0.0,0.0,0.0,0.0,0.0,0.0,0.0,0.0,0.0,0.0,0.0,0.0,0.0,0.0,0.0,0.0,0.0,0.0,0.0,0.0,0.0,0.0,0.0,0.0,0.0,0.0,0.0,0.0,0.0,0.0,0.0,0.0,0.0,0.0,0.0,0.0,0.0,0.0,0.0,0.0,0.0,0.0,0.0,0.0,0.0,0.0,0.0,0.0,0.0,0.0,0.0,0.0,0.0,0.0,0.0,0.0,0.0,0.0,0.0,0.0,0.0,0.0,0.0,0.0,0.0,0.0,0.0,0.0,0.0,0.0,0.0,0.0,0.0,0.0,0.0,0.0,0.0,0.0,0.0,0.0,0.0,0.0,0.0,0.0,0.0,0.0,0.0,0.0,0.0,0.0,0.0,0.0,0.0,0.0,0.0,0.0,0.0,0.0,0.0,0.0,0.0,0.0,0.0,0.0,0.0,0.0,0.0,0.0,0.0,0.0,0.0,0.0,0.0,0.0,0.0,0.0,0.0,0.0,0.0,0.0,0.0,0.0,0.0,0.0,0.0,0.0,0.0,0.0,0.0,0.0,0.0,0.0,0.0,0.0,0.0,0.0,0.0,0.0,0.0,0.0,0.0,0.0,0.0,0.0,0.0,0.0,0.0,0.0,0.0,0.0,0.0,0.0,0.0,0.0,0.0,0.0,0.0,0.0,0.0,0.0,0.0,0.0,0.0,0.0,0.0,0.0,0.0,0.0,0.0,0.0,0.0,0.0,0.0,0.0,0.0,0.0,0.0,0.0,0.0,0.0,0.0,0.0,0.0,0.0,0.0,0.0,0.0,0.0,0.0,0.0,0.0,0.0,0.0,0.0,0.0,0.0,0.0,0.0,0.0,0.0,0.0,0.0,0.0,0.0,0.0,0.0,0.0,0.0,0.0,0.0,0.0,0.0,0.0,0.0,0.0,0.0,0.0,0.0,0.0,0.0,0.0,0.0,0.0,0.0,0.0,0.0,0.0,0.0,0.0,0.0,0.0,0.0,0.0,0.0,0.0,0.0,0.0,0.0,0.0,0.0,0.0,0.0,0.0,0.0,0.0,0.0,0.0,0.0,0.0,0.0,0.0,0.0,0.0,0.0,0.0,0.0,0.0,0.0,0.0,0.0,0.0,0.0,0.0,0.0,0.0,0.0,0.0,0.0,0.0,0.0,0.0,0.0,0.0,0.0,0.0,0.0,0.0,0.0,0.0,0.0,0.0,0.0,0.0,0.0,0.0,0.0,0.0,0.0,0.0,0.0,0.0,0.0,0.0,0.0,0.0,0.0,0.0,0.0,0.0,0.0,-0.1382,0.0,0.0,0.0,0.0,0.0,0.0,0.0,0.0,0.0,0.0,0.0,0.0,0.0,0.0,0.0,0.0,0.0,0.0,0.0,0.0,0.0,0.0,0.0,0.0,0.0,0.0,0.0,0.0,0.0,0.0,0.0,0.0,0.0,0.0,0.0,0.0,0.0,0.0,0.0,0.0,0.0,0.0,0.0,0.0,0.0,0.0,0.0,0.0,0.0,0.0,0.0,0.0,0.0,0.0,0.0,0.0,0.0,0.0,0.0,0.0,0.0,0.0,0.0,0.0,0.0,0.0,0.0,0.0,0.0,0.0,0.0,0.0,0.0,0.0,0.0,0.0,0.0,0.0,0.0,0.0,0.0,0.0,0.0,0.0,0.0,0.0,0.0,0.0,0.0,0.0,0.0,0.0,0.0,0.0,0.0,0.0,0.0,0.0,0.0,0.0,0.0,0.0,0.0,0.0,0.0,0.0,0.0,0.0,0.0,0.0,-0.1397,-0.1476,-0.1512,-0.1505,-0.1453,0.0,0.0,0.0,0.0,0.0,0.0,0.0,0.0,0.0,0.0,0.0,0.0,0.0,0.0,0.0,0.0,0.0,0.0,0.0,0.0,0.0,0.0,0.0,0.0,0.0,0.0,0.0,0.0,0.0,0.0,0.0,0.0,0.0,0.0,0.0,0.0,0.0,0.0,0.0,0.0,0.0,0.0,0.0,0.0,0.0,0.0,0.0,0.0,0.0,0.0,0.0,0.0,0.0,0.0,0.0,0.0,0.0,0.0,0.0,0.0,0.0,0.0,0.0,0.0,0.0,0.0,0.0,0.0,0.0,0.0,0.0,0.0,0.0,0.0,0.0,0.0,0.0,0.0,0.0,0.0,0.0,0.0,0.0,0.0,0.0,0.0,0.0,0.0,0.0,0.0,0.0,0.0,0.0,0.0,0.0,0.0,0.0,0.0,0.0,0.0,0.0,0.0,0.0,0.0,0.0,0.0,0.0,0.0,0.0,0.0,0.0,0.0,-0.1607,-0.1585,-0.148,0.0,0.0,0.0,0.0,0.0,0.0,0.0,0.0,0.0,0.0,0.0,0.0,0.0,0.0,0.0,0.0,0.0,0.0,0.0,0.0,0.0,0.0,0.0,0.0,0.0,0.0,0.0,0.0,0.0,0.0,0.0,0.0,0.0,0.0,0.0,0.0,0.0,0.0,0.0,0.0,0.0,0.0,0.0,0.0,0.0,0.0,0.0,0.0,0.0,0.0,0.0,0.0,0.0,0.0,0.0,0.0,0.0,0.0,0.0,0.0,0.0,0.0,0.0,0.0,0.0,0.0,0.0,0.0,0.0,0.0,0.0,0.0,0.0,0.0,0.0,0.0,0.0,0.0,0.0,0.0,0.0,0.0,0.0,0.0,0.0,0.0,0.0,0.0,0.0,0.0,0.0,0.0,0.0,0.0,0.0,0.0,0.0,0.0,0.0,0.0,0.0,0.0,0.0,0.0,0.0,0.0,0.0,0.0,0.0,0.0,-0.1352,-0.141,-0.1433,0.0,-0.1405,0.0,0.0,0.0,0.0,0.0,0.0,0.0,0.0,0.0,0.0,0.0,0.0,0.0,0.0,0.0,0.0,0.0,0.0,0.0,0.0,0.0,0.0,0.0,0.0,0.0,0.0,0.0,0.0,0.0,0.0,0.0,0.0,0.0,0.0,0.0,0.0,0.0,0.0,0.0,0.0,0.0,0.0,0.0,0.0,0.0,0.0,0.0,0.0,0.0,0.0,0.0,0.0,0.0,0.0,0.0,0.0,0.0,0.0,0.0,0.0,0.0,0.0,0.0,0.0,0.0,0.0,0.0,0.0,0.0,0.0,0.0,0.0,0.0,0.0,0.0,0.0,0.0,0.0,0.0,0.0,0.0,0.0,0.0,0.0,0.0,0.0,0.0,0.0,0.0,0.0,0.0,0.0,0.0,0.0,0.0,0.0,0.0,0.0,0.0,0.0,0.0,0.0,0.0,0.0,0.0,0.0,0.0,0.0,0.0,0.0,0.0,-0.1341,-0.1377,-0.1375,0.0,0.0,0.0,0.0,0.0,0.0,0.0,0.0,0.0,0.0,0.0,0.0,0.0,0.0,0.0,0.0,0.0,0.0,0.0,0.0,0.0,0.0,0.0,0.0,0.0,0.0,0.0,0.0,0.0,0.0,0.0,0.0,0.0,0.0,0.0,0.0,0.0,0.0,0.0,0.0,0.0,0.0,0.0,0.0,0.0,0.0,0.0,0.0,0.0,0.0,0.0,0.0,0.0,0.0,0.0,0.0,0.0,0.0,0.0,0.0,0.0,0.0,0.0,0.0,0.0,0.0,0.0,0.0,0.0,0.0,0.0,0.0,0.0,0.0,0.0,0.0,0.0,0.0,0.0,0.0,0.0,0.0,0.0,0.0,0.0,0.0,0.0,0.0,0.0,0.0,0.0,0.0,0.0,0.0,0.0,0.0,0.0,0.0,0.0,0.0,0.0,0.0,0.0,0.0,0.0,0.0,0.0,0.0,0.0,0.0,-0.1161,0.0,-0.1263,-0.1341,-0.1349,-0.1315,0.0,0.0,0.0,0.0,0.0,0.0,0.0,0.0,0.0,0.0,0.0,0.0,0.0,0.0,0.0,0.0,0.0,0.0,0.0,0.0,0.0,0.0,0.0,0.0,0.0,0.0,0.0,0.0,0.0,0.0,0.0,0.0,0.0,0.0,0.0,0.0,0.0,0.0,0.0,0.0,0.0,0.0,0.0,0.0,0.0,0.0,0.0,0.0,0.0,0.0,0.0,0.0,0.0,0.0,0.0,0.0,0.0,0.0,0.0,0.0,0.0,0.0,0.0,0.0,0.0,0.0,0.0,0.0,0.0,0.0,0.0,0.0,0.0,0.0,0.0,0.0,0.0,0.0,0.0,0.0,0.0,0.0,0.0,0.0,0.0,0.0,0.0,0.0,0.0,0.0,0.0,0.0,0.0,0.0,0.0,0.0,0.0,0.0,0.0,0.0,0.0,0.0,0.0,0.0,0.0,0.0,0.0,0.0,0.0,-0.1072,-0.1127,-0.1219,-0.1274,-0.1308,0.0,0.0,0.0,0.0,0.0,0.0,0.0,0.0,0.0,0.0,0.0,0.0,0.0,0.0,0.0,0.0,0.0,0.0,0.0,0.0,0.0,0.0,0.0,0.0,0.0,0.0,0.0,0.0,0.0,0.0,0.0,0.0,0.0,0.0,0.0,0.0,0.0,0.0,0.0,0.0,0.0,0.0,0.0,0.0,0.0,0.0,0.0,0.0,0.0,0.0,0.0,0.0,0.0,0.0,0.0,0.0,0.0,0.0,0.0,0.0,0.0,0.0,0.0,0.0,0.0,0.0,0.0,0.0,0.0,0.0,0.0,0.0,0.0,0.0,0.0,0.0,0.0,0.0,0.0,0.0,0.0,0.0,0.0,0.0,0.0,0.0,0.0,0.0,0.0,0.0,0.0,0.0,0.0,0.0,0.0,0.0,0.0,0.0,0.0,0.0,0.0,0.0,0.0,0.0,0.0,0.0,0.0,0.0,0.0,-0.1003,-0.1072,-0.1127,-0.1194,-0.1219,-0.1252,0.0,0.0,0.0,0.0,0.0,0.0,0.0,0.0,0.0,0.0,0.0,0.0,0.0,0.0,0.0,0.0,0.0,0.0,0.0,0.0,0.0,0.0,0.0,0.0,0.0,0.0,0.0,0.0,0.0,0.0,0.0,0.0,0.0,0.0,0.0,0.0,0.0,0.0,0.0,0.0,0.0,0.0,0.0,0.0,0.0,0.0,0.0,0.0,0.0,0.0,0.0,0.0,0.0,0.0,0.0,0.0,0.0,0.0,0.0,0.0,0.0,0.0,0.0,0.0,0.0,0.0,0.0,0.0,0.0,0.0,0.0,0.0,0.0,0.0,0.0,0.0,0.0,0.0,0.0,0.0,0.0,0.0,0.0,0.0,0.0,0.0,0.0,0.0,0.0,0.0,0.0,0.0,0.0,0.0,0.0,0.0,0.0,0.0,0.0,0.0,0.0,0.0,0.0,0.0,0.0,0.0,0.0,0.0,0.0,-0.1057,0.0,-0.1163,0.0,-0.1188,-0.1219,0.0,0.0,0.0,0.0,0.0,0.0,0.0,0.0,0.0,0.0,0.0,0.0,0.0,0.0,0.0,0.0,0.0,0.0,0.0,0.0,0.0,0.0,0.0,0.0,0.0,0.0,0.0,0.0,0.0,0.0,0.0,0.0,0.0,0.0,0.0,0.0,0.0,0.0,0.0,0.0,0.0,0.0,0.0,0.0,0.0,0.0,0.0,0.0,0.0,0.0,0.0,0.0,0.0,0.0,0.0,0.0,0.0,0.0,0.0,0.0,0.0,0.0,0.0,0.0,0.0,0.0,0.0,0.0,0.0,0.0,0.0,0.0,0.0,0.0,0.0,0.0,0.0,0.0,0.0,0.0,0.0,0.0,0.0,0.0,0.0,0.0,0.0,0.0,0.0,0.0,0.0,0.0,0.0,0.0,0.0,0.0,0.0,0.0,0.0,0.0,0.0,0.0,0.0,0.0,0.0,0.0,0.0,0.0,-0.0989,-0.1182,-0.1213,-0.1204,-0.1198,-0.1213,-0.118,0.0,0.0,0.0,0.0,0.0,0.0,0.0,0.0,0.0,0.0,0.0,0.0,0.0,0.0,0.0,0.0,0.0,0.0,0.0,0.0,0.0,0.0,0.0,0.0,0.0,0.0,0.0,0.0,0.0,0.0,0.0,0.0,0.0,0.0,0.0,0.0,0.0,0.0,0.0,0.0,0.0,0.0,0.0,0.0,0.0,0.0,0.0,0.0,0.0,0.0,0.0,0.0,0.0,0.0,0.0,0.0,0.0,0.0,0.0,0.0,0.0,0.0,0.0,0.0,0.0,0.0,0.0,0.0,0.0,0.0,0.0,0.0,0.0,0.0,0.0,0.0,0.0,0.0,0.0,0.0,0.0,0.0,0.0,0.0,0.0,0.0,0.0,0.0,0.0,0.0,0.0,0.0,0.0,0.0,0.0,0.0,0.0,0.0,0.0,0.0,0.0,0.0,0.0,0.0,0.0,0.0,0.0,0.0,0.0,-0.1273,-0.1364,-0.1411,-0.1409,-0.1321,-0.1233,0.0,0.0,0.0,0.0,0.0,0.0,0.0,0.0,0.0,0.0,0.0,0.0,0.0,0.0,0.0,0.0,0.0,0.0,0.0,0.0,0.0,0.0,0.0,0.0,0.0,0.0,0.0,0.0,0.0,0.0,0.0,0.0,0.0,0.0,0.0,0.0,0.0,0.0,0.0,0.0,0.0,0.0,0.0,0.0,0.0,0.0,0.0,0.0,0.0,0.0,0.0,0.0,0.0,0.0,0.0,0.0,0.0,0.0,0.0,0.0,0.0,0.0,0.0,0.0,0.0,0.0,0.0,0.0,0.0,0.0,0.0,0.0,0.0,0.0,0.0,0.0,0.0,0.0,0.0,0.0,0.0,0.0,0.0,0.0,0.0,0.0,0.0,0.0,0.0,0.0,0.0,0.0,0.0,0.0,0.0,0.0,0.0,0.0,0.0,0.0,0.0,0.0,0.0,0.0,0.0,0.0,0.0,0.0,0.0,-0.1581,-0.1627,-0.164,-0.1642,-0.155,-0.1413,-0.124,0.0,0.0,0.0,0.0,0.0,0.0,0.0,0.0,0.0,0.0,0.0,0.0,0.0,0.0,0.0,0.0,0.0,0.0,0.0,0.0,0.0,0.0,0.0,0.0,0.0,0.0,0.0,0.0,0.0,0.0,0.0,0.0,0.0,0.0,0.0,0.0,0.0,0.0,0.0,0.0,0.0,0.0,0.0,0.0,0.0,0.0,0.0,0.0,0.0,0.0,0.0,0.0,0.0,0.0,0.0,0.0,0.0,0.0,0.0,0.0,0.0,0.0,0.0,0.0,0.0,0.0,0.0,0.0,0.0,0.0,0.0,0.0,0.0,0.0,0.0,0.0,0.0,0.0,0.0,0.0,0.0,0.0,0.0,0.0,0.0,0.0,0.0,0.0,0.0,0.0,0.0,0.0,0.0,0.0,0.0,0.0,0.0,0.0,0.0,0.0,0.0,0.0,0.0,0.0,0.0,0.0,0.0,0.0,-0.2127,-0.2014,-0.1967,-0.194,-0.1859,-0.1649,0.0,0.0,0.0,0.0,0.0,0.0,0.0,0.0,0.0,0.0,0.0,0.0,0.0,0.0,0.0,0.0,0.0,0.0,0.0,0.0,0.0,0.0,0.0,0.0,0.0,0.0,0.0,0.0,0.0,0.0,0.0,0.0,0.0,0.0,0.0,0.0,0.0,0.0,0.0,0.0,0.0,0.0,0.0,0.0,0.0,0.0,0.0,0.0,0.0,0.0,0.0,0.0,0.0,0.0,0.0,0.0,0.0,0.0,0.0,0.0,0.0,0.0,0.0,0.0,0.0,0.0,0.0,0.0,0.0,0.0,0.0,0.0,0.0,0.0,0.0,0.0,0.0,0.0,0.0,0.0,0.0,0.0,0.0,0.0,0.0,0.0,0.0,0.0,0.0,0.0,0.0,0.0,0.0,0.0,0.0,0.0,0.0,0.0,0.0,0.0,0.0,0.0,0.0,0.0,0.0,0.0,0.0,0.0,0.0,-0.2477,-0.2639,-0.2567,-0.2265,-0.2115,-0.1883,0.0,0.0,0.0,0.0,0.0,0.0,0.0,0.0,0.0,0.0,0.0,0.0,0.0,0.0,0.0,0.0,0.0,0.0,0.0,0.0,0.0,0.0,0.0,0.0,0.0,0.0,0.0,0.0,0.0,0.0,0.0,0.0,0.0,0.0,0.0,0.0,0.0,0.0,0.0,0.0,0.0,0.0,0.0,0.0,0.0,0.0,0.0,0.0,0.0,0.0,0.0,0.0,0.0,0.0,0.0,0.0,0.0,0.0,0.0,0.0,0.0,0.0,0.0,0.0,0.0,0.0,0.0,0.0,0.0,0.0,0.0,0.0,0.0,0.0,0.0,0.0,0.0,0.0,0.0,0.0,0.0,0.0,0.0,0.0,0.0,0.0,0.0,0.0,0.0,0.0,0.0,0.0,0.0,0.0,0.0,0.0,0.0,0.0,0.0,0.0,0.0,0.0,0.0,0.0,0.0,0.0,0.0,0.0,-0.2499,-0.2758,-0.2978,-0.299,-0.2788,-0.246,-0.2177,0.0,0.0,0.0,0.0,0.0,0.0,0.0,0.0,0.0,0.0,0.0,0.0,0.0,0.0,0.0,0.0,0.0,0.0,0.0,0.0,0.0,0.0,0.0,0.0,0.0,0.0,0.0,0.0,0.0,0.0,0.0,0.0,0.0,0.0,0.0,0.0,0.0,0.0,0.0,0.0,0.0,0.0,0.0,0.0,0.0,0.0,0.0,0.0,0.0,0.0,0.0,0.0,0.0,0.0,0.0,0.0,0.0,0.0,0.0,0.0,0.0,0.0,0.0,0.0,0.0,0.0,0.0,0.0,0.0,0.0,0.0,0.0,0.0,0.0,0.0,0.0,0.0,0.0,0.0,0.0,0.0,0.0,0.0,0.0,0.0,0.0,0.0,0.0,0.0,0.0,0.0,0.0,0.0,0.0,0.0,0.0,0.0,0.0,0.0,0.0,0.0,0.0,0.0,0.0,0.0,0.0,0.0,0.0,-0.2825,-0.3091,-0.3227,-0.3316,-0.3334,-0.2879,-0.2474,0.0,0.0,0.0,0.0,0.0,0.0,0.0,0.0,0.0,0.0,0.0,0.0,0.0,0.0,0.0,0.0,0.0,0.0,0.0,0.0,0.0,0.0,0.0,0.0,0.0,0.0,0.0,0.0,0.0,0.0,0.0,0.0,0.0,0.0,0.0,0.0,0.0,0.0,0.0,0.0,0.0,0.0,0.0,0.0,0.0,0.0,0.0,0.0,0.0,0.0,0.0,0.0,0.0,0.0,0.0,0.0,0.0,0.0,0.0,0.0,0.0,0.0,0.0,0.0,0.0,0.0,0.0,0.0,0.0,0.0,0.0,0.0,0.0,0.0,0.0,0.0,0.0,0.0,0.0,0.0,0.0,0.0,0.0,0.0,0.0,0.0,0.0,0.0,0.0,0.0,0.0,0.0,0.0,0.0,0.0,0.0,0.0,0.0,0.0,0.0,0.0,0.0,0.0,0.0,0.0,0.0,0.0,0.0,-0.3356,-0.3622,-0.3868,-0.3891,-0.3679,-0.3141,-0.264,0.0,0.0,0.0,0.0,0.0,0.0,0.0,0.0,0.0,0.0,0.0,0.0,0.0,0.0,0.0,0.0,0.0,0.0,0.0,0.0,0.0,0.0,0.0,0.0,0.0,0.0,0.0,0.0,0.0,0.0,0.0,0.0,0.0,0.0,0.0,0.0,0.0,0.0,0.0,0.0,0.0,0.0,0.0,0.0,0.0,0.0,0.0,0.0,0.1504,0.0,0.0,0.0,0.0,0.0,0.0,0.0,0.0,0.0,0.0,0.0,0.0,0.0,0.0,0.0,0.0,0.0,0.0,0.0,0.0,0.0,0.0,0.0,0.0,0.0,0.0,0.0,0.0,0.0,0.0,0.0,0.0,0.0,0.0,0.0,0.0,0.0,0.0,0.0,0.0,0.0,0.0,0.0,0.0,0.0,0.0,0.0,0.0,0.0,0.0,0.0,0.0,0.0,0.0,0.0,0.0,0.0,0.0,0.0,-0.3778,-0.4069,-0.4292,-0.4325,-0.4049,-0.3526,-0.2996,0.0,0.0,0.0,0.0,0.0,0.0,0.0,0.0,0.0,0.0,0.0,0.0,0.0,0.0,0.0,0.0,0.0,0.0,0.0,0.0,0.0,0.0,0.0,0.0,0.0,0.0,0.0,0.0,0.0,0.0,0.0,0.0,0.0,0.0,0.0,0.0,0.0,0.0,0.0,0.0,0.0,0.0,0.0,0.0,0.0,0.0,0.0,0.0,0.0,0.0,0.0,0.0,0.0,0.0,0.0,0.0,0.0,0.0,0.0,0.0,0.0,0.0,0.0,0.0,0.0,0.0,0.0,0.0,0.0,0.0,0.0,0.0,0.0,0.0,0.0,0.0,0.0,0.0,0.0,0.0,0.0,0.0,0.0,0.0,0.0,0.0,0.0,0.0,0.0,0.0,0.0,0.0,0.0,0.0,0.0,0.0,0.0,0.0,0.0,0.0,0.0,0.0,0.0,0.0,0.0,0.0,0.0,-0.3589,-0.4162,-0.451,-0.471,-0.4669,-0.4355,-0.3945,-0.3425,-0.2736,0.0,0.0,0.0,0.0,0.0,0.0,0.0,0.0,0.0,0.0,0.0,0.0,0.0,0.0,0.0,0.0,0.0,0.0,0.0,0.0,0.0,0.0,0.0,0.0,0.0,0.0,0.0,0.0,0.0,0.0,0.0,0.0,0.0,0.0,0.0,0.0,0.0,0.0,0.1406,0.1456,0.0,0.0,0.0,0.0,0.0,0.0,0.0,0.0,0.0784,0.0,0.0,0.0,0.0,0.0,0.0,0.0,0.0,0.0,0.0,0.0,0.0,0.0,0.0,0.0,0.0,0.0,0.0,0.0,0.0,0.0,0.0,0.0,0.0,0.0,0.0,0.0,0.0,0.0,0.0,0.0,0.0,0.0,0.0,0.0,0.0,0.0,0.0,0.0,0.0,0.0,0.0,0.0,0.0,0.0,0.0,0.0,0.0,0.0,0.0,0.0,0.0,0.0,0.0,0.0,0.0,-0.3448,-0.4089,-0.464,-0.5061,-0.5151,-0.5023,-0.4643,-0.4148,-0.3549,-0.2885,0.0,0.0,0.0,0.0,0.0,0.0,0.0,0.0,0.0,0.0,0.0,0.0,0.0,0.0,0.0,0.0,0.0,0.0,0.0,0.0,0.0,0.0,0.0,0.0,0.0,0.0,0.0,0.0,0.0,0.0,0.0,0.0,0.0,0.0,0.0,0.0,0.0,0.0,0.0,0.1028,0.0913,0.0,0.0,0.0,0.0,0.0,0.0,0.0,0.0,0.036,0.0,0.0,0.0,0.0,0.0,0.0,0.0,0.0,0.0,0.0,0.0,0.0,0.0,0.0,0.0,0.0,0.0,0.0,0.0,0.0,0.0,0.0,0.0,0.0,0.0,0.0,0.0,0.0,0.0,0.0,0.0,0.0,0.0,0.0,0.0,0.0,0.0,0.0,0.0,0.0,0.0,0.0,0.0,0.0,0.0,0.0,0.0,0.0,0.0,0.0,0.0,0.0,0.0,0.0,0.0,-0.3805,-0.4496,-0.5047,-0.5408,-0.5646,-0.5483,-0.4927,-0.4391,-0.3796,0.0,0.0,0.0,0.0,0.0,0.0,0.0,0.0,0.0,0.0,0.0,0.0,0.0,0.0,0.0,0.0,0.0,0.0,0.0,0.0,0.0,0.0,0.0,0.0,0.0,0.0,0.0,0.0,0.0,0.0,0.0,0.0,0.0,0.0,0.0,0.0,0.0,0.0,0.0,0.0,0.0576,0.0411,0.0293,0.0,0.0,0.0,0.0,0.0,0.0,-0.0279,-0.0208,0.0,0.0,0.0,0.0,0.0,0.0,0.0,0.0,0.0,0.0,0.0,0.0,0.0,0.0,0.0,0.0,0.0,0.0,0.0,0.0,0.0,0.0,0.0,0.0,0.0,0.0,0.0,0.0,0.0,0.0,0.0,0.0,0.0,0.0,0.0,0.0,0.0,0.0,0.0,0.0,0.0,0.0,0.0,0.0,0.0,0.0,0.0,0.0,0.0,0.0,0.0,0.0,0.0,0.0,0.0,-0.4128,-0.4908,-0.5432,-0.5722,-0.6063,-0.5895,-0.516,-0.4586,-0.3995,0.0,0.0,0.0,0.0,0.0,0.0,0.0,0.0,0.0,0.0,0.0,0.0,0.0,0.0,0.0,0.0,0.0,0.0,0.0,0.0,0.0,0.0,0.0,0.0,0.0,0.0,0.0,0.0,0.0,0.0,0.0,0.0,0.0,0.0,0.0,0.0,0.0,0.0,0.0,0.0,0.0,-0.0204,-0.0286,-0.0467,0.0,0.0,0.0,0.0,-0.0995,-0.0968,0.0,0.0,0.0,0.0,0.0,0.0,0.0,0.0,0.0,0.0,0.0,0.0,0.0,0.0,0.0,0.0,0.0,0.0,0.0,0.0,0.0,0.0,0.0,0.0,0.0,0.0,0.0,0.0,0.0,0.0,0.0,0.0,0.0,0.0,0.0,0.0,0.0,0.0,0.0,0.0,0.0,0.0,0.0,0.0,0.0,0.0,0.0,0.0,0.0,0.0,0.0,0.0,0.0,0.0,0.0,0.0,-0.4605,-0.5297,-0.5799,-0.6107,-0.6299,-0.6034,-0.5295,-0.4641,-0.3965,0.0,0.0,0.0,0.0,0.0,0.0,0.0,0.0,0.0,0.0,0.0,0.0,0.0,0.0,0.0,0.0,0.0,0.0,0.0,0.0,0.0,0.0,0.0,0.0,0.0,0.0,0.0,0.0,0.0,0.0,0.0,0.0,0.0,0.0,0.0,0.0,0.0,0.0,0.0,0.0,0.0,-0.1034,-0.0992,-0.1298,-0.1524,0.0,0.0,-0.1867,-0.1928,-0.1837,0.0,0.0,0.0,0.0,0.0,0.0,0.0,0.0,0.0,0.0,0.0,0.0,0.0,0.0,0.0,0.0,0.0,0.0,0.0,0.0,0.0,0.0,0.0,0.0,0.0,0.0,0.0,0.0,0.0,0.0,0.0,0.0,0.0,0.0,0.0,0.0,0.0,0.0,0.0,0.0,0.0,0.0,0.0,0.0,0.0,0.0,0.0,0.0,0.0,0.0,0.0,0.0,0.0,0.0,0.0,-0.4114,-0.5122,-0.5786,-0.6262,-0.6587,-0.6723,-0.644,-0.5658,-0.4954,-0.4251,0.0,0.0,0.0,0.0,0.0,0.0,0.0,0.0,0.0,0.0,0.0,0.0,0.0,0.0,0.0,0.0,0.0,0.0,0.0,0.0,0.0,0.0,0.0,0.0,0.0,0.0,0.0,0.0,0.0,0.0,0.0,0.0,0.0,0.0,0.0,0.0,0.0,0.0,0.0,0.0,0.0,0.0,-0.1863,-0.2065,0.0,0.0,0.0,-0.2663,-0.2576,0.0,0.0,0.0,0.0,0.0,0.0,0.0,0.0,0.0,0.0,0.0,0.0,0.0,0.0,0.0,0.0,0.0,0.0,0.0,0.0,0.0,0.0,0.0,0.0,0.0,0.0,0.0,0.0,0.0,0.0,0.0,0.0,0.0,0.0,0.0,0.0,0.0,0.0,0.0,0.0,0.0,0.0,0.0,0.0,0.0,0.0,0.0,0.0,0.0,0.0,0.0,0.0,0.0,0.0,0.0,0.0,0.0,-0.5625,-0.6248,-0.6724,-0.7045,-0.7199,-0.6859,-0.6086,-0.5361,0.0,0.0,0.0,0.0,0.0,0.0,0.0,0.0,0.0,0.0,0.0,0.0,0.0,0.0,0.0,0.0,0.0,0.0,0.0,0.0,0.0,0.0,0.0,0.0,0.0,0.0,0.0,-0.0454,0.0,0.0,0.0,0.0,0.0,0.0,0.0,0.0,0.0,0.0,0.0,0.0,0.0,0.0,-0.2395,-0.2834,-0.3052,-0.3217,0.0,0.0,-0.363,-0.347,-0.3517,-0.3444,0.0,0.0,0.0,0.0,0.0,0.0,0.0,0.0,0.0,0.0,0.0,0.0,0.0,0.0,0.0,0.0,0.0,0.0,0.0,0.0,0.0,0.0,0.0,0.0,0.0,0.0,0.0,0.0,0.0,0.0,0.0,0.0,0.0,0.0,0.0,0.0,0.0,0.0,0.0,0.0,0.0,0.0,0.0,0.0,0.0,0.0,0.0,0.0,0.0,0.0,0.0,0.0,0.0,0.0,0.0,-0.5947,-0.6678,-0.7178,-0.7444,-0.7588,-0.7304,-0.658,-0.5859,-0.5083,0.0,0.0,0.0,0.0,0.0,0.0,0.0,0.0,0.0,0.0,0.0,0.0,0.0,0.0,0.0,0.0,0.0,0.0,0.0,0.0,0.0,0.0,0.0,0.0,0.0,0.0,0.0,0.0,0.0,0.0,0.0,0.0,0.0,0.0,0.0,0.0,0.0,0.0,0.0,0.0,0.0,-0.3527,-0.3926,-0.4376,-0.4751,0.0,0.0,-0.5022,-0.4863,-0.4763,-0.4468,-0.3826,0.0,0.0,0.0,0.0,0.0,0.0,0.0,0.0,0.0,0.0,0.0,0.0,0.0,0.0,0.0,0.0,0.0,0.0,0.0,0.0,0.0,0.0,0.0,0.0,0.0,0.0,0.0,0.0,0.0,0.0,0.0,0.0,0.0,0.0,0.0,0.0,0.0,0.0,0.0,0.0,0.0,0.0,0.0,0.0,0.0,0.0,0.0,0.0,0.0,0.0,0.0,0.0,0.0,-0.5447,-0.6406,-0.7023,-0.7577,-0.8028,-0.7915,-0.7585,-0.7098,-0.6266,-0.5461,0.0,0.0,0.0,0.0,0.0,0.0,0.0,0.0,0.0,0.0,0.0,0.0,0.0,0.0,0.0,0.0,0.0,0.0,0.0,0.0,0.0,0.0,0.0,0.0,0.0,0.0,0.0,0.0,-0.1452,-0.1594,-0.1724,0.0,0.0,0.0,0.0,0.0,0.0,0.0,0.0,0.0,0.0,-0.4461,-0.4898,-0.5259,0.0,0.0,-0.5663,-0.5611,-0.5357,-0.5244,-0.5027,-0.4567,-0.4229,0.0,0.0,0.0,0.0,0.0,0.0,0.0,0.0,0.0,0.0,0.0,0.0,0.0,0.0,0.0,0.0,0.0,0.0,0.0,0.0,0.0,0.0,0.0,0.0,0.0,0.0,0.0,0.0,0.0,0.0,0.0,0.0,0.0,0.0,0.0,0.0,0.0,0.0,0.0,0.0,0.0,0.0,0.0,0.0,0.0,0.0,0.0,0.0,0.0,0.0,0.0,0.0,-0.5844,-0.6745,-0.7324,-0.7883,-0.8461,-0.8235,-0.797,-0.762,-0.6835,-0.6128,0.0,0.0,0.0,0.0,0.0,0.0,0.0,0.0,0.0,0.0,0.0,0.0,0.0,0.0,0.0,0.0,0.0,0.0,0.0,0.0,0.0,0.0,0.0,0.0,0.0,0.0,0.0,0.0,-0.1864,-0.2039,-0.2269,0.0,0.0,0.0,0.0,0.0,0.0,0.0,0.0,0.0,0.0,-0.5563,-0.6002,-0.6276,-0.6448,-0.6484,-0.6529,-0.6468,-0.6184,-0.5987,-0.5743,-0.5319,0.0,0.0,0.0,0.0,0.0,0.0,0.0,0.0,0.0,0.0,0.0,0.0,0.0,0.0,0.0,0.0,0.0,0.0,0.0,0.0,0.0,0.0,0.0,0.0,0.0,0.0,0.0,-0.1978,0.0,0.0,-0.2068,0.0,0.0,0.0,0.0,0.0,0.0,0.0,0.0,0.0,0.0,0.0,0.0,0.0,0.0,0.0,0.0,0.0,0.0,0.0,0.0,0.0,0.0,-0.6023,-0.6893,-0.7567,-0.8111,-0.858,-0.86,-0.8468,-0.8196,-0.7651,-0.7034,-0.6367,0.0,0.0,0.0,0.0,0.0,0.0,0.0,0.0,0.0,0.0,0.0,0.0,0.0,0.0,0.0,0.0,0.0,0.0,0.0,0.0,0.0,0.0,0.0,0.0,0.0,0.0,-0.2015,-0.2284,-0.2611,0.0,0.0,0.0,0.0,0.0,0.0,0.0,0.0,0.0,0.0,-0.6332,-0.6908,-0.7289,-0.7541,-0.7709,-0.7815,-0.7841,-0.7778,-0.7544,-0.7211,-0.6783,0.0,0.0,0.0,0.0,0.0,0.0,0.0,0.0,0.0,0.0,0.0,0.0,0.0,0.0,0.0,0.0,0.0,0.0,0.0,0.0,0.0,0.0,0.0,0.0,0.0,0.0,0.0,-0.3056,-0.3044,0.0,0.0,0.0,0.0,0.0,0.0,0.0,0.0,0.0,0.0,0.0,-0.5466,-0.5617,0.0,0.0,0.0,0.0,0.0,0.0,0.0,0.0,0.0,0.0,0.0,0.0,-0.635,-0.7279,-0.7706,-0.8161,-0.8699,-0.8633,-0.8553,-0.8468,-0.7941,-0.7206,-0.6244,0.0,0.0,0.0,0.0,0.0,0.0,0.0,0.0,0.0,0.0,0.0,0.0,0.0,0.0,0.0,0.0,0.0,0.0,0.0,0.0,0.0,0.0,0.0,0.0,0.0,-0.2511,0.0,0.0,0.0,0.0,0.0,0.0,0.0,0.0,0.0,0.0,0.0,-0.6087,-0.6708,-0.7334,-0.7815,-0.803,-0.8346,-0.8547,0.0,0.0,0.0,0.0,0.0,0.0,0.0,0.0,0.0,0.0,0.0,0.0,0.0,0.0,-0.5734,-0.4744,-0.4655,-0.466,-0.4472,0.0,0.0,0.0,0.0,0.0,0.0,0.0,0.0,0.0,0.0,0.0,0.0,0.0,0.0,-0.4414,0.0,-0.4056,0.0,0.0,0.0,0.0,0.0,0.0,0.0,0.0,-0.6253,-0.6589,-0.709,-0.7199,-0.7239,0.0,-0.698,-0.6393,0.0,0.0,0.0,0.0,0.0,0.0,0.0,0.0,-0.6827,-0.7611,-0.8017,-0.8434,-0.883,-0.8798,-0.8712,-0.8653,-0.8197,-0.7492,-0.655,-0.5759,-0.4979,0.0,0.0,0.0,0.0,0.0,0.0,0.0,0.0,0.0,0.0,0.0,0.0,0.0,0.0,0.0,0.0,0.0,0.0,0.0,0.0,0.0,0.0,0.0,-0.3079,0.0,0.0,0.0,0.0,0.0,0.0,0.0,0.0,0.0,-0.6567,-0.697,-0.7404,-0.7828,-0.8344,-0.8726,-0.8864,0.0,0.0,0.0,0.0,0.0,0.0,0.0,-0.8602,-0.8301,-0.8026,-0.7853,-0.7833,-0.791,-0.7974,-0.7967,0.0,0.0,-0.6151,-0.5956,-0.5981,-0.5824,-0.6029,-0.6346,-0.666,-0.7058,-0.7475,0.0,0.0,0.0,0.0,0.0,0.0,0.0,0.0,-0.6186,-0.6046,0.0,-0.5552,0.0,0.0,0.0,0.0,0.0,-0.6472,0.0,0.0,-0.785,-0.8152,-0.8666,-0.8785,-0.8871,-0.8837,-0.8445,-0.8221,-0.8107,-0.635,0.0,0.0,0.0,0.0,0.0,0.0,-0.7438,-0.7954,-0.8493,-0.8853,-0.9022,-0.9015,-0.8936,-0.8831,-0.8447,-0.7951,-0.7355,-0.6817,-0.6078,-0.5015,-0.4632,0.0,0.0,0.0,0.0,0.0,0.0,0.0,0.0,0.0,0.0,0.0,0.0,0.0,0.0,0.0,0.0,0.0,0.0,0.0,0.0,-0.3388,0.0,0.0,0.0,0.0,0.0,0.0,0.0,0.0,0.0,0.0,-0.7716,-0.8243,-0.8776,-0.9054,0.0,0.0,0.0,0.0,-0.9929,-1.0058,-1.0519,-1.0665,-1.0148,-1.0076,-0.9947,-0.9632,0.0,0.0,-0.904,-0.9268,-0.9418,-0.9432,-0.9728,-0.9425,-0.757,-0.7378,-0.7416,-0.7325,-0.755,-0.7903,-0.8193,-0.856,-0.8971,-1.1052,0.0,0.0,0.0,0.0,-0.8238,-0.8099,-0.7953,-0.793,-0.7854,-0.7729,-0.7289,0.0,0.0,0.0,0.0,0.0,0.0,-0.8484,-0.9063,-0.9309,-0.968,-1.0111,-1.0147,-1.0169,-1.0119,-0.9548,-0.9274,-0.9239,-0.8328,-0.7459,-0.668,0.0,0.0,0.0,0.0,-0.7853,-0.8838,-0.8834,-0.9041,-0.9506,-0.927,-0.914,-0.908,-0.8971,-0.8702,-0.8237,-0.7869,-0.7238,-0.6433,-0.5613,0.0,0.0,0.0,0.0,0.0,0.0,0.0,0.0,0.0,0.0,0.0,0.0,0.0,0.0,0.0,0.0,0.0,0.0,0.0,-0.3917,-0.4402,-0.4617,0.0,0.0,0.0,0.0,0.0,0.0,0.0,0.0,0.0,-1.0901,-1.0409,-1.0248,0.0,0.0,-1.0895,-1.0606,-1.1044,-1.1388,-1.1483,-1.1871,0.0,-1.182,-1.1703,-1.1502,-1.1064,-1.0602,-1.0297,-1.0329,-1.0341,-1.0321,-1.0321,-1.0393,-1.0321,-0.9915,-0.9228,-0.8659,-0.8275,-0.8423,-0.8756,-0.9158,-0.9861,-1.0526,-1.423,-1.2521,-1.1194,-1.045,-1.0179,-1.0172,-1.0037,-0.9876,-0.9915,-0.9822,-0.9657,-0.9253,-0.8978,-0.8764,-0.8378,0.0,0.0,0.0,-1.0186,-1.0667,-1.086,-1.1187,-1.1522,-1.1435,-1.1403,-1.1406,-1.0857,-1.0573,-1.0451,-0.9977,-0.9242,-0.8226,0.0,0.0,-0.8029,-0.8156,-0.8702,-0.9563,-0.9549,-0.968,-0.9953,-0.9581,-0.9337,-0.9185,-0.9178,-0.9101,-0.8843,-0.8546,-0.8081,-0.7492,-0.6673,-0.5927,0.0,0.0,0.0,0.0,0.0,0.0,0.0,0.0,0.0,0.0,0.0,-0.3085,0.0,0.0,0.0,0.0,-0.4011,-0.4461,-0.4848,-0.5516,0.0,0.0,0.0,0.0,0.0,0.0,0.0,-1.1308,-1.1677,-1.2182,-1.3118,-1.2565,-1.2056,-1.2042,-1.198,-1.1899,-1.1722,0.0,-1.2408,-1.2585,-1.2992,-1.3202,-1.2903,-1.2917,-1.2798,-1.2244,-1.1928,-1.1733,-1.1661,-1.1506,-1.141,-1.1418,-1.1418,-1.1409,-1.1387,-1.0885,-1.0297,-0.9746,-0.9835,-1.0135,-1.0436,-1.1086,-1.1703,-1.7025,-1.6413,-1.4185,-1.2715,-1.1944,-1.2203,-1.2079,-1.1648,-1.1861,-1.1768,-1.1454,-1.1289,-1.0945,-1.043,-1.0414,0.0,-1.0625,-1.1363,-1.1953,-1.2373,-1.2402,-1.2542,-1.2833,-1.2664,-1.2589,-1.2582,-1.2226,-1.1951,-1.1696,-1.1432,-1.0924,-1.0278,-0.9206,-0.8819,-0.9109,-0.939,-0.9754,-1.0177,-1.0448,-1.0523,-1.0415,-0.9974,-0.9594,-0.9286,-0.9244,-0.923,-0.923,-0.8996,-0.8686,-0.824,-0.7669,-0.6933,-0.5954,0.0,0.0,0.0,0.0,0.0,0.0,0.0,0.0,0.0,0.0,0.0,0.0,0.0,0.0,0.0,-0.5012,0.0,-0.5802,-0.6796,0.0,0.0,0.0,-0.9609,-1.0467,-1.0913,-1.1696,-1.3147,0.0,0.0,-1.4684,-1.4639,-1.4167,-1.3155,-1.2825,-1.2743,-1.2992,-1.3056,-1.3158,-1.3525,-1.3998,-1.4148,-1.3784,-1.3968,-1.3968,-1.3325,-1.3135,-1.3047,-1.2879,-1.2679,-1.2573,-1.2527,-1.2566,-1.2501,-1.2249,-1.2271,-1.2235,-1.1606,-1.1487,-1.1576,-1.1794,-1.2095,-1.2415,-1.8163,-1.7519,-1.7068,-1.5593,-1.3624,-1.3567,-1.3243,-1.2752,-1.278,-1.2772,-1.2648,-1.2349,-1.2048,-1.1677,-1.194,-1.2053,-1.21,-1.2548,-1.2808,-1.294,-1.3191,-1.3351,-1.3393,-1.335,-1.3358,-1.3293,-1.301,-1.2813,-1.2737,-1.2654,-1.2404,-1.2018,-1.1503,-1.077,-0.9873,-0.9924,-1.0245,-1.0836,-1.0704,-1.0594,-1.0551,-1.0189,-0.9993,-0.9879,-0.9614,-0.9484,-0.951,-0.9445,-0.9148,-0.8605,-0.8155,-0.7566,-0.6834,-0.5903,0.0,0.0,0.0,0.0,0.0,0.0,0.0,0.0,0.0,-0.4166,-0.4637,0.0,-0.5197,0.0,-0.6432,-0.7219,-0.7709,-0.8873,0.0,0.0,-1.0629,-1.1524,-1.1953,-1.2717,-1.3676,-1.4918,-1.5407,-1.588,-1.6557,-1.6464,-1.6272,-1.5972,-1.4838,-1.4039,-1.4128,-1.4214,-1.4436,-1.4849,-1.5214,-1.5374,-1.5249,-1.54,-1.5306,-1.4702,-1.4382,-1.4092,-1.3791,-1.345,-1.326,-1.3268,-1.326,-1.3226,-1.3189,-1.3331,-1.3386,-1.3169,-1.2319,-1.1739,-1.2361,-1.2634,-1.2854,-1.9344,-1.8793,-1.8772,-1.7667,-1.5917,-1.5396,-1.4883,-1.4307,-1.4299,-1.422,-1.4011,-1.3528,-1.321,-1.3039,-1.3035,-1.306,-1.3076,-1.3466,-1.3654,-1.3704,-1.3855,-1.3939,-1.3947,-1.3869,-1.3833,-1.3825,-1.3634,-1.3474,-1.3351,-1.3336,-1.3126,-1.2831,-1.264,-1.2163,-1.1436,-1.0987,-1.1017,-1.1518,-1.1294,-1.0938,-1.0594,-1.0411,-1.0177,-0.9892,-0.9709,-0.9614,-0.9614,-0.9614,-0.9394,-0.895,-0.8566,-0.807,-0.741,-0.655,-0.6013,0.0,0.0,0.0,0.0,0.0,0.0,0.0,0.0,0.0,0.0,0.0,-0.663,-0.7236,-0.8244,-0.9044,-0.9476,-1.0705,-1.1515,-1.1491,-1.2416,-1.3282,-1.3847,-1.4431,-1.5228,-1.6367,-1.6719,-1.7001,-1.7337,-1.7284,-1.719,-1.7159,-1.632,-1.5714,-1.5643,-1.5674,-1.5854,-1.6196,-1.6374,-1.6481,-1.645,-1.6427,-1.6252,-1.5927,-1.5569,-1.5204,-1.4932,-1.4644,-1.448,-1.4515,-1.4501,-1.4425,-1.4267,-1.4198,-1.421,-1.4088,-1.3553,-1.3127,-1.3248,-1.338,-1.3608,-2.0459,-1.999,-1.9794,-1.9148,-1.8219,-1.7384,-1.6665,-1.5943,-1.5943,-1.5723,-1.5356,-1.4741,-1.4463,-1.4428,-1.4081,-1.389,-1.3897,-1.4316,-1.4497,-1.4497,-1.4497,-1.4497,-1.4497,-1.4317,-1.4201,-1.4209,-1.4173,-1.4019,-1.3723,-1.3715,-1.3596,-1.3312,-1.3258,-1.3235,-1.3196,-1.2304,-1.1943,-1.2089,-1.1903,-1.1495,-1.0813,-1.0717,-1.04,-0.982,-0.971,-0.9647,-0.9621,-0.9621,-0.9486,-0.9156,-0.8838,-0.8414,-0.7786,-0.7161,-0.6724,0.0,-0.6164,0.0,0.0,0.0,0.0,0.0,0.0,0.0,0.0,-0.7656,-0.8444,-0.9293,-1.0198,-1.0894,-1.1199,-1.2451,-1.3339,-1.3558,-1.4187,-1.4941,-1.5818,-1.6095,-1.6556,-1.7492,-1.7666,-1.7707,-1.7738,-1.7707,-1.7676,-1.7591,-1.7549,-1.7414,-1.7278,-1.7073,-1.6995,-1.7284,-1.7324,-1.7322,-1.7371,-1.7201,-1.7022,-1.6921,-1.6628,-1.6354,-1.6122,-1.5856,-1.5761,-1.5835,-1.5794,-1.5688,-1.5327,-1.5034,-1.4932,-1.492,-1.4827,-1.4636,-1.4264,-1.4234,-1.4437,-2.1174,-2.0489,-2.045,-1.9972,-1.9319,-1.9118,-1.8169,-1.6761,-1.6798,-1.6652,-1.6396,-1.6051,-1.5905,-1.5881,-1.5536,-1.5385,-1.5361,-1.5124,-1.5062,-1.5026,-1.5062,-1.5062,-1.5026,-1.482,-1.4756,-1.4756,-1.4569,-1.4466,-1.4403,-1.4403,-1.4371,-1.4293,-1.4052,-1.3918,-1.3894,0.0,0.0,0.0,-1.2058,-1.1966,-1.1798,-1.1296,-1.0933,-1.0789,-1.0246,0.0,-0.9766,-0.9766,-0.9474,-0.884,-0.8745,0.0,0.0,0.0,0.0,0.0,0.0,0.0,0.0,0.0,0.0,0.0,-0.8637,-0.869,-0.8471,-0.9556,-1.0554,-1.1238,-1.2129,-1.2732,-1.2926,-1.4277,-1.5247,-1.5409,-1.6157,-1.684,-1.7144,-1.7491,-1.7902,-1.8194,-1.8546,-1.8773,-1.8742,-1.8783,-1.8763,-1.8699,-1.874,-1.875,-1.8687,-1.7866,-1.7273,-1.7325,-1.7629,-1.7908,-1.8204,-1.8191,-1.7955,-1.7758,-1.7561,-1.7271,-1.688,-1.6345,-1.6081,-1.6351,-1.6504,-1.6468,-1.6062,-1.5939,-1.5908,-1.5914,-1.5681,-1.5328,-1.4928,-1.4862,-1.493,-2.207,0.0,-2.1342,-2.0968,0.0,-2.0233,-1.954,-1.861,-1.7952,-1.75,-1.7116,-1.6901,-1.6741,-1.6573,-1.6376,-1.618,-1.6051,-1.5815,-1.5741,-1.5733,-1.5733,-1.5678,-1.5485,-1.5421,-1.525,-1.5034,-1.4963,-1.4883,-1.4883,-1.4883,-1.4892,-1.4883,-1.4733,-1.4644,-1.4636,-1.4304,-1.3579,-1.2444,-1.2274,-1.2104,-1.1836,-1.1537,-1.1268,-1.1099,-1.0722,0.0,0.0,0.0,0.0,0.0,0.0,0.0,0.0,0.0,0.0,-0.8731,-0.8594,-0.8586,-0.8821,-0.8964,-0.9305,-0.9882,-1.054,-1.0814,-1.0503,-1.1408,-1.2238,-1.2861,-1.3769,-1.4416,-1.4664,-1.5816,-1.6627,-1.6708,-1.7165,-1.7605,-1.7893,-1.8151,-1.842,-1.8702,-1.8953,-1.9098,-1.9098,-1.9098,-1.9098,-1.9098,-1.9098,-1.9098,-1.9067,-1.8594,-1.8199,-1.8189,-1.831,-1.8565,-1.8747,-1.8707,-1.859,-1.8347,-1.8207,-1.8028,-1.7795,-1.7421,-1.7252,-1.7465,-1.7546,-1.7461,-1.7112,-1.6877,-1.6731,-1.6721,-1.6586,-1.6338,-1.5993,-1.5513,-1.5078,-2.2941,-2.2635,-2.2231,-2.194,-2.174,-2.1184,-2.0791,-2.0429,0.0,0.0,0.0,-1.7705,-1.7488,-1.7234,-1.703,-1.6822,-1.6598,-1.6585,-1.6505,-1.6468,-1.6468,-1.628,-1.6013,-1.5968,-1.574,-1.5383,-1.5339,-1.5262,-1.5204,-1.5196,-1.5196,-1.5196,-1.5196,-1.5196,-1.5171,-1.4858,-1.4193,-1.3177,-1.2727,-1.232,-1.197,-1.1824,-1.1622,-1.1313,-1.1251,-1.1053,-1.0747,-1.0713,-1.0436,-0.9818,-0.9788,-0.965,-0.9389,-0.9366,-0.9413,-0.9491,-0.9499,-0.9639,-0.9975,-1.0199,-1.064,-1.1358,-1.2202,-1.2612,-1.2467,-1.3032,-1.3672,-1.4308,-1.5234,-1.592,-1.6184,-1.7053,-1.7646,-1.7656,-1.7822,-1.8123,-1.8476,-1.8538,-1.8736,-1.9092,-1.9198,-1.9208,-1.9208,-1.9208,-1.9164,-1.9208,-1.9208,-1.9164,-1.9142,-1.9067,-1.8982,-1.8982,-1.8982,-1.9088,-1.9065,-1.8965,-1.8841,-1.8811,-1.8687,-1.8617,-1.8617,-1.8549,-1.8549,-1.8425,-1.8516,-1.8345,-1.8046,-1.7735,-1.7526,-1.7516,-1.7404,-1.7322,-1.7115,-1.6261,-1.5533,-2.3557,-2.2819,-2.2798,-2.2656,-2.2452,-2.2341,-2.197,-2.1322,-2.0006,-1.9407,-1.9273,-1.8919,-1.8752,-1.8685,-1.816,-1.7884,-1.7837,-1.7558,-1.7296,-1.7081,-1.7044,-1.6951,-1.6728,-1.6569,-1.63,-1.5981,-1.5801,-1.5563,-1.5229,-1.5204,-1.5196,-1.5196,-1.5196,-1.5196,-1.5171,-1.4866,-1.4609,-1.4425,-1.3762,-1.3385,-1.3288,-1.2699,-1.2297,-1.2123,-1.1833,-1.1543,-1.1227,-1.1191,-1.0957,-1.0478,-1.0455,-1.0424,-1.0386,-1.0371,-1.0562,-1.095,-1.0981,-1.1142,-1.143,-1.1529,-1.1903,-1.268,-1.3318,-1.3622,-1.3529,-1.4142,-1.4903,-1.5732,-1.6516,-1.704,-1.7287,-1.7862,-1.8256,-1.8309,-1.864,-1.8975,-1.9116,-1.9159,-1.9213,-1.9462,-1.9539,-1.9506,-1.9517,-1.9506,-1.9506,-1.9506,-1.9473,-1.9483,-1.9318,-1.9185,-1.9098,-1.9098,-1.9098,-1.9098,-1.9098,-1.9065,-1.9042,-1.9075,-1.9008,-1.8975,-1.8975,-1.8942,-1.8908,-1.8774,-1.8852,-1.8811,-1.8475,-1.8385,-1.8288,-1.8271,-1.7901,-1.7628,-1.7732,-1.7351,-1.6937,-2.4514,-2.4127,-2.3886,-2.37,-2.3597,-2.3104,-2.2605,-2.209,-2.1488,-2.0737,-1.997,-1.9636,-1.9429,-1.9311,-1.9009,-1.881,-1.8596,-1.8434,-1.8237,-1.8034,-1.7995,-1.7842,-1.7581,-1.7333,-1.7068,-1.6716,-1.6512,-1.6198,-1.5816,-1.5827,-1.569,-1.5557,-1.5532,-1.5541,-1.5524,-1.538,-1.5305,-1.5279,-1.4388,-1.3817,-1.361,-1.3256,-1.2962,-1.2682,-1.2451,-1.2185,-1.1847,-1.1744,-1.15,-1.1099,-1.1083,-1.1083,-1.1083,-1.1083,-1.1245,-1.1543,-1.1551,-1.1752,-1.2155,-1.251,-1.3139,-1.4058,-1.4402,-1.4793,-1.536,-1.5462,-1.5836,-1.6634,-1.7322,-1.7807,-1.7997,-1.8453,-1.882,-1.8895,-1.9093,-1.9274,-1.945,-1.945,-1.9506,-1.9572,-1.9583,-1.9583,-1.9583,-1.9583,-1.9583,-1.9583,-1.9615,-1.9593,-1.9483,-1.9407,-1.9308,-1.9131,-1.9098,-1.9098,-1.9098,-1.9098,-1.9098,-1.9098,-1.9098,-1.9098,-1.9098,-1.9098,-1.9075,-1.9008,-1.9042,-1.9042,-1.8841,-1.8798,-1.8808,-1.8787,-1.8622,-1.8438,-1.8395,-1.8198,-1.7805,-2.5242,-2.5158,-2.4807,-2.4647,-2.4604,-2.3811,-2.3308,-2.3002,-2.2818,-2.206,-2.0977,-2.0486,-2.0163,-1.9965,-1.9841,-1.9557,-1.924,-1.9201,-1.9073,-1.8851,-1.8851,-1.8611,-1.8248,-1.8074,-1.7765,-1.7377,-1.7199,-1.6879,-1.647,-1.6428,-1.6285,-1.5951,-1.5848,-1.5805,-1.5805,-1.5805,-1.5805,-1.5771,-1.4976,-1.4371,-1.3972,-1.3872,-1.3624,-1.3229,-1.3112,-1.284,-1.2506,-1.2317,-1.21,-1.1872,-1.1848,-1.1848,-1.1812,-1.1848,-1.1906,-1.2049,-1.2057,-1.2299,-1.2839,-1.3408,-1.418,-1.5131,-1.5324,-1.5795,-1.6726,-1.6617,-1.6672,-1.7352,-1.7946,-1.8405,-1.8611,-1.8903,-1.9208,-1.9351,-1.9489,-1.964,-1.9808,-1.9916,-1.9991,-2.0024,-2.0058,-2.009,-2.0068,-2.0068,-2.0111,-2.0122,-1.9983,-1.9864,-1.9831,-1.9767,-1.9539,-1.9308,-1.9208,-1.9241,-1.9198,-1.9175,-1.9175,-1.9142,-1.9098,-1.9098,-1.9098,-1.9098,-1.9098,-1.9098,-1.9098,-1.9098,-1.9098,-1.9098,-1.9065,-1.9065,-1.899,-1.9011,-1.8867,-1.8713,-1.8344,-2.5422,-2.5242,-2.5179,-2.5126,-2.5062,-2.4584,-2.4341,-2.4217,-2.3502,-2.3071,-2.2837,-2.189,-2.1352,-2.1064,-2.0526,-2.0088,-1.9843,-1.9833,-1.9627,-1.9262,-1.9222,-1.9015,-1.8661,-1.863,-1.8325,-1.7817,-1.7713,-1.7389,-1.6876,-1.6812,-1.6661,-1.6338,-1.5977,-1.5822,-1.5814,-1.5814,-1.5805,-1.5805,-1.5702,-1.5471,-1.5053,-1.4762,-1.4355,-1.3847,-1.3798,-1.3528,-1.3003,-1.2901,-1.2893,-1.2882,-1.2835,-1.2844,-1.2835,-1.2844,-1.2852,-1.2882,-1.2882,-1.32,-1.3876,-1.4297,-1.4859,-1.5579,-1.5954,-1.6434,-1.7259,-1.7365,-1.757,-1.8049,-1.8436,-1.8816,-1.9145,-1.9274,-1.9426,-1.9634,-1.9986,-2.0298,-2.05,-2.0889,-2.1218,-2.1426,-2.1272,-2.1416,-2.1283,-2.1272,-2.1315,-2.1194,-2.09,-2.066,-2.0537,-2.0234,-1.992,-1.9658,-1.955,-1.956,-1.9527,-1.9374,-1.9318,-1.9285,-1.9208,-1.9164,-1.9164,-1.9131,-1.9098,-1.9198,-1.9098,-1.9098,-1.9131,-1.9098,-1.9098,-1.9098,-1.9098,-1.9098,-1.9075,-1.9031,-1.8672,-2.5717,-2.5644,-2.5601,-2.5559,-2.5432,-2.5218,-2.5049,-2.4881,-2.4534,-2.4377,-2.4314,-2.3637,-2.2849,-2.2039,-2.1481,-2.1076,-2.0739,-2.0449,-2.005,-1.9706,-1.9666,-1.9518,-1.925,-1.9082,-1.8872,-1.8501,-1.8285,-1.7935,-1.7432,-1.7076,-1.6804,-1.6661,-1.6347,-1.6167,-1.6141,-1.5908,-1.5805,-1.5805,-1.5805,-1.572,-1.554,-1.5197,-1.4788,-1.4422,-1.4241,-1.4085,-1.3813,-1.3519,-1.3355,-1.3347,-1.3135,-1.3011,-1.3011,-1.3217,-1.3387,-1.3528,-1.3887,-1.4328,-1.474,-1.506,-1.5583,-1.6365,-1.6733,-1.7223,-1.7942,-1.8085,-1.8284,-1.8783,-1.9005,-1.9175,-1.9339,-1.966,-1.9952,-2.0185,-2.0627,-2.0976,-2.1194,-2.1357,-2.1522,-2.1592,-2.1603,-2.1614,-2.1603,-2.1603,-2.1603,-2.1581,-2.143,-2.1263,-2.1172,-2.1009,-2.0747,-2.0464,-2.0366,-2.0125,-1.9756,-1.9539,-1.9473,-1.9483,-1.945,-1.9407,-1.9374,-1.9208,-1.9164,-1.933,-1.9264,-1.9198,-1.9208,-1.9131,-1.9098,-1.9098,-1.9098,-1.9098,-1.9098,-1.9098,-1.8918,-2.5895,-2.5895,-2.5895,-2.5812,-2.5686,-2.5686,-2.5549,-2.5422,-2.5338,-2.5295,-2.5253,-2.487,-2.4178,-2.3299,-2.2594,-2.199,-2.1471,-2.1135,-2.0635,-2.0157,-2.0098,-1.9902,-1.9597,-1.9478,-1.9271,-1.8993,-1.8705,-1.8333,-1.7974,-1.7415,-1.7119,-1.7013,-1.6687,-1.6544,-1.651,-1.6175,-1.5951,-1.5942,-1.5857,-1.5805,-1.5762,-1.5523,-1.5197,-1.4872,-1.4688,-1.4571,-1.4469,-1.4111,-1.3896,-1.3887,-1.3614,-1.3472,-1.3489,-1.3762,-1.3992,-1.4168,-1.4625,-1.5061,-1.5438,-1.5691,-1.6201,-1.6959,-1.7373,-1.7823,-1.8358,-1.8607,-1.8936,-1.9473,-1.9739,-1.9837,-1.9739,-2.0198,-2.0636,-2.0885,-2.1296,-2.1637,-2.1789,-2.1876,-2.2007,-2.1974,-2.2062,-2.1974,-2.1974,-2.2018,-2.2051,-2.204,-2.1898,-2.1789,-2.1756,-2.1658,-2.1417,-2.1135,-2.0993,-2.0586,-1.9887,-1.9704,-1.9704,-1.9671,-1.9638,-1.9583,-1.9583,-1.9374,-1.9274,-1.9473,-1.9374,-1.9341,-1.9374,-1.9308,-1.9198,-1.9164,-1.9175,-1.9164,-1.9098,-1.9098,-1.9098,-2.5895,-2.5937,-2.5895,-2.5906,-2.5895,-2.5906,-2.5853,-2.5812,-2.5644,-2.5559,-2.5559,-2.5295,-2.5136,-2.4904,-2.372,-2.2704,-2.1979,-2.1879,-2.1382,-2.0635,-2.0596,-2.0225,-1.9597,-1.9606,-1.9408,-1.9082,-1.8962,-1.8736,-1.8364,-1.7952,-1.7653,-1.7462,-1.7119,-1.6893,-1.6879,-1.659,-1.6356,-1.6321,-1.6038,-1.5822,-1.5814,-1.5788,-1.5566,-1.5232,-1.5155,-1.501,-1.4761,-1.4684,-1.4625,-1.4658,-1.4574,-1.4565,-1.4615,-1.46,-1.4715,-1.4846,-1.4896,-1.5292,-1.5963,-1.62,-1.6624,-1.7372,-1.776,-1.8138,-1.8506,-1.8903,-1.938,-1.9973,-2.0651,-2.0908,-2.0676,-2.0986,-2.135,-2.1522,-2.195,-2.2212,-2.228,-2.2597,-2.2892,-2.287,-2.2805,-2.2772,-2.287,-2.2947,-2.2837,-2.275,-2.2531,-2.2291,-2.2226,-2.192,-2.1691,-2.1516,-2.121,-2.0718,-2.0227,-1.9944,-1.9868,-1.9868,-1.978,-1.9648,-1.9615,-1.9583,-1.9615,-1.9681,-1.9769,-1.9769,-1.9648,-1.9539,-1.944,-1.9374,-1.9318,-1.9285,-1.9241,-1.9131,-1.9131,-2.6354,-2.6354,-2.6343,-2.6354,-2.6313,-2.6157,-2.6063,-2.6074,-2.5864,-2.578,-2.578,-2.5686,-2.5601,-2.5454,-2.4954,-2.4157,-2.3197,-2.2757,-2.209,-2.1332,-2.1253,-2.084,-2.0088,-1.9863,-1.9676,-1.9399,-1.9121,-1.8843,-1.8594,-1.843,-1.8329,-1.8219,-1.7886,-1.7655,-1.7585,-1.7325,-1.7178,-1.7097,-1.6645,-1.6381,-1.6328,-1.6005,-1.5728,-1.56,-1.5591,-1.5531,-1.5403,-1.5163,-1.5026,-1.5026,-1.4821,-1.4717,-1.4734,-1.504,-1.534,-1.5651,-1.5873,-1.6183,-1.6567,-1.6893,-1.729,-1.774,-1.8144,-1.8424,-1.8778,-1.9417,-2.0028,-2.0411,-2.1574,-2.2056,-2.1827,-2.1857,-2.1944,-2.2081,-2.2466,-2.2739,-2.2772,-2.2903,-2.3001,-2.3001,-2.3001,-2.3001,-2.3001,-2.3001,-2.3001,-2.2979,-2.2848,-2.275,-2.2728,-2.2575,-2.2357,-2.2116,-2.1898,-2.1625,-2.1144,-2.0412,-2.002,-2.0009,-1.9987,-1.9955,-1.9922,-1.9889,-1.9889,-1.9889,-2.0042,-2.0009,-1.9813,-1.9681,-1.9615,-1.9539,-1.9483,-1.9483,-1.944,-1.9341,-1.9374,-2.6603,-2.6603,-2.6603,-2.6603,-2.6592,-2.6385,-2.6324,-2.6324,-2.6115,-2.5979,-2.599,-2.5948,-2.5822,-2.5696,-2.5644,-2.5188,-2.4315,-2.3608,-2.2879,-2.206,-2.195,-2.1431,-2.0682,-2.0308,-1.9955,-1.9576,-1.928,-1.9002,-1.8812,-1.8772,-1.8772,-1.8665,-1.8408,-1.8284,-1.8231,-1.795,-1.7754,-1.7692,-1.7261,-1.6993,-1.6912,-1.6462,-1.6155,-1.6129,-1.6034,-1.5903,-1.5832,-1.554,-1.5403,-1.5377,-1.5172,-1.5077,-1.517,-1.5513,-1.5869,-1.6228,-1.6455,-1.6716,-1.7003,-1.7289,-1.7632,-1.7993,-1.8462,-1.8795,-1.9073,-1.9982,-2.0554,-2.1037,-2.1891,-2.2663,-2.2597,-2.2531,-2.2531,-2.2528,-2.2826,-2.3001,-2.3001,-2.299,-2.3001,-2.3001,-2.3001,-2.3001,-2.3001,-2.3001,-2.3001,-2.3001,-2.3001,-2.3001,-2.3001,-2.299,-2.2925,-2.2597,-2.2331,-2.2092,-2.1756,-2.1154,-2.0609,-2.0521,-2.0162,-2.0129,-2.0162,-2.0151,-2.0118,-2.0118,-2.0085,-2.0042,-1.9976,-1.9846,-1.978,-1.9704,-1.9671,-1.9671,-1.9605,-1.9583,-1.9583,-2.6644,-2.6644,-2.6603,-2.6644,-2.6644,-2.6603,-2.6603,-2.6561,-2.6313,-2.624,-2.6188,-2.6032,-2.5948,-2.5864,-2.5738,-2.5443,-2.503,-2.4461,-2.3711,-2.2849,-2.2615,-2.2048,-2.128,-2.0809,-2.0247,-1.9671,-1.9399,-1.9183,-1.9002,-1.9002,-1.8931,-1.8772,-1.8705,-1.8691,-1.8714,-1.8362,-1.8136,-1.8095,-1.7801,-1.7614,-1.7569,-1.7185,-1.6927,-1.6855,-1.6537,-1.6245,-1.5909,-1.5841,-1.5781,-1.5798,-1.5781,-1.5885,-1.5974,-1.607,-1.6254,-1.649,-1.6603,-1.6811,-1.7166,-1.7392,-1.7676,-1.8115,-1.8755,-1.9233,-1.9577,-2.0379,-2.1144,-2.1524,-2.206,-2.2484,-2.2881,-2.2936,-2.2936,-2.299,-2.299,-2.3001,-2.3001,-2.3001,-2.3001,-2.3001,-2.3001,-2.3001,-2.3001,-2.3001,-2.3001,-2.3001,-2.3001,-2.3001,-2.3001,-2.3001,-2.299,-2.2903,-2.2684,-2.2386,-2.2182,-2.1909,-2.1439,-2.1036,-2.0511,-2.026,-2.026,-2.0249,-2.014,-2.0118,-2.0118,-2.0085,-2.0085,-1.9987,-1.9944,-1.9911,-1.9868,-1.9846,-1.9813,-1.9747,-1.9714,-2.7026,-2.7026,-2.7015,-2.7026,-2.7026,-2.685,-2.6809,-2.6779,-2.6561,-2.6479,-2.6437,-2.6229,-2.6104,-2.6074,-2.5906,-2.5601,-2.5189,-2.4946,-2.4326,-2.3411,-2.3069,-2.262,-2.1933,-2.1281,-2.0579,-1.9863,-1.9439,-1.9262,-1.9231,-1.9192,-1.9152,-1.9112,-1.9112,-1.9112,-1.9063,-1.8985,-1.8922,-1.8876,-1.8416,-1.8141,-1.8105,-1.766,-1.7427,-1.7372,-1.7265,-1.713,-1.7039,-1.6474,-1.6158,-1.6149,-1.614,-1.6175,-1.6228,-1.6368,-1.6499,-1.6612,-1.6716,-1.7012,-1.7358,-1.7499,-1.7864,-1.8483,-1.9004,-1.9399,-1.9941,-2.0746,-2.1385,-2.1706,-2.2209,-2.2722,-2.2931,-2.3001,-2.3001,-2.3001,-2.3001,-2.3001,-2.3001,-2.3001,-2.3001,-2.3001,-2.3001,-2.3001,-2.3001,-2.3001,-2.3001,-2.3001,-2.3001,-2.3001,-2.3001,-2.3001,-2.3001,-2.2968,-2.2805,-2.268,-2.2528,-2.2306,-2.1969,-2.1546,-2.1022,-2.0521,-2.0489,-2.026,-2.0162,-2.0118,-2.0118,-2.0118,-2.0118,-2.0085,-2.0053,-2.0042,-2.002,-1.9987,-1.9955,-1.9922,-1.9878,-2.719,-2.719,-2.719,-2.719,-2.719,-2.7067,-2.7015,-2.6974,-2.6809,-2.6727,-2.6644,-2.6354,-2.6199,-2.6157,-2.5979,-2.5644,-2.5242,-2.52,-2.4714,-2.3935,-2.3513,-2.3102,-2.2494,-2.1614,-2.0767,-1.9993,-1.9659,-1.9448,-1.9301,-1.9292,-1.9292,-1.9292,-1.9292,-1.9292,-1.9292,-1.9292,-1.9292,-1.9216,-1.8927,-1.8722,-1.8649,-1.8244,-1.8008,-1.799,-1.7873,-1.781,-1.7756,-1.7252,-1.6848,-1.6555,-1.6395,-1.6342,-1.6412,-1.6533,-1.6638,-1.6753,-1.7002,-1.7278,-1.7567,-1.7842,-1.8222,-1.8899,-1.9417,-1.9889,-2.043,-2.114,-2.1686,-2.1908,-2.236,-2.2751,-2.2852,-2.2964,-2.3001,-2.3001,-2.3001,-2.3001,-2.3001,-2.3001,-2.3001,-2.3001,-2.3001,-2.3001,-2.3001,-2.3001,-2.3001,-2.3001,-2.3001,-2.3001,-2.3001,-2.3001,-2.3001,-2.3001,-2.2947,-2.2888,-2.2846,-2.2646,-2.2425,-2.2038,-2.1572,-2.1121,-2.0806,-2.0358,-2.0118,-2.0118,-2.0118,-2.0118,-2.0118,-2.0118,-2.0085,-2.0118,-2.0118,-2.0085,-2.0053,-2.0053,-2.002,-2.719,-2.719,-2.719,-2.719,-2.719,-2.719,-2.719,-2.7149,-2.6974,-2.6944,-2.682,-2.6448,-2.624,-2.6188,-2.6021,-2.5633,-2.5285,-2.52,-2.4946,-2.4402,-2.3943,-2.3483,-2.2879,-2.1813,-2.0917,-2.0186,-1.9966,-1.971,-1.9421,-1.9393,-1.9311,-1.9311,-1.9292,-1.9292,-1.9292,-1.9292,-1.9292,-1.9283,-1.9274,-1.9216,-1.9198,-1.8905,-1.8713,-1.8695,-1.8373,-1.8209,-1.8218,-1.809,-1.7696,-1.7044,-1.6697,-1.6634,-1.6685,-1.6675,-1.6871,-1.7066,-1.7358,-1.7612,-1.7912,-1.8297,-1.8772,-1.9197,-1.9895,-2.0599,-2.0788,-2.1411,-2.1941,-2.2027,-2.2371,-2.2628,-2.2703,-2.2815,-2.2927,-2.2953,-2.2953,-2.3001,-2.2964,-2.2964,-2.2927,-2.2927,-2.2964,-2.2964,-2.2927,-2.2927,-2.2927,-2.2927,-2.2927,-2.2889,-2.2889,-2.2852,-2.2927,-2.2927,-2.2852,-2.2815,-2.2692,-2.266,-2.245,-2.2299,-2.1912,-2.1563,-2.1062,-2.0573,-2.0227,-2.0205,-2.0129,-2.014,-2.0118,-2.0129,-2.0118,-2.0118,-2.0118,-2.0118,-2.0118,-2.0118,-2.0118,-2.719,-2.719,-2.719,-2.719,-2.719,-2.719,-2.719,-2.719,-2.7138,-2.7108,-2.7015,-2.6685,-2.6479,-2.6426,-2.6063,-2.5633,-2.5285,-2.52,-2.4956,-2.4507,-2.4013,-2.3313,-2.265,-2.1993,-2.1334,-2.0784,-2.0475,-2.0113,-1.9756,-1.9719,-1.9613,-1.9301,-1.9329,-1.9301,-1.9292,-1.9292,-1.9292,-1.9292,-1.9292,-1.9292,-1.9283,-1.9201,-1.9155,-1.9136,-1.9017,-1.8962,-1.8953,-1.8705,-1.8338,-1.7852,-1.7697,-1.7651,-1.7643,-1.7633,-1.7652,-1.7725,-1.7862,-1.8027,-1.8229,-1.8544,-1.8945,-1.9455,-1.9986,-2.0436,-2.0861,-2.1354,-2.1693,-2.1883,-2.2111,-2.2327,-2.244,-2.2553,-2.258,-2.2596,-2.2804,-2.2927,-2.2815,-2.2777,-2.274,-2.259,-2.258,-2.259,-2.259,-2.259,-2.259,-2.259,-2.259,-2.258,-2.2617,-2.2628,-2.2665,-2.259,-2.2553,-2.2515,-2.2478,-2.2478,-2.2446,-2.2424,-2.2222,-2.1997,-2.1393,-2.0818,-2.0565,-2.0462,-2.0289,-2.0224,-2.0139,-2.0096,-2.0096,-2.014,-2.0085,-2.0085,-2.0118,-2.0118,-2.0118,-2.719,-2.719,-2.719,-2.719,-2.719,-2.719,-2.719,-2.719,-2.719,-2.719,-2.7108,-2.6757,-2.6603,-2.6561,-2.6104,-2.5644,-2.5242,-2.52,-2.4956,-2.4507,-2.4013,-2.3309,-2.2541,-2.2114,-2.1727,-2.1133,-2.0879,-2.0558,-2.0237,-2.0131,-1.9912,-1.9659,-1.9567,-1.9485,-1.9292,-1.9292,-1.9292,-1.9292,-1.9292,-1.9292,-1.9292,-1.9292,-1.9292,-1.9292,-1.9292,-1.9292,-1.9256,-1.9072,-1.8676,-1.8228,-1.8081,-1.8081,-1.8081,-1.8081,-1.8081,-1.8091,-1.8228,-1.8413,-1.8544,-1.8844,-1.9288,-1.9717,-2.0099,-2.0504,-2.0855,-2.1195,-2.1464,-2.1538,-2.1787,-2.2025,-2.2138,-2.2289,-2.2402,-2.2419,-2.2617,-2.2713,-2.2612,-2.2563,-2.2526,-2.244,-2.2392,-2.2402,-2.2402,-2.2402,-2.2402,-2.2402,-2.244,-2.2429,-2.244,-2.2402,-2.2365,-2.2289,-2.2289,-2.2289,-2.2214,-2.2176,-2.2063,-2.2063,-2.2004,-2.1895,-2.1628,-2.103,-2.0839,-2.0655,-2.0475,-2.0316,-2.0277,-2.0236,-2.0194,-2.0161,-2.0118,-2.0085,-2.0096,-2.0085,-2.0085,-2.7231,-2.719,-2.719,-2.719,-2.719,-2.719,-2.719,-2.719,-2.719,-2.719,-2.7108,-2.6768,-2.6603,-2.6573,-2.6104,-2.5633,-2.52,-2.52,-2.4861,-2.4401,-2.3884,-2.3232,-2.2476,-2.235,-2.1898,-2.1307,-2.1172,-2.0934,-2.0668,-2.0576,-2.0323,-2.004,-1.9989,-1.976,-1.9522,-1.9402,-1.9356,-1.9301,-1.9292,-1.9292,-1.9292,-1.9292,-1.9292,-1.9292,-1.9292,-1.9292,-1.9292,-1.9228,-1.8971,-1.8293,-1.821,-1.8283,-1.8293,-1.8275,-1.8246,-1.8357,-1.8614,-1.877,-1.8845,-1.9249,-1.962,-1.9855,-2.0207,-2.0605,-2.076,-2.0964,-2.1146,-2.1193,-2.152,-2.1693,-2.1769,-2.2063,-2.2128,-2.2128,-2.2214,-2.2273,-2.2283,-2.2311,-2.2327,-2.2289,-2.2289,-2.2252,-2.2252,-2.23,-2.2252,-2.1949,-2.1987,-2.1997,-2.1987,-2.1949,-2.1997,-2.2073,-2.2073,-2.2101,-2.1997,-2.1845,-2.1693,-2.1578,-2.1512,-2.1466,-2.1516,-2.1167,-2.1039,-2.0892,-2.066,-2.0538,-2.0514,-2.0432,-2.0371,-2.0201,-2.0169,-2.0128,-2.0074,-2.0053,-2.002,-2.733,-2.719,-2.719,-2.719,-2.719,-2.719,-2.719,-2.719,-2.719,-2.719,-2.7108,-2.6768,-2.6603,-2.655,-2.6104,-2.5644,-2.5242,-2.5115,-2.4775,-2.397,-2.3721,-2.3144,-2.253,-2.2397,-2.2076,-2.1664,-2.1549,-2.133,-2.1071,-2.0952,-2.0778,-2.0448,-2.0365,-2.0149,-1.9852,-1.9778,-1.9613,-1.9375,-1.9311,-1.9329,-1.9329,-1.9301,-1.9292,-1.9292,-1.9292,-1.9292,-1.9292,-1.9292,-1.921,-1.9091,-1.9008,-1.8944,-1.8953,-1.8981,-1.8962,-1.8971,-1.9054,-1.9155,-1.9231,-1.9404,-1.9606,-1.9715,-1.9912,-2.0147,-2.041,-2.0625,-2.078,-2.0945,-2.1177,-2.131,-2.1397,-2.1425,-2.154,-2.1578,-2.155,-2.1512,-2.1512,-2.1741,-2.1845,-2.1741,-2.1627,-2.1474,-2.1512,-2.155,-2.155,-2.1474,-2.1474,-2.1474,-2.1512,-2.1589,-2.1617,-2.1693,-2.1693,-2.1693,-2.1655,-2.1502,-2.1387,-2.1233,-2.1128,-2.1079,-2.1178,-2.1219,-2.1036,-2.0943,-2.0848,-2.0736,-2.0642,-2.0769,-2.0732,-2.0469,-2.0204,-2.021,-2.0148,-2.0073,-1.9987,-2.7371,-2.719,-2.719,-2.719,-2.719,-2.719,-2.719,-2.719,-2.719,-2.7149,-2.7015,-2.6727,-2.652,-2.6396,-2.6021,-2.5644,-2.52,-2.4818,-2.4401,-2.3841,-2.358,-2.311,-2.253,-2.2353,-2.2176,-2.1776,-2.1687,-2.1531,-2.1447,-2.1355,-2.12,-2.0824,-2.0787,-2.0576,-2.0223,-2.0209,-2.0067,-1.9907,-1.9677,-1.9595,-1.9586,-1.9384,-1.9292,-1.9292,-1.9292,-1.9292,-1.9292,-1.9292,-1.9292,-1.9292,-1.9292,-1.9292,-1.9292,-1.9292,-1.9292,-1.9292,-1.9292,-1.9292,-1.9332,-1.939,-1.9518,-1.9597,-1.9715,-1.9872,-2.0039,-2.0225,-2.0372,-2.0605,-2.0799,-2.0964,-2.1177,-2.1215,-2.1215,-2.1215,-2.1215,-2.1215,-2.1244,-2.1387,-2.1512,-2.1359,-2.1282,-2.1254,-2.1215,-2.1089,-2.1177,-2.1244,-2.1282,-2.1282,-2.1379,-2.1418,-2.1272,-2.1262,-2.1282,-2.1244,-2.1233,-2.1156,-2.1041,-2.0964,-2.0848,-2.0848,-2.0854,-2.0926,-2.0939,-2.0924,-2.0925,-2.0796,-2.075,-2.0876,-2.0915,-2.0568,-2.0344,-2.0305,-2.0292,-2.0206,-2.0104,-2.7371,-2.719,-2.719,-2.719,-2.719,-2.719,-2.719,-2.7138,-2.7149,-2.7026,-2.685,-2.6633,-2.6407,-2.6188,-2.5948,-2.5591,-2.5073,-2.4487,-2.4013,-2.3797,-2.346,-2.2979,-2.2485,-2.2309,-2.2132,-2.1731,-2.1687,-2.1659,-2.1659,-2.1668,-2.1458,-2.1245,-2.12,-2.0989,-2.0695,-2.0561,-2.0488,-2.0374,-2.0145,-2.0017,-1.9939,-1.9714,-1.9577,-1.9448,-1.932,-1.9301,-1.9292,-1.9292,-1.9292,-1.9292,-1.9292,-1.9292,-1.9292,-1.9292,-1.9292,-1.9292,-1.9292,-1.9292,-1.9292,-1.9341,-1.9381,-1.9557,-1.9557,-1.9645,-1.9803,-1.9912,-2.002,-2.0196,-2.043,-2.0615,-2.0935,-2.0896,-2.0886,-2.0935,-2.0974,-2.1012,-2.1012,-2.1012,-2.0964,-2.1089,-2.0974,-2.0858,-2.0858,-2.077,-2.0896,-2.1012,-2.1012,-2.1061,-2.1158,-2.1119,-2.0896,-2.077,-2.0741,-2.0693,-2.0644,-2.0693,-2.0615,-2.0615,-2.0527,-2.0527,-2.0527,-2.0498,-2.0574,-2.0999,-2.1032,-2.0891,-2.0855,-2.1009,-2.0911,-2.0597,-2.0523,-2.0529,-2.047,-2.0363,-2.0245,-2.7371,-2.719,-2.719,-2.719,-2.719,-2.719,-2.7108,-2.6974,-2.6933,-2.685,-2.6644,-2.6396,-2.6271,-2.6115,-2.5822,-2.538,-2.4861,-2.4272,-2.3841,-2.3667,-2.3242,-2.275,-2.2441,-2.223,-2.1998,-2.1776,-2.1687,-2.1687,-2.1687,-2.1678,-2.1623,-2.1577,-2.1549,-2.1339,-2.1117,-2.0998,-2.0869,-2.0695,-2.047,-2.0429,-2.0383,-2.0223,-2.0031,-1.9824,-1.9586,-1.943,-1.9366,-1.9329,-1.9292,-1.9292,-1.9292,-1.932,-1.9384,-1.9384,-1.9356,-1.9292,-1.9292,-1.9292,-1.9292,-1.9292,-1.9301,-1.9341,-1.939,-1.9448,-1.9615,-1.9655,-1.9754,-1.9931,-2.0048,-2.0127,-2.0098,-2.037,-2.0224,-2.0176,-2.0321,-2.0321,-2.0272,-2.0332,-2.0449,-2.0664,-2.0596,-2.0459,-2.042,-2.042,-2.042,-2.0459,-2.0459,-2.0469,-2.0528,-2.0449,-2.0274,-2.0196,-2.0166,-2.0108,-2.005,-2.0098,-2.0108,-2.0147,-2.0137,-2.0137,-2.0098,-2.002,-2.0216,-2.0615,-2.0935,-2.0903,-2.0958,-2.1014,-2.0919,-2.065,-2.0702,-2.0746,-2.0586,-2.0469,-2.0618,-2.7412,-2.719,-2.7108,-2.7067,-2.7015,-2.6933,-2.685,-2.6768,-2.6727,-2.6592,-2.6396,-2.6229,-2.6074,-2.5906,-2.5738,-2.5264,-2.4658,-2.409,-2.3744,-2.3537,-2.3057,-2.2671,-2.2397,-2.2185,-2.1963,-2.1776,-2.1687,-2.1687,-2.1687,-2.1687,-2.1687,-2.1687,-2.1687,-2.1577,-2.1484,-2.1385,-2.1275,-2.1074,-2.09,-2.0824,-2.0744,-2.0625,-2.0351,-2.0186,-2.0053,-1.9952,-1.9925,-1.9925,-1.9893,-1.9912,-1.9943,-1.9934,-1.9907,-1.9861,-1.9723,-1.9412,-1.9329,-1.9311,-1.9301,-1.9292,-1.9292,-1.9292,-1.9311,-1.9341,-1.9399,-1.9478,-1.9604,-1.9781,-2.0176,-2.0273,-2.0332,-2.0403,-2.0545,-2.0564,-2.0545,-2.0526,-2.0498,-2.0346,-2.0381,-2.0434,-2.027,-2.0154,-2.0029,-1.999,-1.9951,-1.9912,-1.9863,-1.9912,-1.997,-1.9921,-1.9872,-1.9872,-1.9872,-1.9872,-1.9814,-1.9784,-1.9784,-1.9824,-1.9824,-1.9824,-1.9872,-1.9872,-1.9981,-2.0216,-2.0498,-2.0615,-2.0712,-2.0681,-2.066,-2.0733,-2.0823,-2.0859,-2.0649,-2.0591,-2.0757,-2.729,-2.7108,-2.6933,-2.685,-2.682,-2.6685,-2.655,-2.652,-2.6479,-2.6313,-2.6115,-2.5979,-2.5812,-2.5559,-2.538,-2.5094,-2.4411,-2.397,-2.3711,-2.3406,-2.2925,-2.2574,-2.2397,-2.2132,-2.1865,-2.1731,-2.1687,-2.1687,-2.1687,-2.1687,-2.1687,-2.1687,-2.1687,-2.1687,-2.1659,-2.1623,-2.1687,-2.1586,-2.1438,-2.1245,-2.1101,-2.086,-2.0631,-2.0561,-2.0567,-2.0475,-2.042,-2.0411,-2.042,-2.0429,-2.0457,-2.0484,-2.0512,-2.0521,-2.0218,-1.9687,-1.9549,-1.954,-1.9567,-1.9595,-1.9668,-1.9687,-1.9586,-1.9567,-1.9586,-1.9727,-1.9703,-1.9864,-2.018,-2.0527,-2.0533,-2.0818,-2.0968,-2.0945,-2.0926,-2.1006,-2.0833,-2.0683,-2.0441,-2.0323,-2.012,-1.9951,-1.9827,-1.9666,-1.9627,-1.9627,-1.9627,-1.9618,-1.9666,-1.9706,-1.9666,-1.9648,-1.9648,-1.9696,-1.9657,-1.9666,-1.9627,-1.9618,-1.9627,-1.9627,-1.9715,-1.9794,-1.9872,-1.9863,-1.9824,-1.9981,-2.0137,-2.0333,-2.0333,-2.0507,-2.0857,-2.0911,-2.0659,-2.0717,-2.09,-2.6933,-2.6944,-2.6727,-2.6644,-2.6603,-2.655,-2.6437,-2.6229,-2.6063,-2.5853,-2.5686,-2.5464,-2.5327,-2.52,-2.5031,-2.47,-2.4282,-2.3937,-2.3667,-2.3373,-2.2794,-2.2485,-2.2353,-2.1909,-2.1776,-2.1687,-2.1687,-2.1687,-2.1687,-2.1687,-2.1687,-2.1687,-2.1687,-2.1687,-2.1687,-2.1687,-2.1687,-2.1678,-2.1632,-2.1595,-2.1522,-2.1236,-2.1071,-2.0952,-2.0778,-2.0631,-2.0677,-2.0686,-2.0607,-2.0613,-2.0534,-2.0506,-2.0521,-2.0521,-2.0503,-2.0402,-2.0383,-2.0374,-2.0301,-2.0237,-2.0228,-2.0209,-2.0264,-2.0314,-2.0214,-2.0223,-2.0232,-2.0374,-2.0522,-2.0573,-2.0624,-2.0614,-2.0633,-2.0697,-2.0874,-2.0786,-2.0712,-2.0866,-2.0634,-2.0541,-2.0379,-1.9968,-1.9688,-1.95,-1.9381,-1.9381,-1.939,-1.9417,-1.9429,-1.9497,-1.9499,-1.949,-1.9481,-1.949,-1.9529,-1.9499,-1.9499,-1.946,-1.946,-1.946,-1.9499,-1.9587,-1.946,-1.946,-1.942,-1.9499,-1.9775,-1.9981,-2.002,-2.0177,-2.0498,-2.0615,-2.0653,-2.0767,-2.0936,-2.6603,-2.6727,-2.6365,-2.6199,-2.6188,-2.5926,-2.5759,-2.5633,-2.5549,-2.5464,-2.5369,-2.5285,-2.5158,-2.4988,-2.47,-2.4315,-2.398,-2.3754,-2.3493,-2.3232,-2.2706,-2.2397,-2.2309,-2.1954,-2.1687,-2.1687,-2.1687,-2.1687,-2.1687,-2.1687,-2.1687,-2.1687,-2.1687,-2.1687,-2.1687,-2.1687,-2.1687,-2.1687,-2.1687,-2.1687,-2.1641,-2.1522,-2.1412,-2.1412,-2.1229,-2.119,-2.1172,-2.1165,-2.1165,-2.1156,-2.1165,-2.1165,-2.1174,-2.1174,-2.1209,-2.1165,-2.1209,-2.0936,-2.0552,-2.0558,-2.0576,-2.0539,-2.0539,-2.0484,-2.0497,-2.0522,-2.0531,-2.0512,-2.0732,-2.0842,-2.0924,-2.1037,-2.1129,-2.1147,-2.1028,-2.1065,-2.101,-2.0845,-2.0833,-2.0759,-2.0668,-2.0338,-2.009,-2.0063,-1.9971,-1.9861,-1.9828,-1.9745,-1.9617,-1.947,-1.9415,-1.9332,-1.9332,-1.9332,-1.9371,-1.9371,-1.9381,-1.9371,-1.9371,-1.9371,-1.9332,-1.9292,-1.9292,-1.9292,-1.9332,-1.946,-1.9578,-1.9666,-1.9784,-1.9902,-2.0059,-2.0177,-2.0294,-2.0557,-2.0749,-2.6188,-2.6313,-2.5979,-2.577,-2.5686,-2.5327,-2.5242,-2.52,-2.5158,-2.5115,-2.5073,-2.4988,-2.4818,-2.469,-2.4315,-2.398,-2.3754,-2.3547,-2.3319,-2.2969,-2.2662,-2.2397,-2.222,-2.1865,-2.1687,-2.1687,-2.1687,-2.1687,-2.1687,-2.1687,-2.1687,-2.1687,-2.1687,-2.1687,-2.1687,-2.1687,-2.1687,-2.1687,-2.1687,-2.1687,-2.1678,-2.1687,-2.1659,-2.1668,-2.1687,-2.1687,-2.1687,-2.1659,-2.165,-2.1632,-2.1614,-2.1568,-2.1586,-2.1568,-2.1568,-2.1568,-2.1559,-2.1385,-2.1037,-2.0882,-2.079,-2.0781,-2.0824,-2.09,-2.0872,-2.0816,-2.0827,-2.0891,-2.1099,-2.1245,-2.1328,-2.1504,-2.1531,-2.1559,-2.1586,-2.1659,-2.1641,-2.1348,-2.1193,-2.1227,-2.1145,-2.1025,-2.0851,-2.0842,-2.0714,-2.0461,-2.0278,-2.0076,-1.9884,-1.9714,-1.9632,-1.9595,-1.954,-1.9485,-1.9329,-1.932,-1.9311,-1.9311,-1.9311,-1.9292,-1.9292,-1.9292,-1.9292,-1.9292,-1.9292,-1.9332,-1.942,-1.9508,-1.9557,-1.9666,-1.9745,-1.9824,-1.9981,-2.0255,-2.0566,-2.5812,-2.5644,-2.5601,-2.5475,-2.5253,-2.5242,-2.52,-2.5115,-2.4956,-2.4861,-2.4786,-2.4497,-2.4325,-2.4196,-2.4013,-2.3764,-2.3537,-2.3493,-2.3232,-2.2882,-2.253,-2.2309,-2.2087,-2.1865,-2.1687,-2.1687,-2.1687,-2.1687,-2.1687,-2.1687,-2.1687,-2.1687,-2.1687,-2.1687,-2.1687,-2.1687,-2.1687,-2.1687,-2.1687,-2.1687,-2.1687,-2.1687,-2.1687,-2.1687,-2.1687,-2.1687,-2.1687,-2.1687,-2.1687,-2.1687,-2.1687,-2.1687,-2.1687,-2.1687,-2.1687,-2.1687,-2.1687,-2.1568,-2.1431,-2.1412,-2.154,-2.1577,-2.1531,-2.1431,-2.1394,-2.1531,-2.1586,-2.1476,-2.1485,-2.1549,-2.1595,-2.1678,-2.1687,-2.1687,-2.1687,-2.1687,-2.1687,-2.1668,-2.154,-2.1614,-2.1531,-2.1357,-2.1312,-2.1248,-2.1119,-2.0891,-2.0659,-2.0415,-2.0365,-2.0182,-2.009,-1.9976,-1.9884,-1.9719,-1.943,-1.9402,-1.9476,-1.943,-1.9384,-1.9338,-1.9292,-1.9292,-1.9292,-1.9292,-1.9292,-1.9292,-1.9292,-1.9381,-1.942,-1.939,-1.9469,-1.9587,-1.9706,-1.9902,-2.0216,-2.5517,-2.5168,-2.5009,-2.4956,-2.4988,-2.47,-2.4572,-2.4529,-2.4315,-2.4219,-2.4229,-2.4013,-2.3937,-2.3894,-2.3721,-2.359,-2.345,-2.3319,-2.3057,-2.2794,-2.253,-2.2309,-2.2043,-2.1874,-2.1687,-2.1687,-2.1687,-2.1687,-2.1687,-2.1687,-2.1687,-2.1687,-2.1687,-2.1687,-2.1687,-2.1687,-2.1687,-2.1687,-2.1687,-2.1687,-2.1687,-2.1687,-2.1687,-2.1687,-2.1687,-2.1687,-2.1687,-2.1687,-2.1687,-2.1687,-2.1687,-2.1687,-2.1687,-2.1687,-2.1687,-2.1687,-2.1687,-2.1687,-2.1687,-2.1687,-2.1687,-2.1687,-2.1678,-2.1687,-2.1687,-2.1687,-2.1687,-2.1678,-2.1687,-2.1687,-2.1687,-2.1687,-2.1687,-2.1687,-2.1687,-2.1687,-2.1687,-2.1687,-2.1687,-2.1668,-2.1668,-2.1604,-2.1614,-2.1632,-2.1476,-2.1302,-2.1019,-2.0824,-2.0741,-2.064,-2.053,-2.0369,-2.0278,-2.0186,-1.9934,-1.9806,-1.9705,-1.9613,-1.9522,-1.9467,-1.9439,-1.9301,-1.9301,-1.9301,-1.9292,-1.9292,-1.9292,-1.9292,-1.9292,-1.9341,-1.939,-1.9469,-1.9548,-1.9636,-1.9912,-2.5242,-2.4861,-2.454,-2.4497,-2.4615,-2.4229,-2.4077,-2.4067,-2.3884,-2.3797,-2.3797,-2.3754,-2.3711,-2.3667,-2.3493,-2.3416,-2.3319,-2.3178,-2.3013,-2.275,-2.253,-2.2309,-2.2052,-2.1874,-2.1687,-2.1687,-2.1687,-2.1687,-2.1687,-2.1687,-2.1687,-2.1687,-2.1687,-2.1687,-2.1687,-2.1687,-2.1687,-2.1687,-2.1687,-2.1687,-2.1687,-2.1687,-2.1687,-2.1687,-2.1687,-2.1687,-2.1687,-2.1687,-2.1687,-2.1687,-2.1687,-2.1687,-2.1687,-2.1687,-2.1687,-2.1687,-2.1687,-2.1687,-2.1687,-2.1687,-2.1687,-2.1687,-2.1687,-2.1687,-2.1687,-2.1687,-2.1687,-2.1687,-2.1687,-2.1687,-2.1687,-2.1687,-2.1687,-2.1687,-2.1687,-2.1687,-2.1687,-2.1687,-2.1687,-2.1687,-2.1687,-2.1687,-2.1687,-2.1687,-2.1632,-2.1513,-2.1403,-2.1211,-2.119,-2.108,-2.0943,-2.0824,-2.0695,-2.0613,-2.0503,-2.0292,-2.0099,-2.0081,-1.9962,-1.9742,-1.965,-1.9503,-1.9347,-1.9301,-1.9292,-1.9292,-1.9292,-1.9292,-1.9292,-1.9292,-1.9341,-1.939,-1.939,-1.9508,-1.9587,-2.5073,-2.4818,-2.4358,-2.4206,-2.4196,-2.3937,-2.3797,-2.3797,-2.3754,-2.3754,-2.3711,-2.3547,-2.3493,-2.345,-2.3266,-2.3188,-2.3188,-2.3091,-2.3003,-2.2794,-2.2618,-2.2318,-2.2097,-2.1874,-2.1741,-2.1687,-2.1687,-2.1687,-2.1687,-2.1687,-2.1687,-2.1687,-2.1687,-2.1687,-2.1687,-2.1687,-2.1687,-2.1687,-2.1687,-2.1687,-2.1687,-2.1687,-2.1687,-2.1687,-2.1687,-2.1687,-2.1687,-2.1687,-2.1687,-2.1687,-2.1687,-2.1687,-2.1687,-2.1687,-2.1687,-2.1687,-2.1687,-2.1687,-2.1687,-2.1687,-2.1687,-2.1687,-2.1687,-2.1687,-2.1687,-2.1687,-2.1687,-2.1687,-2.1687,-2.1687,-2.1687,-2.1687,-2.1687,-2.1687,-2.1687,-2.1687,-2.1687,-2.1687,-2.1687,-2.1687,-2.1687,-2.1687,-2.1687,-2.1687,-2.1687,-2.1659,-2.1678,-2.1614,-2.1504,-2.1403,-2.1248,-2.1183,-2.1055,-2.0991,-2.0882,-2.0625,-2.047,-2.0503,-2.0374,-2.0085,-1.9875,-1.9719,-1.9586,-1.9393,-1.9292,-1.9292,-1.9292,-1.9292,-1.9292,-1.9292,-1.9292,-1.9292,-1.9301,-1.9341,-1.9469,-2.4786,-2.4411,-2.4067,-2.3841,-2.3721,-2.3634,-2.359,-2.3537,-2.345,-2.3353,-2.3319,-2.3232,-2.3232,-2.3188,-2.3178,-2.3101,-2.3101,-2.3101,-2.3013,-2.2838,-2.2706,-2.2407,-2.2185,-2.2008,-2.1874,-2.1741,-2.1687,-2.1687,-2.1687,-2.1687,-2.1687,-2.1687,-2.1687,-2.1687,-2.1687,-2.1687,-2.1687,-2.1687,-2.1687,-2.1687,-2.1687,-2.1687,-2.1687,-2.1687,-2.1687,-2.1687,-2.1687,-2.1687,-2.1687,-2.1687,-2.1687,-2.1687,-2.1687,-2.1687,-2.1687,-2.1687,-2.1687,-2.1687,-2.1687,-2.1687,-2.1687,-2.1687,-2.1687,-2.1687,-2.1687,-2.1687,-2.1687,-2.1687,-2.1687,-2.1687,-2.1687,-2.1687,-2.1687,-2.1687,-2.1687,-2.1687,-2.1687,-2.1687,-2.1687,-2.1687,-2.1687,-2.1687,-2.1687,-2.1687,-2.1687,-2.1687,-2.1687,-2.1687,-2.1604,-2.1614,-2.1531,-2.154,-2.1476,-2.1421,-2.1293,-2.1028,-2.0882,-2.0872,-2.0714,-2.042,-2.0186,-2.0076,-1.9857,-1.9732,-1.9503,-1.9292,-1.9347,-1.9375,-1.9311,-1.9292,-1.9292,-1.9292,-1.9292,-1.9292,-1.9332,-2.4529,-2.4163,-2.3851,-2.3634,-2.3503,-2.3416,-2.3363,-2.3319,-2.3178,-2.3101,-2.3091,-2.3091,-2.3101,-2.3101,-2.3101,-2.3101,-2.3101,-2.3101,-2.3101,-2.2891,-2.2847,-2.2627,-2.2416,-2.2195,-2.2008,-2.183,-2.1731,-2.1687,-2.1687,-2.1687,-2.1687,-2.1687,-2.1687,-2.1687,-2.1687,-2.1687,-2.1687,-2.1687,-2.1687,-2.1687,-2.1687,-2.1687,-2.1687,-2.1687,-2.1687,-2.1687,-2.1687,-2.1687,-2.1687,-2.1687,-2.1687,-2.1687,-2.1687,-2.1687,-2.1687,-2.1687,-2.1687,-2.1687,-2.1687,-2.1687,-2.1687,-2.1687,-2.1687,-2.1687,-2.1687,-2.1687,-2.1687,-2.1687,-2.1687,-2.1687,-2.1687,-2.1687,-2.1687,-2.1687,-2.1687,-2.1687,-2.1687,-2.1687,-2.1687,-2.1687,-2.1687,-2.1687,-2.1687,-2.1687,-2.1687,-2.1687,-2.1687,-2.1687,-2.1687,-2.1687,-2.1687,-2.1678,-2.1678,-2.1595,-2.1522,-2.1421,-2.1312,-2.1284,-2.1055,-2.079,-2.0778,-2.0704,-2.0393,-2.0108,-1.9971,-1.9797,-1.9558,-1.9476,-1.9412,-1.9338,-1.9292,-1.9292,-1.9292,-1.9292,-1.9292,-2.4368,-2.412,-2.3667,-2.3503,-2.3416,-2.3232,-2.3135,-2.3101,-2.3101,-2.3101,-2.3101,-2.3101,-2.3101,-2.3101,-2.3101,-2.3101,-2.3101,-2.3101,-2.3101,-2.3057,-2.2925,-2.2803,-2.2627,-2.2362,-2.223,-2.2052,-2.1919,-2.1865,-2.1731,-2.1687,-2.1687,-2.1687,-2.1687,-2.1687,-2.1687,-2.1687,-2.1687,-2.1687,-2.1687,-2.1687,-2.1687,-2.1687,-2.1687,-2.1687,-2.1687,-2.1687,-2.1687,-2.1687,-2.1687,-2.1687,-2.1687,-2.1687,-2.1687,-2.1687,-2.1687,-2.1687,-2.1687,-2.1687,-2.1687,-2.1687,-2.1687,-2.1687,-2.1687,-2.1687,-2.1687,-2.1687,-2.1687,-2.1687,-2.1687,-2.1687,-2.1687,-2.1687,-2.1687,-2.1687,-2.1687,-2.1687,-2.1687,-2.1687,-2.1687,-2.1687,-2.1687,-2.1687,-2.1687,-2.1687,-2.1687,-2.1687,-2.1687,-2.1687,-2.1687,-2.1687,-2.1687,-2.1687,-2.1687,-2.1687,-2.1641,-2.1577,-2.1559,-2.1476,-2.1522,-2.1339,-2.1302,-2.1209,-2.0934,-2.0677,-2.0539,-2.0319,-1.9966,-1.9723,-1.9512,-1.9448,-1.9476,-1.9338,-1.9356,-1.9301,-1.9292,-2.4067,-2.3677,-2.3547,-2.3373,-2.3222,-2.3144,-2.3101,-2.3101,-2.3101,-2.3101,-2.3101,-2.3101,-2.3101,-2.3101,-2.3101,-2.3101,-2.3101,-2.3101,-2.3101,-2.3057,-2.3013,-2.2935,-2.2803,-2.2627,-2.2495,-2.2362,-2.222,-2.2087,-2.1963,-2.183,-2.1731,-2.1687,-2.1731,-2.1731,-2.1731,-2.1687,-2.1687,-2.1687,-2.1687,-2.1687,-2.1687,-2.1687,-2.1687,-2.1687,-2.1687,-2.1687,-2.1687,-2.1687,-2.1687,-2.1687,-2.1687,-2.1687,-2.1687,-2.1687,-2.1687,-2.1687,-2.1687,-2.1687,-2.1687,-2.1687,-2.1687,-2.1687,-2.1687,-2.1687,-2.1687,-2.1687,-2.1687,-2.1687,-2.1687,-2.1687,-2.1687,-2.1687,-2.1687,-2.1687,-2.1687,-2.1687,-2.1687,-2.1687,-2.1687,-2.1687,-2.1687,-2.1687,-2.1687,-2.1687,-2.1687,-2.1687,-2.1687,-2.1687,-2.1687,-2.1687,-2.1687,-2.1687,-2.1687,-2.1687,-2.1687,-2.1641,-2.1659,-2.1668,-2.1678,-2.1678,-2.1568,-2.1421,-2.1374,-2.1154,-2.0851,-2.0622,-2.036,-2.0127,-1.9879,-1.9797,-1.9747,-1.9577,-1.9412,-1.9356,-1.9301,-2.3861,-2.3503,-2.3363,-2.3232,-2.3135,-2.3101,-2.3101,-2.3101,-2.3101,-2.3101,-2.3101,-2.3101,-2.3101,-2.3101,-2.3101,-2.3101,-2.3101,-2.3101,-2.3101,-2.3101,-2.3101,-2.3057,-2.2935,-2.2847,-2.2662,-2.2574,-2.2441,-2.2309,-2.2185,-2.2097,-2.1998,-2.1998,-2.1909,-2.1874,-2.1874,-2.1776,-2.1687,-2.1687,-2.1687,-2.1687,-2.1687,-2.1687,-2.1687,-2.1687,-2.1687,-2.1687,-2.1687,-2.1687,-2.1687,-2.1687,-2.1687,-2.1687,-2.1687,-2.1687,-2.1687,-2.1687,-2.1687,-2.1687,-2.1687,-2.1687,-2.1687,-2.1687,-2.1687,-2.1687,-2.1687,-2.1687,-2.1687,-2.1687,-2.1687,-2.1687,-2.1687,-2.1687,-2.1687,-2.1687,-2.1687,-2.1687,-2.1687,-2.1687,-2.1687,-2.1687,-2.1687,-2.1687,-2.1687,-2.1687,-2.1687,-2.1687,-2.1687,-2.1687,-2.1687,-2.1687,-2.1687,-2.1687,-2.1687,-2.1687,-2.1687,-2.1687,-2.1687,-2.1687,-2.1687,-2.1687,-2.1687,-2.165,-2.1513,-2.1328,-2.1053,-2.0879,-2.0717,-2.0497,-2.0287,-2.0204,-2.0085,-1.9921,-1.9705,-1.9421,-1.9366,-2.3677,-2.346,-2.3178,-2.3135,-2.3101,-2.3101,-2.3101,-2.3101,-2.3101,-2.3101,-2.3101,-2.3101,-2.3101,-2.3101,-2.3101,-2.3101,-2.3101,-2.3101,-2.3101,-2.3101,-2.3101,-2.3057,-2.3013,-2.2935,-2.2838,-2.275,-2.2671,-2.2574,-2.2485,-2.2353,-2.2264,-2.2388,-2.222,-2.2097,-2.2087,-2.1954,-2.1865,-2.182,-2.1776,-2.1776,-2.1731,-2.1687,-2.1687,-2.1687,-2.1687,-2.1687,-2.1687,-2.1687,-2.1687,-2.1687,-2.1687,-2.1687,-2.1687,-2.1687,-2.1687,-2.1687,-2.1687,-2.1687,-2.1687,-2.1687,-2.1687,-2.1687,-2.1687,-2.1687,-2.1687,-2.1687,-2.1687,-2.1687,-2.1687,-2.1687,-2.1687,-2.1687,-2.1687,-2.1687,-2.1687,-2.1687,-2.1687,-2.1687,-2.1687,-2.1687,-2.1687,-2.1687,-2.1687,-2.1687,-2.1687,-2.1687,-2.1687,-2.1687,-2.1687,-2.1687,-2.1687,-2.1687,-2.1687,-2.1687,-2.1687,-2.1687,-2.1687,-2.1687,-2.1687,-2.1687,-2.1687,-2.1687,-2.1687,-2.1476,-2.1319,-2.1255,-2.1083,-2.0927,-2.0772,-2.0622,-2.0503,-2.0365,-2.0081,-1.9742,-1.9448,-2.346,-2.3178,-2.3144,-2.3101,-2.3101,-2.3101,-2.3101,-2.3101,-2.3101,-2.3101,-2.3101,-2.3101,-2.3101,-2.3101,-2.3101,-2.3101,-2.3101,-2.3101,-2.3101,-2.3101,-2.3101,-2.3101,-2.3101,-2.3057,-2.3003,-2.3013,-2.2925,-2.2784,-2.2706,-2.253,-2.2441,-2.2397,-2.2362,-2.2362,-2.2309,-2.2176,-2.2087,-2.1998,-2.1954,-2.1874,-2.1785,-2.1731,-2.1687,-2.1687,-2.1687,-2.1687,-2.1687,-2.1687,-2.1687,-2.1687,-2.1687,-2.1687,-2.1687,-2.1687,-2.1687,-2.1687,-2.1687,-2.1687,-2.1687,-2.1687,-2.1687,-2.1687,-2.1687,-2.1687,-2.1687,-2.1687,-2.1687,-2.1687,-2.1687,-2.1687,-2.1687,-2.1687,-2.1687,-2.1687,-2.1687,-2.1687,-2.1687,-2.1687,-2.1687,-2.1687,-2.1687,-2.1687,-2.1687,-2.1687,-2.1687,-2.1687,-2.1687,-2.1687,-2.1687,-2.1687,-2.1687,-2.1687,-2.1687,-2.1687,-2.1687,-2.1687,-2.1687,-2.1687,-2.1687,-2.1687,-2.1687,-2.1687,-2.1687,-2.1687,-2.1621,-2.1476,-2.144,-2.1495,-2.1321,-2.1089,-2.0924,-2.0805,-2.0585,-2.0273,-1.9833,-2.3319,-2.3101,-2.3101,-2.3101,-2.3101,-2.3101,-2.3101,-2.3101,-2.3101,-2.3101,-2.3101,-2.3101,-2.3101,-2.3101,-2.3101,-2.3101,-2.3101,-2.3101,-2.3101,-2.3101,-2.3101,-2.3101,-2.3101,-2.3101,-2.3101,-2.3101,-2.3101,-2.3013,-2.2882,-2.2838,-2.275,-2.2662,-2.2618,-2.2583,-2.2583,-2.2485,-2.2353,-2.222,-2.2176,-2.2008,-2.1874,-2.1785,-2.1687,-2.1687,-2.1687,-2.1687,-2.1687,-2.1687,-2.1687,-2.1687,-2.1687,-2.1687,-2.1687,-2.1687,-2.1687,-2.1687,-2.1687,-2.1687,-2.1687,-2.1687,-2.1687,-2.1687,-2.1687,-2.1687,-2.1687,-2.1687,-2.1687,-2.1687,-2.1687,-2.1687,-2.1687,-2.1687,-2.1687,-2.1687,-2.1687,-2.1687,-2.1687,-2.1687,-2.1687,-2.1687,-2.1687,-2.1687,-2.1687,-2.1687,-2.1687,-2.1687,-2.1687,-2.1687,-2.1687,-2.1687,-2.1687,-2.1687,-2.1687,-2.1687,-2.1687,-2.1687,-2.1687,-2.1687,-2.1687,-2.1687,-2.1687,-2.1687,-2.1687,-2.1687,-2.1687,-2.1659,-2.1668,-2.1687,-2.1668,-2.1403,-2.1302,-2.1264,-2.1025,-2.0778,-2.0438,-2.3319,-2.3101,-2.3101,-2.3101,-2.3101,-2.3101,-2.3101,-2.3101,-2.3101,-2.3101,-2.3101,-2.3101,-2.3101,-2.3101,-2.3101,-2.3101,-2.3101,-2.3101,-2.3101,-2.3101,-2.3101,-2.3101,-2.3101,-2.3101,-2.3101,-2.3101,-2.3101,-2.3101,-2.3057,-2.3003,-2.3003,-2.3047,-2.2969,-2.2847,-2.2759,-2.2662,-2.253,-2.2441,-2.2362,-2.2185,-2.2008,-2.183,-2.1741,-2.1687,-2.1687,-2.1687,-2.1687,-2.1687,-2.1687,-2.1687,-2.1687,-2.1687,-2.1687,-2.1687,-2.1687,-2.1687,-2.1687,-2.1687,-2.1687,-2.1687,-2.1687,-2.1687,-2.1687,-2.1687,-2.1687,-2.1687,-2.1687,-2.1687,-2.1687,-2.1687,-2.1687,-2.1687,-2.1687,-2.1687,-2.1687,-2.1687,-2.1687,-2.1687,-2.1687,-2.1687,-2.1687,-2.1687,-2.1687,-2.1687,-2.1687,-2.1687,-2.1687,-2.1687,-2.1687,-2.1687,-2.1687,-2.1687,-2.1687,-2.1687,-2.1687,-2.1687,-2.1687,-2.1687,-2.1687,-2.1687,-2.1687,-2.1687,-2.1687,-2.1687,-2.1687,-2.1687,-2.1687,-2.1687,-2.1659,-2.1632,-2.1568,-2.1449,-2.1392,-2.1163,-2.1034,-2.3144,-2.3101,-2.3101,-2.3101,-2.3101,-2.3101,-2.3101,-2.3101,-2.3101,-2.3101,-2.3101,-2.3101,-2.3101,-2.3101,-2.3101,-2.3101,-2.3101,-2.3101,-2.3101,-2.3101,-2.3101,-2.3101,-2.3101,-2.3101,-2.3101,-2.3101,-2.3101,-2.3101,-2.3101,-2.3101,-2.3101,-2.3101,-2.3091,-2.3057,-2.3013,-2.2925,-2.2838,-2.275,-2.2627,-2.2495,-2.2097,-2.1909,-2.1731,-2.1687,-2.1687,-2.1687,-2.1687,-2.1687,-2.1687,-2.1687,-2.1687,-2.1687,-2.1687,-2.1687,-2.1687,-2.1687,-2.1687,-2.1687,-2.1687,-2.1687,-2.1687,-2.1687,-2.1687,-2.1687,-2.1687,-2.1687,-2.1687,-2.1687,-2.1687,-2.1687,-2.1687,-2.1687,-2.1687,-2.1687,-2.1687,-2.1687,-2.1687,-2.1687,-2.1687,-2.1687,-2.1687,-2.1687,-2.1687,-2.1687,-2.1687,-2.1687,-2.1687,-2.1687,-2.1687,-2.1687,-2.1687,-2.1687,-2.1687,-2.1687,-2.1687,-2.1687,-2.1687,-2.1687,-2.1687,-2.1687,-2.1687,-2.1687,-2.1687,-2.1687,-2.1687,-2.1687,-2.1687,-2.1687,-2.1687,-2.1668,-2.1678,-2.1623,-2.1594,-2.152,-2.1365]},{"header":{"parameterUnit":"m.s-1","parameterCategory":1,"la1":31.0,"la2":29.5877,"lo1":-88.7671,"lo2":-86.6584,"dy":0.0162,"dx":0.0185,"nx":115,"ny":88,"refTime":"2024-08-28T06:00:00:Z","depth":0,"parameterNumber":3,"parameterNumberName":"V-component_of_WINDS"},"data":[0.0,0.0,0.0,0.0,0.0,0.0,0.0,0.0,0.0,0.0,0.0,0.0,0.0,0.0,0.0,0.0,0.0,0.0,0.0,0.0,0.0,0.0,0.0,0.0,0.0,0.0,0.0,0.0,0.0,0.0,0.0,0.0,0.0,0.0,0.0,0.0,0.0,0.0,0.0,0.0,0.0,0.0,0.0,0.0,0.0,0.0,0.0,0.0,0.0,0.0,0.0,0.0,0.0,0.0,0.0,0.0,0.0,0.0,0.0,0.0,0.0,0.0,0.0,0.0,0.0,0.0,0.0,0.0,0.0,0.0,0.0,0.0,0.0,0.0,0.0,0.0,0.0,0.0,0.0,0.0,0.0,0.0,0.0,0.0,0.0,0.0,0.0,0.0,0.0,0.0,0.0,0.0,0.0,0.0,0.0,0.0,0.0,0.0,0.0,0.0,0.0,0.0,0.0,0.0,0.0,0.0,0.0,0.0,0.0,0.0,0.0,0.0,0.0,0.0,0.0,0.0,0.0,0.0,0.0,0.0,0.0,0.0,0.0,0.0,0.0,0.0,0.0,0.0,0.0,0.0,0.0,0.0,0.0,0.0,0.0,0.0,0.0,0.0,0.0,0.0,0.0,0.0,0.0,0.0,0.0,0.0,0.0,0.0,0.0,0.0,0.0,0.0,0.0,0.0,0.0,0.0,0.0,0.0,0.0,0.0,0.0,0.0,0.0,0.0,0.0,0.0,0.0,0.0,0.0,0.0,0.0,0.0,0.0,0.0,0.0,0.0,0.0,0.0,0.0,0.0,0.0,0.0,0.0,0.0,0.0,0.0,0.0,0.0,0.0,0.0,0.0,0.0,0.0,0.0,0.0,0.0,0.0,0.0,0.0,0.0,0.0,0.0,0.0,0.0,0.0,0.0,0.0,0.0,0.0,0.0,0.0,0.0,0.0,0.0,0.0,0.0,0.0,0.0,0.0,0.0,0.0,0.0,0.0,0.0,0.0,0.0,0.0,0.0,0.0,0.0,0.0,0.0,0.0,0.0,0.0,0.0,0.0,0.0,0.0,0.0,0.0,0.0,0.0,0.0,0.0,0.0,0.0,0.0,0.0,0.0,0.0,0.0,0.0,0.0,0.0,0.0,0.0,0.0,0.0,0.0,0.0,0.0,0.0,0.0,0.0,0.0,0.0,0.0,0.0,0.0,0.0,0.0,0.0,0.0,0.0,0.0,0.0,0.0,0.0,0.0,0.0,0.0,0.0,0.0,0.0,0.0,0.0,0.0,0.0,0.0,0.0,0.0,0.0,0.0,0.0,0.0,0.0,0.0,0.0,0.0,0.0,0.0,0.0,0.0,0.0,0.0,0.0,0.0,0.0,0.0,0.0,0.0,0.0,0.0,0.0,0.0,0.0,0.0,0.0,0.0,0.0,0.0,0.0,0.0,0.0,0.0,0.0,0.0,0.0,0.0,0.0,0.0,0.0,0.0,0.0,0.0,0.0,0.0,0.0,0.0,0.0,0.0,0.0,0.0,0.0,0.0,0.0,0.0,0.0,0.0,0.0,0.0,0.0,0.0,0.0,0.0,0.0,0.0,0.0,0.0,0.0,0.0,0.0,0.0,0.0,0.0,0.0,0.0,0.0,0.0,0.0,0.0,0.0,0.0,0.0,0.0,0.0,0.0,0.0,0.0,0.0,0.0,0.0,0.0,0.0,0.0,0.0,0.0,0.0,0.0,0.0,0.0,0.0,0.0,0.0,0.0,0.0,0.0,0.0,0.0,0.0,0.0,0.0,0.0,0.0,0.0,0.0,0.0,0.0,0.0,0.0,0.0,0.0,0.0,0.0,0.0,0.0,0.0,0.0,0.0,0.0,0.0,0.0,0.0,0.0,0.0,0.0,0.0,0.0,0.0,0.0,0.0,0.0,0.0,0.0,0.0,0.0,0.0,0.0,0.0,0.0,0.0,0.0,0.0,0.0,0.0,0.0,0.0,0.0,0.0,0.0,0.0,0.0,0.0,0.0,0.0,0.0,0.0,0.0,0.0,0.0,0.0,0.0,0.0,0.0,0.0,0.0,0.0,0.0,0.0,0.0,0.0,0.0,0.0,0.0,0.0,0.0,0.0,0.0,0.0,0.0,0.0,0.0,0.0,0.0,0.0,0.0,0.0,0.0,0.0,0.0,0.0,0.0,0.0,0.0,0.0,0.0,0.0,0.0,0.0,0.0,0.0,0.0,0.0,0.0,0.0,0.0,0.0,0.0,0.0,0.0,0.0,0.0,0.0,0.0,0.0,0.0,0.0,0.0,0.0,0.0,0.0,0.0,0.0,0.0,0.0,0.0,0.0,0.0,0.0,0.0,0.0,0.0,0.0,0.0,0.0,0.0,0.0,0.0,0.0,0.0,0.0,0.0,0.0,0.0,0.0,0.0,0.0,0.0,0.0,0.0,0.0,0.0,0.0,0.0,0.0,0.0,0.0,0.0,0.0,0.0,0.0,0.0,0.0,0.0,0.0,0.0,0.0,0.0,0.0,0.0,0.0,0.0,0.0,0.0,0.0,0.0,0.0,0.0,0.0,0.0,0.0,0.0,0.0,0.0,0.0,0.0,0.0,0.0,0.0,0.0,0.0,0.0,0.0,0.0,0.0,0.0,0.0,0.0,0.0,0.0,0.0,0.0,0.0,0.0,0.0,0.0,0.0,0.0,0.0,0.0,0.0,0.0,0.0,0.0,0.0,0.0,0.0,0.0,0.0,0.0,0.0,0.0,0.0,0.0,0.0,0.0,0.0,0.0,0.0,0.0,0.0,0.0,0.0,0.0,0.0,0.0,0.0,0.0,0.0,0.0,0.0,0.0,0.0,0.0,0.0,0.0,0.0,0.0,0.0,0.0,0.0,0.0,0.0,0.0,0.0,0.0,0.0,0.0,0.0,0.0,0.0,0.0,0.0,0.0,0.0,0.0,0.0,0.0,0.0,0.0,0.0,0.0,0.0,0.0,0.0,0.0,0.0,0.0,0.0,0.0,0.0,0.0,0.0,0.0,0.0,0.0,0.0,0.0,0.0,0.0,0.0,0.0,0.0,0.0,0.0,0.0,0.0,0.0,0.0,0.0,0.0,0.0,0.0,0.0,0.0,0.0,0.0,0.0,0.0,0.0,0.0,0.0,0.0,0.0,0.0,0.0,0.0,0.0,0.0,0.0,0.0,0.0,0.0,0.0,0.0,0.0,0.0,0.0,0.0,0.0,0.0,0.0,0.0,0.0,0.0,0.0,0.0,0.0,0.0,0.0,0.0,0.0,0.0,0.0,0.0,0.0,0.0,0.0,0.0,0.0,0.0,0.0,0.0,0.0,0.0,0.0,0.0,0.0,0.0,0.0,0.0,0.0,0.0,0.0,0.0,0.0,0.0,0.0,0.0,0.0,0.0,0.0,0.0,0.0,0.0,0.0,0.0,0.0,0.0,0.0,0.0,0.0,0.0,0.0,0.0,0.0,0.0,0.0,0.0,0.0,0.0,0.0,0.0,0.0,0.0,0.0,0.0,0.0,0.0,0.0,0.0,0.0,0.0,0.0,0.0,0.0,0.0,0.0,0.0,0.0,0.0,0.0,0.0,0.0,0.0,0.0,0.0,0.0,0.0,0.0,0.0,0.0,0.0,0.0,0.0,0.0,0.0,0.0,0.0,0.0,0.0,0.0,0.0,0.0,0.0,0.0,0.0,0.0,0.0,0.0,0.0,0.0,0.0,0.0,0.0,0.0,0.0,0.0,0.0,0.0,0.0,0.0,0.0,0.0,0.0,0.0,0.0,0.0,0.0,0.0,0.0,0.0,0.0,0.0,0.0,0.0,0.0,0.0,0.0,0.0,0.0,0.0,0.0,0.0,0.0,0.0,0.0,0.0,0.0,0.0,0.0,0.0,0.0,0.0,0.0,0.0,0.0,0.0,0.0,0.0,0.0,0.0,0.0,0.0,0.0,0.0,0.0,0.0,0.0,0.0,0.0,0.0,0.0,0.0,0.0,0.0,0.0,0.0,0.0,0.0,0.0,0.0,0.0,0.0,0.0,0.0,0.0,0.0,0.0,0.0,0.0,0.0,0.0,0.0,0.0,0.0,0.0,0.0,0.0,0.0,0.0,0.0,0.0,0.0,0.0,0.0,0.0,0.0,0.0,0.0,0.0,0.0,0.0,0.0,0.0,0.0,0.0,0.0,0.0,0.0,0.0,0.0,0.0,0.0,0.0,0.0,0.0,0.0,0.0,0.0,0.0,0.0,0.0,0.0,0.0,0.7411,0.0,0.0,0.0,0.0,0.0,0.0,0.0,0.0,0.0,0.0,0.0,0.0,0.0,0.0,0.0,0.0,0.0,0.0,0.0,0.0,0.0,0.0,0.0,0.0,0.0,0.0,0.0,0.0,0.0,0.0,0.0,0.0,0.0,0.0,0.0,0.0,0.0,0.0,0.0,0.0,0.0,0.0,0.0,0.0,0.0,0.0,0.0,0.0,0.0,0.0,0.0,0.0,0.0,0.0,0.0,0.0,0.0,0.0,0.0,0.0,0.0,0.0,0.0,0.0,0.0,0.0,0.0,0.0,0.0,0.0,0.0,0.0,0.0,0.0,0.0,0.0,0.0,0.0,0.0,0.0,0.0,0.0,0.0,0.0,0.0,0.0,0.0,0.0,0.0,0.0,0.0,0.0,0.0,0.0,0.0,0.0,0.0,0.0,0.0,0.0,0.0,0.0,0.0,0.0,0.0,0.0,0.0,0.0,0.0,0.0,0.9013,0.9001,0.8975,0.8758,0.8292,0.0,0.0,0.0,0.0,0.0,0.0,0.0,0.0,0.0,0.0,0.0,0.0,0.0,0.0,0.0,0.0,0.0,0.0,0.0,0.0,0.0,0.0,0.0,0.0,0.0,0.0,0.0,0.0,0.0,0.0,0.0,0.0,0.0,0.0,0.0,0.0,0.0,0.0,0.0,0.0,0.0,0.0,0.0,0.0,0.0,0.0,0.0,0.0,0.0,0.0,0.0,0.0,0.0,0.0,0.0,0.0,0.0,0.0,0.0,0.0,0.0,0.0,0.0,0.0,0.0,0.0,0.0,0.0,0.0,0.0,0.0,0.0,0.0,0.0,0.0,0.0,0.0,0.0,0.0,0.0,0.0,0.0,0.0,0.0,0.0,0.0,0.0,0.0,0.0,0.0,0.0,0.0,0.0,0.0,0.0,0.0,0.0,0.0,0.0,0.0,0.0,0.0,0.0,0.0,0.0,0.0,0.0,0.0,0.0,0.0,0.0,0.0,1.0147,0.9735,0.8901,0.0,0.0,0.0,0.0,0.0,0.0,0.0,0.0,0.0,0.0,0.0,0.0,0.0,0.0,0.0,0.0,0.0,0.0,0.0,0.0,0.0,0.0,0.0,0.0,0.0,0.0,0.0,0.0,0.0,0.0,0.0,0.0,0.0,0.0,0.0,0.0,0.0,0.0,0.0,0.0,0.0,0.0,0.0,0.0,0.0,0.0,0.0,0.0,0.0,0.0,0.0,0.0,0.0,0.0,0.0,0.0,0.0,0.0,0.0,0.0,0.0,0.0,0.0,0.0,0.0,0.0,0.0,0.0,0.0,0.0,0.0,0.0,0.0,0.0,0.0,0.0,0.0,0.0,0.0,0.0,0.0,0.0,0.0,0.0,0.0,0.0,0.0,0.0,0.0,0.0,0.0,0.0,0.0,0.0,0.0,0.0,0.0,0.0,0.0,0.0,0.0,0.0,0.0,0.0,0.0,0.0,0.0,0.0,0.0,0.0,1.0184,1.0196,1.0193,0.0,0.8933,0.0,0.0,0.0,0.0,0.0,0.0,0.0,0.0,0.0,0.0,0.0,0.0,0.0,0.0,0.0,0.0,0.0,0.0,0.0,0.0,0.0,0.0,0.0,0.0,0.0,0.0,0.0,0.0,0.0,0.0,0.0,0.0,0.0,0.0,0.0,0.0,0.0,0.0,0.0,0.0,0.0,0.0,0.0,0.0,0.0,0.0,0.0,0.0,0.0,0.0,0.0,0.0,0.0,0.0,0.0,0.0,0.0,0.0,0.0,0.0,0.0,0.0,0.0,0.0,0.0,0.0,0.0,0.0,0.0,0.0,0.0,0.0,0.0,0.0,0.0,0.0,0.0,0.0,0.0,0.0,0.0,0.0,0.0,0.0,0.0,0.0,0.0,0.0,0.0,0.0,0.0,0.0,0.0,0.0,0.0,0.0,0.0,0.0,0.0,0.0,0.0,0.0,0.0,0.0,0.0,0.0,0.0,0.0,0.0,0.0,0.0,1.0186,1.02,0.9787,0.0,0.0,0.0,0.0,0.0,0.0,0.0,0.0,0.0,0.0,0.0,0.0,0.0,0.0,0.0,0.0,0.0,0.0,0.0,0.0,0.0,0.0,0.0,0.0,0.0,0.0,0.0,0.0,0.0,0.0,0.0,0.0,0.0,0.0,0.0,0.0,0.0,0.0,0.0,0.0,0.0,0.0,0.0,0.0,0.0,0.0,0.0,0.0,0.0,0.0,0.0,0.0,0.0,0.0,0.0,0.0,0.0,0.0,0.0,0.0,0.0,0.0,0.0,0.0,0.0,0.0,0.0,0.0,0.0,0.0,0.0,0.0,0.0,0.0,0.0,0.0,0.0,0.0,0.0,0.0,0.0,0.0,0.0,0.0,0.0,0.0,0.0,0.0,0.0,0.0,0.0,0.0,0.0,0.0,0.0,0.0,0.0,0.0,0.0,0.0,0.0,0.0,0.0,0.0,0.0,0.0,0.0,0.0,0.0,0.0,1.0188,0.0,1.0195,1.0186,0.9909,0.9282,0.0,0.0,0.0,0.0,0.0,0.0,0.0,0.0,0.0,0.0,0.0,0.0,0.0,0.0,0.0,0.0,0.0,0.0,0.0,0.0,0.0,0.0,0.0,0.0,0.0,0.0,0.0,0.0,0.0,0.0,0.0,0.0,0.0,0.0,0.0,0.0,0.0,0.0,0.0,0.0,0.0,0.0,0.0,0.0,0.0,0.0,0.0,0.0,0.0,0.0,0.0,0.0,0.0,0.0,0.0,0.0,0.0,0.0,0.0,0.0,0.0,0.0,0.0,0.0,0.0,0.0,0.0,0.0,0.0,0.0,0.0,0.0,0.0,0.0,0.0,0.0,0.0,0.0,0.0,0.0,0.0,0.0,0.0,0.0,0.0,0.0,0.0,0.0,0.0,0.0,0.0,0.0,0.0,0.0,0.0,0.0,0.0,0.0,0.0,0.0,0.0,0.0,0.0,0.0,0.0,0.0,0.0,0.0,0.0,1.0198,1.0192,1.0201,1.0194,1.019,0.0,0.0,0.0,0.0,0.0,0.0,0.0,0.0,0.0,0.0,0.0,0.0,0.0,0.0,0.0,0.0,0.0,0.0,0.0,0.0,0.0,0.0,0.0,0.0,0.0,0.0,0.0,0.0,0.0,0.0,0.0,0.0,0.0,0.0,0.0,0.0,0.0,0.0,0.0,0.0,0.0,0.0,0.0,0.0,0.0,0.0,0.0,0.0,0.0,0.0,0.0,0.0,0.0,0.0,0.0,0.0,0.0,0.0,0.0,0.0,0.0,0.0,0.0,0.0,0.0,0.0,0.0,0.0,0.0,0.0,0.0,0.0,0.0,0.0,0.0,0.0,0.0,0.0,0.0,0.0,0.0,0.0,0.0,0.0,0.0,0.0,0.0,0.0,0.0,0.0,0.0,0.0,0.0,0.0,0.0,0.0,0.0,0.0,0.0,0.0,0.0,0.0,0.0,0.0,0.0,0.0,0.0,0.0,0.0,1.0185,1.0198,1.0192,1.0184,1.0201,1.0197,0.0,0.0,0.0,0.0,0.0,0.0,0.0,0.0,0.0,0.0,0.0,0.0,0.0,0.0,0.0,0.0,0.0,0.0,0.0,0.0,0.0,0.0,0.0,0.0,0.0,0.0,0.0,0.0,0.0,0.0,0.0,0.0,0.0,0.0,0.0,0.0,0.0,0.0,0.0,0.0,0.0,0.0,0.0,0.0,0.0,0.0,0.0,0.0,0.0,0.0,0.0,0.0,0.0,0.0,0.0,0.0,0.0,0.0,0.0,0.0,0.0,0.0,0.0,0.0,0.0,0.0,0.0,0.0,0.0,0.0,0.0,0.0,0.0,0.0,0.0,0.0,0.0,0.0,0.0,0.0,0.0,0.0,0.0,0.0,0.0,0.0,0.0,0.0,0.0,0.0,0.0,0.0,0.0,0.0,0.0,0.0,0.0,0.0,0.0,0.0,0.0,0.0,0.0,0.0,0.0,0.0,0.0,0.0,0.0,1.0612,0.0,1.062,0.0,1.0637,1.0496,0.0,0.0,0.0,0.0,0.0,0.0,0.0,0.0,0.0,0.0,0.0,0.0,0.0,0.0,0.0,0.0,0.0,0.0,0.0,0.0,0.0,0.0,0.0,0.0,0.0,0.0,0.0,0.0,0.0,0.0,0.0,0.0,0.0,0.0,0.0,0.0,0.0,0.0,0.0,0.0,0.0,0.0,0.0,0.0,0.0,0.0,0.0,0.0,0.0,0.0,0.0,0.0,0.0,0.0,0.0,0.0,0.0,0.0,0.0,0.0,0.0,0.0,0.0,0.0,0.0,0.0,0.0,0.0,0.0,0.0,0.0,0.0,0.0,0.0,0.0,0.0,0.0,0.0,0.0,0.0,0.0,0.0,0.0,0.0,0.0,0.0,0.0,0.0,0.0,0.0,0.0,0.0,0.0,0.0,0.0,0.0,0.0,0.0,0.0,0.0,0.0,0.0,0.0,0.0,0.0,0.0,0.0,0.0,1.0638,1.1482,1.1538,1.1578,1.152,1.1538,1.1109,0.0,0.0,0.0,0.0,0.0,0.0,0.0,0.0,0.0,0.0,0.0,0.0,0.0,0.0,0.0,0.0,0.0,0.0,0.0,0.0,0.0,0.0,0.0,0.0,0.0,0.0,0.0,0.0,0.0,0.0,0.0,0.0,0.0,0.0,0.0,0.0,0.0,0.0,0.0,0.0,0.0,0.0,0.0,0.0,0.0,0.0,0.0,0.0,0.0,0.0,0.0,0.0,0.0,0.0,0.0,0.0,0.0,0.0,0.0,0.0,0.0,0.0,0.0,0.0,0.0,0.0,0.0,0.0,0.0,0.0,0.0,0.0,0.0,0.0,0.0,0.0,0.0,0.0,0.0,0.0,0.0,0.0,0.0,0.0,0.0,0.0,0.0,0.0,0.0,0.0,0.0,0.0,0.0,0.0,0.0,0.0,0.0,0.0,0.0,0.0,0.0,0.0,0.0,0.0,0.0,0.0,0.0,0.0,0.0,1.2376,1.2975,1.3285,1.3265,1.2705,1.1987,0.0,0.0,0.0,0.0,0.0,0.0,0.0,0.0,0.0,0.0,0.0,0.0,0.0,0.0,0.0,0.0,0.0,0.0,0.0,0.0,0.0,0.0,0.0,0.0,0.0,0.0,0.0,0.0,0.0,0.0,0.0,0.0,0.0,0.0,0.0,0.0,0.0,0.0,0.0,0.0,0.0,0.0,0.0,0.0,0.0,0.0,0.0,0.0,0.0,0.0,0.0,0.0,0.0,0.0,0.0,0.0,0.0,0.0,0.0,0.0,0.0,0.0,0.0,0.0,0.0,0.0,0.0,0.0,0.0,0.0,0.0,0.0,0.0,0.0,0.0,0.0,0.0,0.0,0.0,0.0,0.0,0.0,0.0,0.0,0.0,0.0,0.0,0.0,0.0,0.0,0.0,0.0,0.0,0.0,0.0,0.0,0.0,0.0,0.0,0.0,0.0,0.0,0.0,0.0,0.0,0.0,0.0,0.0,0.0,1.415,1.442,1.4537,1.4556,1.4016,1.3029,1.1555,0.0,0.0,0.0,0.0,0.0,0.0,0.0,0.0,0.0,0.0,0.0,0.0,0.0,0.0,0.0,0.0,0.0,0.0,0.0,0.0,0.0,0.0,0.0,0.0,0.0,0.0,0.0,0.0,0.0,0.0,0.0,0.0,0.0,0.0,0.0,0.0,0.0,0.0,0.0,0.0,0.0,0.0,0.0,0.0,0.0,0.0,0.0,0.0,0.0,0.0,0.0,0.0,0.0,0.0,0.0,0.0,0.0,0.0,0.0,0.0,0.0,0.0,0.0,0.0,0.0,0.0,0.0,0.0,0.0,0.0,0.0,0.0,0.0,0.0,0.0,0.0,0.0,0.0,0.0,0.0,0.0,0.0,0.0,0.0,0.0,0.0,0.0,0.0,0.0,0.0,0.0,0.0,0.0,0.0,0.0,0.0,0.0,0.0,0.0,0.0,0.0,0.0,0.0,0.0,0.0,0.0,0.0,0.0,1.6721,1.5967,1.5599,1.5524,1.5416,1.4201,0.0,0.0,0.0,0.0,0.0,0.0,0.0,0.0,0.0,0.0,0.0,0.0,0.0,0.0,0.0,0.0,0.0,0.0,0.0,0.0,0.0,0.0,0.0,0.0,0.0,0.0,0.0,0.0,0.0,0.0,0.0,0.0,0.0,0.0,0.0,0.0,0.0,0.0,0.0,0.0,0.0,0.0,0.0,0.0,0.0,0.0,0.0,0.0,0.0,0.0,0.0,0.0,0.0,0.0,0.0,0.0,0.0,0.0,0.0,0.0,0.0,0.0,0.0,0.0,0.0,0.0,0.0,0.0,0.0,0.0,0.0,0.0,0.0,0.0,0.0,0.0,0.0,0.0,0.0,0.0,0.0,0.0,0.0,0.0,0.0,0.0,0.0,0.0,0.0,0.0,0.0,0.0,0.0,0.0,0.0,0.0,0.0,0.0,0.0,0.0,0.0,0.0,0.0,0.0,0.0,0.0,0.0,0.0,0.0,1.8349,1.878,1.8711,1.8121,1.6919,1.5334,0.0,0.0,0.0,0.0,0.0,0.0,0.0,0.0,0.0,0.0,0.0,0.0,0.0,0.0,0.0,0.0,0.0,0.0,0.0,0.0,0.0,0.0,0.0,0.0,0.0,0.0,0.0,0.0,0.0,0.0,0.0,0.0,0.0,0.0,0.0,0.0,0.0,0.0,0.0,0.0,0.0,0.0,0.0,0.0,0.0,0.0,0.0,0.0,0.0,0.0,0.0,0.0,0.0,0.0,0.0,0.0,0.0,0.0,0.0,0.0,0.0,0.0,0.0,0.0,0.0,0.0,0.0,0.0,0.0,0.0,0.0,0.0,0.0,0.0,0.0,0.0,0.0,0.0,0.0,0.0,0.0,0.0,0.0,0.0,0.0,0.0,0.0,0.0,0.0,0.0,0.0,0.0,0.0,0.0,0.0,0.0,0.0,0.0,0.0,0.0,0.0,0.0,0.0,0.0,0.0,0.0,0.0,0.0,1.6847,1.902,2.0231,2.0624,2.016,1.8529,1.6675,0.0,0.0,0.0,0.0,0.0,0.0,0.0,0.0,0.0,0.0,0.0,0.0,0.0,0.0,0.0,0.0,0.0,0.0,0.0,0.0,0.0,0.0,0.0,0.0,0.0,0.0,0.0,0.0,0.0,0.0,0.0,0.0,0.0,0.0,0.0,0.0,0.0,0.0,0.0,0.0,0.0,0.0,0.0,0.0,0.0,0.0,0.0,0.0,0.0,0.0,0.0,0.0,0.0,0.0,0.0,0.0,0.0,0.0,0.0,0.0,0.0,0.0,0.0,0.0,0.0,0.0,0.0,0.0,0.0,0.0,0.0,0.0,0.0,0.0,0.0,0.0,0.0,0.0,0.0,0.0,0.0,0.0,0.0,0.0,0.0,0.0,0.0,0.0,0.0,0.0,0.0,0.0,0.0,0.0,0.0,0.0,0.0,0.0,0.0,0.0,0.0,0.0,0.0,0.0,0.0,0.0,0.0,0.0,1.7587,1.9245,2.0964,2.1859,2.1817,2.0167,1.8034,0.0,0.0,0.0,0.0,0.0,0.0,0.0,0.0,0.0,0.0,0.0,0.0,0.0,0.0,0.0,0.0,0.0,0.0,0.0,0.0,0.0,0.0,0.0,0.0,0.0,0.0,0.0,0.0,0.0,0.0,0.0,0.0,0.0,0.0,0.0,0.0,0.0,0.0,0.0,0.0,0.0,0.0,0.0,0.0,0.0,0.0,0.0,0.0,0.0,0.0,0.0,0.0,0.0,0.0,0.0,0.0,0.0,0.0,0.0,0.0,0.0,0.0,0.0,0.0,0.0,0.0,0.0,0.0,0.0,0.0,0.0,0.0,0.0,0.0,0.0,0.0,0.0,0.0,0.0,0.0,0.0,0.0,0.0,0.0,0.0,0.0,0.0,0.0,0.0,0.0,0.0,0.0,0.0,0.0,0.0,0.0,0.0,0.0,0.0,0.0,0.0,0.0,0.0,0.0,0.0,0.0,0.0,0.0,1.928,2.0939,2.266,2.3568,2.3562,2.1333,1.8938,0.0,0.0,0.0,0.0,0.0,0.0,0.0,0.0,0.0,0.0,0.0,0.0,0.0,0.0,0.0,0.0,0.0,0.0,0.0,0.0,0.0,0.0,0.0,0.0,0.0,0.0,0.0,0.0,0.0,0.0,0.0,0.0,0.0,0.0,0.0,0.0,0.0,0.0,0.0,0.0,0.0,0.0,0.0,0.0,0.0,0.0,0.0,0.0,0.9629,0.0,0.0,0.0,0.0,0.0,0.0,0.0,0.0,0.0,0.0,0.0,0.0,0.0,0.0,0.0,0.0,0.0,0.0,0.0,0.0,0.0,0.0,0.0,0.0,0.0,0.0,0.0,0.0,0.0,0.0,0.0,0.0,0.0,0.0,0.0,0.0,0.0,0.0,0.0,0.0,0.0,0.0,0.0,0.0,0.0,0.0,0.0,0.0,0.0,0.0,0.0,0.0,0.0,0.0,0.0,0.0,0.0,0.0,0.0,1.9779,2.1433,2.316,2.4068,2.4036,2.242,2.0347,0.0,0.0,0.0,0.0,0.0,0.0,0.0,0.0,0.0,0.0,0.0,0.0,0.0,0.0,0.0,0.0,0.0,0.0,0.0,0.0,0.0,0.0,0.0,0.0,0.0,0.0,0.0,0.0,0.0,0.0,0.0,0.0,0.0,0.0,0.0,0.0,0.0,0.0,0.0,0.0,0.0,0.0,0.0,0.0,0.0,0.0,0.0,0.0,0.0,0.0,0.0,0.0,0.0,0.0,0.0,0.0,0.0,0.0,0.0,0.0,0.0,0.0,0.0,0.0,0.0,0.0,0.0,0.0,0.0,0.0,0.0,0.0,0.0,0.0,0.0,0.0,0.0,0.0,0.0,0.0,0.0,0.0,0.0,0.0,0.0,0.0,0.0,0.0,0.0,0.0,0.0,0.0,0.0,0.0,0.0,0.0,0.0,0.0,0.0,0.0,0.0,0.0,0.0,0.0,0.0,0.0,0.0,1.7447,1.9901,2.1565,2.3278,2.4162,2.4082,2.3262,2.1625,1.9161,0.0,0.0,0.0,0.0,0.0,0.0,0.0,0.0,0.0,0.0,0.0,0.0,0.0,0.0,0.0,0.0,0.0,0.0,0.0,0.0,0.0,0.0,0.0,0.0,0.0,0.0,0.0,0.0,0.0,0.0,0.0,0.0,0.0,0.0,0.0,0.0,0.0,0.0,0.9071,1.0525,0.0,0.0,0.0,0.0,0.0,0.0,0.0,0.0,1.04,0.0,0.0,0.0,0.0,0.0,0.0,0.0,0.0,0.0,0.0,0.0,0.0,0.0,0.0,0.0,0.0,0.0,0.0,0.0,0.0,0.0,0.0,0.0,0.0,0.0,0.0,0.0,0.0,0.0,0.0,0.0,0.0,0.0,0.0,0.0,0.0,0.0,0.0,0.0,0.0,0.0,0.0,0.0,0.0,0.0,0.0,0.0,0.0,0.0,0.0,0.0,0.0,0.0,0.0,0.0,0.0,1.588,1.8539,2.0717,2.2364,2.4104,2.4689,2.4028,2.3226,2.1644,1.9159,0.0,0.0,0.0,0.0,0.0,0.0,0.0,0.0,0.0,0.0,0.0,0.0,0.0,0.0,0.0,0.0,0.0,0.0,0.0,0.0,0.0,0.0,0.0,0.0,0.0,0.0,0.0,0.0,0.0,0.0,0.0,0.0,0.0,0.0,0.0,0.0,0.0,0.0,0.0,1.1321,1.1761,0.0,0.0,0.0,0.0,0.0,0.0,0.0,0.0,1.101,0.0,0.0,0.0,0.0,0.0,0.0,0.0,0.0,0.0,0.0,0.0,0.0,0.0,0.0,0.0,0.0,0.0,0.0,0.0,0.0,0.0,0.0,0.0,0.0,0.0,0.0,0.0,0.0,0.0,0.0,0.0,0.0,0.0,0.0,0.0,0.0,0.0,0.0,0.0,0.0,0.0,0.0,0.0,0.0,0.0,0.0,0.0,0.0,0.0,0.0,0.0,0.0,0.0,0.0,0.0,1.624,1.8726,2.0823,2.2524,2.4214,2.4732,2.3951,2.2724,2.1126,0.0,0.0,0.0,0.0,0.0,0.0,0.0,0.0,0.0,0.0,0.0,0.0,0.0,0.0,0.0,0.0,0.0,0.0,0.0,0.0,0.0,0.0,0.0,0.0,0.0,0.0,0.0,0.0,0.0,0.0,0.0,0.0,0.0,0.0,0.0,0.0,0.0,0.0,0.0,0.0,1.2565,1.3001,1.3415,0.0,0.0,0.0,0.0,0.0,0.0,1.2184,1.1893,0.0,0.0,0.0,0.0,0.0,0.0,0.0,0.0,0.0,0.0,0.0,0.0,0.0,0.0,0.0,0.0,0.0,0.0,0.0,0.0,0.0,0.0,0.0,0.0,0.0,0.0,0.0,0.0,0.0,0.0,0.0,0.0,0.0,0.0,0.0,0.0,0.0,0.0,0.0,0.0,0.0,0.0,0.0,0.0,0.0,0.0,0.0,0.0,0.0,0.0,0.0,0.0,0.0,0.0,0.0,1.6403,1.8723,2.0726,2.2426,2.4093,2.4556,2.3643,2.2167,2.0553,0.0,0.0,0.0,0.0,0.0,0.0,0.0,0.0,0.0,0.0,0.0,0.0,0.0,0.0,0.0,0.0,0.0,0.0,0.0,0.0,0.0,0.0,0.0,0.0,0.0,0.0,0.0,0.0,0.0,0.0,0.0,0.0,0.0,0.0,0.0,0.0,0.0,0.0,0.0,0.0,0.0,1.4413,1.4567,1.4758,0.0,0.0,0.0,0.0,1.3596,1.3422,0.0,0.0,0.0,0.0,0.0,0.0,0.0,0.0,0.0,0.0,0.0,0.0,0.0,0.0,0.0,0.0,0.0,0.0,0.0,0.0,0.0,0.0,0.0,0.0,0.0,0.0,0.0,0.0,0.0,0.0,0.0,0.0,0.0,0.0,0.0,0.0,0.0,0.0,0.0,0.0,0.0,0.0,0.0,0.0,0.0,0.0,0.0,0.0,0.0,0.0,0.0,0.0,0.0,0.0,0.0,0.0,1.7187,1.8941,2.0646,2.2304,2.4032,2.42,2.2711,2.1836,2.028,0.0,0.0,0.0,0.0,0.0,0.0,0.0,0.0,0.0,0.0,0.0,0.0,0.0,0.0,0.0,0.0,0.0,0.0,0.0,0.0,0.0,0.0,0.0,0.0,0.0,0.0,0.0,0.0,0.0,0.0,0.0,0.0,0.0,0.0,0.0,0.0,0.0,0.0,0.0,0.0,0.0,1.5512,1.622,1.6962,1.7414,0.0,0.0,1.7046,1.6292,1.5517,0.0,0.0,0.0,0.0,0.0,0.0,0.0,0.0,0.0,0.0,0.0,0.0,0.0,0.0,0.0,0.0,0.0,0.0,0.0,0.0,0.0,0.0,0.0,0.0,0.0,0.0,0.0,0.0,0.0,0.0,0.0,0.0,0.0,0.0,0.0,0.0,0.0,0.0,0.0,0.0,0.0,0.0,0.0,0.0,0.0,0.0,0.0,0.0,0.0,0.0,0.0,0.0,0.0,0.0,0.0,1.4709,1.7935,1.9613,2.1224,2.2879,2.414,2.4035,2.2483,2.1246,1.9683,0.0,0.0,0.0,0.0,0.0,0.0,0.0,0.0,0.0,0.0,0.0,0.0,0.0,0.0,0.0,0.0,0.0,0.0,0.0,0.0,0.0,0.0,0.0,0.0,0.0,0.0,0.0,0.0,0.0,0.0,0.0,0.0,0.0,0.0,0.0,0.0,0.0,0.0,0.0,0.0,0.0,0.0,1.7184,1.7614,0.0,0.0,0.0,1.8224,1.7369,0.0,0.0,0.0,0.0,0.0,0.0,0.0,0.0,0.0,0.0,0.0,0.0,0.0,0.0,0.0,0.0,0.0,0.0,0.0,0.0,0.0,0.0,0.0,0.0,0.0,0.0,0.0,0.0,0.0,0.0,0.0,0.0,0.0,0.0,0.0,0.0,0.0,0.0,0.0,0.0,0.0,0.0,0.0,0.0,0.0,0.0,0.0,0.0,0.0,0.0,0.0,0.0,0.0,0.0,0.0,0.0,0.0,1.8398,2.0045,2.1656,2.3314,2.4206,2.402,2.2714,2.1107,0.0,0.0,0.0,0.0,0.0,0.0,0.0,0.0,0.0,0.0,0.0,0.0,0.0,0.0,0.0,0.0,0.0,0.0,0.0,0.0,0.0,0.0,0.0,0.0,0.0,0.0,0.0,0.5685,0.0,0.0,0.0,0.0,0.0,0.0,0.0,0.0,0.0,0.0,0.0,0.0,0.0,0.0,1.7454,1.8278,1.8737,1.8967,0.0,0.0,1.9588,1.8724,1.8974,1.8471,0.0,0.0,0.0,0.0,0.0,0.0,0.0,0.0,0.0,0.0,0.0,0.0,0.0,0.0,0.0,0.0,0.0,0.0,0.0,0.0,0.0,0.0,0.0,0.0,0.0,0.0,0.0,0.0,0.0,0.0,0.0,0.0,0.0,0.0,0.0,0.0,0.0,0.0,0.0,0.0,0.0,0.0,0.0,0.0,0.0,0.0,0.0,0.0,0.0,0.0,0.0,0.0,0.0,0.0,0.0,1.8234,1.9885,2.153,2.3169,2.4066,2.4174,2.3429,2.1865,2.0291,0.0,0.0,0.0,0.0,0.0,0.0,0.0,0.0,0.0,0.0,0.0,0.0,0.0,0.0,0.0,0.0,0.0,0.0,0.0,0.0,0.0,0.0,0.0,0.0,0.0,0.0,0.0,0.0,0.0,0.0,0.0,0.0,0.0,0.0,0.0,0.0,0.0,0.0,0.0,0.0,0.0,1.9031,1.985,2.1273,2.2232,0.0,0.0,2.1972,2.1167,2.0429,1.9354,1.7716,0.0,0.0,0.0,0.0,0.0,0.0,0.0,0.0,0.0,0.0,0.0,0.0,0.0,0.0,0.0,0.0,0.0,0.0,0.0,0.0,0.0,0.0,0.0,0.0,0.0,0.0,0.0,0.0,0.0,0.0,0.0,0.0,0.0,0.0,0.0,0.0,0.0,0.0,0.0,0.0,0.0,0.0,0.0,0.0,0.0,0.0,0.0,0.0,0.0,0.0,0.0,0.0,0.0,1.6281,1.9008,2.0614,2.2241,2.382,2.4269,2.4149,2.34,2.1854,2.0294,0.0,0.0,0.0,0.0,0.0,0.0,0.0,0.0,0.0,0.0,0.0,0.0,0.0,0.0,0.0,0.0,0.0,0.0,0.0,0.0,0.0,0.0,0.0,0.0,0.0,0.0,0.0,0.0,0.845,0.904,0.9592,0.0,0.0,0.0,0.0,0.0,0.0,0.0,0.0,0.0,0.0,1.9816,2.0598,2.1696,0.0,0.0,2.2401,2.2092,2.1289,2.0935,2.0164,1.8487,1.7283,0.0,0.0,0.0,0.0,0.0,0.0,0.0,0.0,0.0,0.0,0.0,0.0,0.0,0.0,0.0,0.0,0.0,0.0,0.0,0.0,0.0,0.0,0.0,0.0,0.0,0.0,0.0,0.0,0.0,0.0,0.0,0.0,0.0,0.0,0.0,0.0,0.0,0.0,0.0,0.0,0.0,0.0,0.0,0.0,0.0,0.0,0.0,0.0,0.0,0.0,0.0,0.0,1.7033,1.945,2.1047,2.2652,2.4229,2.4348,2.4169,2.3626,2.2357,2.0938,0.0,0.0,0.0,0.0,0.0,0.0,0.0,0.0,0.0,0.0,0.0,0.0,0.0,0.0,0.0,0.0,0.0,0.0,0.0,0.0,0.0,0.0,0.0,0.0,0.0,0.0,0.0,0.0,0.9008,0.949,1.034,0.0,0.0,0.0,0.0,0.0,0.0,0.0,0.0,0.0,0.0,2.0853,2.1644,2.244,2.2959,2.299,2.2957,2.2649,2.1836,2.1588,2.0885,1.9178,0.0,0.0,0.0,0.0,0.0,0.0,0.0,0.0,0.0,0.0,0.0,0.0,0.0,0.0,0.0,0.0,0.0,0.0,0.0,0.0,0.0,0.0,0.0,0.0,0.0,0.0,0.0,1.258,0.0,0.0,1.2526,0.0,0.0,0.0,0.0,0.0,0.0,0.0,0.0,0.0,0.0,0.0,0.0,0.0,0.0,0.0,0.0,0.0,0.0,0.0,0.0,0.0,0.0,1.695,1.9398,2.1003,2.2592,2.4146,2.4201,2.4248,2.432,2.3636,2.248,2.0826,0.0,0.0,0.0,0.0,0.0,0.0,0.0,0.0,0.0,0.0,0.0,0.0,0.0,0.0,0.0,0.0,0.0,0.0,0.0,0.0,0.0,0.0,0.0,0.0,0.0,0.0,0.8816,0.9515,1.0279,0.0,0.0,0.0,0.0,0.0,0.0,0.0,0.0,0.0,0.0,2.104,2.2335,2.3116,2.3917,2.4356,2.4322,2.4314,2.4026,2.3219,2.2526,2.1514,0.0,0.0,0.0,0.0,0.0,0.0,0.0,0.0,0.0,0.0,0.0,0.0,0.0,0.0,0.0,0.0,0.0,0.0,0.0,0.0,0.0,0.0,0.0,0.0,0.0,0.0,0.0,1.4226,1.4169,0.0,0.0,0.0,0.0,0.0,0.0,0.0,0.0,0.0,0.0,0.0,1.8017,1.795,0.0,0.0,0.0,0.0,0.0,0.0,0.0,0.0,0.0,0.0,0.0,0.0,1.7746,2.0068,2.1243,2.2574,2.4145,2.421,2.4238,2.4248,2.3561,2.2179,2.0108,0.0,0.0,0.0,0.0,0.0,0.0,0.0,0.0,0.0,0.0,0.0,0.0,0.0,0.0,0.0,0.0,0.0,0.0,0.0,0.0,0.0,0.0,0.0,0.0,0.0,0.9538,0.0,0.0,0.0,0.0,0.0,0.0,0.0,0.0,0.0,0.0,0.0,1.8805,2.0122,2.1684,2.2778,2.2994,2.3732,2.422,0.0,0.0,0.0,0.0,0.0,0.0,0.0,0.0,0.0,0.0,0.0,0.0,0.0,0.0,1.9914,1.8099,1.8001,1.794,1.706,0.0,0.0,0.0,0.0,0.0,0.0,0.0,0.0,0.0,0.0,0.0,0.0,0.0,0.0,1.6914,0.0,1.5756,0.0,0.0,0.0,0.0,0.0,0.0,0.0,0.0,1.9388,2.0203,2.1189,2.1132,2.1097,0.0,1.9988,1.8372,0.0,0.0,0.0,0.0,0.0,0.0,0.0,0.0,1.8695,2.0425,2.1587,2.2786,2.4097,2.4171,2.4182,2.4182,2.3473,2.2229,2.0462,1.8335,1.6349,0.0,0.0,0.0,0.0,0.0,0.0,0.0,0.0,0.0,0.0,0.0,0.0,0.0,0.0,0.0,0.0,0.0,0.0,0.0,0.0,0.0,0.0,0.0,1.0271,0.0,0.0,0.0,0.0,0.0,0.0,0.0,0.0,0.0,1.8166,1.9412,2.048,2.1219,2.2465,2.3261,2.3167,0.0,0.0,0.0,0.0,0.0,0.0,0.0,2.241,2.2502,2.2353,2.2331,2.2669,2.2973,2.3158,2.3139,0.0,0.0,1.9809,1.9481,1.9412,1.854,1.9049,1.9604,1.9479,1.9795,2.0059,0.0,0.0,0.0,0.0,0.0,0.0,0.0,0.0,2.0636,2.0575,0.0,1.897,0.0,0.0,0.0,0.0,0.0,1.9274,0.0,0.0,2.1939,2.2785,2.4219,2.4218,2.4207,2.4115,2.2511,2.1698,2.1469,1.787,0.0,0.0,0.0,0.0,0.0,0.0,1.9697,2.0587,2.2054,2.3213,2.413,2.4112,2.4141,2.418,2.3447,2.269,2.1903,2.0374,1.85,1.6215,1.527,0.0,0.0,0.0,0.0,0.0,0.0,0.0,0.0,0.0,0.0,0.0,0.0,0.0,0.0,0.0,0.0,0.0,0.0,0.0,0.0,1.0625,0.0,0.0,0.0,0.0,0.0,0.0,0.0,0.0,0.0,0.0,1.9401,2.0662,2.1859,2.2694,0.0,0.0,0.0,0.0,2.375,2.3696,2.4263,2.4455,2.3764,2.3667,2.3721,2.3914,0.0,0.0,2.4019,2.4789,2.5275,2.5311,2.5847,2.5293,2.1602,2.1504,2.1615,2.0757,2.1175,2.1712,2.1625,2.1524,2.1526,2.6117,0.0,0.0,0.0,0.0,2.3024,2.3031,2.2855,2.3111,2.3137,2.2849,2.1472,0.0,0.0,0.0,0.0,0.0,0.0,2.3309,2.424,2.4815,2.5635,2.66,2.6607,2.6578,2.6534,2.4954,2.416,2.4069,2.1908,1.9752,1.7749,0.0,0.0,0.0,0.0,2.0458,2.28,2.2864,2.3475,2.4845,2.4308,2.4044,2.4046,2.3836,2.3353,2.263,2.162,2.0228,1.8421,1.6534,0.0,0.0,0.0,0.0,0.0,0.0,0.0,0.0,0.0,0.0,0.0,0.0,0.0,0.0,0.0,0.0,0.0,0.0,0.0,1.1417,1.2136,1.2349,0.0,0.0,0.0,0.0,0.0,0.0,0.0,0.0,0.0,2.2411,2.2709,2.3359,0.0,0.0,2.5207,2.5139,2.5099,2.4988,2.4837,2.4957,0.0,2.4852,2.4885,2.5022,2.5219,2.5205,2.5247,2.5486,2.5756,2.5953,2.5953,2.6134,2.5869,2.4853,2.3885,2.2931,2.1698,2.1872,2.2371,2.2315,2.2952,2.3642,3.0172,2.8205,2.6778,2.6027,2.5841,2.6158,2.6147,2.5896,2.6257,2.6271,2.5915,2.4586,2.3855,2.3518,2.2557,0.0,0.0,0.0,2.6278,2.6992,2.7483,2.813,2.888,2.8936,2.8948,2.8863,2.7652,2.684,2.6531,2.5248,2.3313,2.0816,0.0,0.0,2.0579,2.0907,2.2161,2.4278,2.4242,2.4652,2.5594,2.4879,2.4324,2.4006,2.3988,2.3787,2.3342,2.2556,2.1542,2.024,1.8273,1.6507,0.0,0.0,0.0,0.0,0.0,0.0,0.0,0.0,0.0,0.0,0.0,1.0331,0.0,0.0,0.0,0.0,1.1405,1.2011,1.2428,1.3696,0.0,0.0,0.0,0.0,0.0,0.0,0.0,2.1549,2.2194,2.3032,2.4414,2.4462,2.4651,2.546,2.5618,2.5591,2.5501,0.0,2.537,2.5174,2.5362,2.5429,2.5188,2.5488,2.581,2.6034,2.648,2.6823,2.6898,2.6943,2.6962,2.698,2.698,2.6878,2.6505,2.5721,2.4782,2.353,2.3599,2.3876,2.3788,2.4396,2.4885,3.3325,3.3282,3.0947,2.9506,2.8835,2.9552,2.9434,2.883,2.9544,2.9497,2.8802,2.7942,2.7175,2.6477,2.6609,0.0,2.6631,2.8123,2.9127,2.9778,2.985,3.0279,3.0982,3.1052,3.1061,3.1043,3.026,2.9487,2.8768,2.8032,2.6868,2.536,2.3222,2.2388,2.2904,2.3611,2.4371,2.519,2.586,2.6209,2.6272,2.5565,2.4832,2.4113,2.4004,2.3968,2.3968,2.3283,2.2482,2.1607,2.0111,1.8239,1.5977,0.0,0.0,0.0,0.0,0.0,0.0,0.0,0.0,0.0,0.0,0.0,0.0,0.0,0.0,0.0,1.293,0.0,1.3344,1.5446,0.0,0.0,0.0,1.9325,2.0599,2.0742,2.1541,2.3596,0.0,0.0,2.5757,2.6007,2.5889,2.5542,2.5513,2.5488,2.5362,2.5417,2.5276,2.5171,2.5714,2.5922,2.5519,2.5997,2.655,2.6726,2.7384,2.7901,2.7936,2.7984,2.8075,2.8053,2.8142,2.7914,2.7193,2.6926,2.677,2.6068,2.58,2.5697,2.5511,2.55,2.5454,3.434,3.4015,3.4047,3.2876,3.0963,3.1201,3.0916,3.0318,3.0476,3.0458,3.0255,2.9449,2.8643,2.7931,2.8562,2.8832,2.8855,2.9832,3.0358,3.0578,3.1171,3.1549,3.1743,3.174,3.1758,3.1701,3.093,3.0462,3.0282,3.0084,2.949,2.8486,2.7347,2.6002,2.4512,2.4639,2.5436,2.6819,2.6409,2.6222,2.6197,2.5459,2.4969,2.4762,2.4174,2.3847,2.3837,2.3674,2.293,2.1569,2.0571,1.9208,1.746,1.5328,0.0,0.0,0.0,0.0,0.0,0.0,0.0,0.0,0.0,1.137,1.257,0.0,1.3109,0.0,1.4838,1.5749,1.6253,1.8294,0.0,0.0,2.0472,2.1788,2.1957,2.2942,2.4173,2.5644,2.6286,2.696,2.783,2.8021,2.8043,2.7945,2.7258,2.6755,2.6642,2.6663,2.6588,2.6516,2.7028,2.7453,2.7299,2.7997,2.8337,2.8018,2.8227,2.8264,2.7737,2.773,2.78,2.7818,2.78,2.773,2.7574,2.7484,2.737,2.7151,2.6344,2.5537,2.5415,2.576,2.6065,3.5168,3.5067,3.5586,3.4861,3.3371,3.3206,3.2753,3.2135,3.2117,3.1938,3.1561,3.0835,3.0292,2.9898,3.0431,3.0675,3.0711,3.1437,3.1781,3.1802,3.2247,3.2445,3.2463,3.2475,3.249,3.2472,3.2023,3.1646,3.1358,3.1322,3.0923,3.0136,2.9687,2.8828,2.7608,2.6525,2.6598,2.7807,2.7434,2.6904,2.6222,2.5769,2.519,2.4483,2.4031,2.3795,2.3795,2.3795,2.3252,2.2083,2.1269,2.0101,1.8514,1.6522,1.5265,0.0,0.0,0.0,0.0,0.0,0.0,0.0,0.0,0.0,0.0,0.0,1.5433,1.6063,1.7382,1.834,1.8648,2.0674,2.1771,2.1275,2.2572,2.3655,2.4166,2.4933,2.5916,2.7238,2.7756,2.8156,2.85,2.8624,2.868,2.8699,2.8196,2.7845,2.7862,2.7845,2.781,2.7703,2.8006,2.826,2.8278,2.8742,2.9021,2.8733,2.875,2.8746,2.8382,2.8356,2.8418,2.8488,2.8232,2.8007,2.8001,2.7641,2.7371,2.728,2.6742,2.6257,2.6284,2.6545,2.678,3.5796,3.5971,3.6079,3.5918,3.5566,3.5155,3.455,3.3899,3.3899,3.3527,3.2837,3.2346,3.2107,3.2123,3.2192,3.2232,3.225,3.2729,3.2948,3.2948,3.2948,3.2948,3.2948,3.3026,3.3055,3.3073,3.3088,3.2729,3.2134,3.2116,3.1742,3.1078,3.0952,3.0898,3.0808,2.8726,2.7882,2.8393,2.8471,2.7837,2.6513,2.6277,2.55,2.4154,2.3883,2.3803,2.3813,2.3813,2.3405,2.259,2.1876,2.0825,1.9331,1.7835,1.6747,0.0,1.5352,0.0,0.0,0.0,0.0,0.0,0.0,0.0,0.0,1.7819,1.8474,1.9001,2.0232,2.0928,2.0788,2.2754,2.4003,2.3903,2.4511,2.5428,2.6588,2.6786,2.7284,2.8474,2.8688,2.8755,2.8805,2.8755,2.8774,2.8918,2.892,2.891,2.8969,2.8841,2.8637,2.8624,2.8691,2.8829,2.8982,2.9128,2.9188,2.9088,2.9167,2.9277,2.916,2.9128,2.918,2.9317,2.8939,2.8596,2.8526,2.7907,2.743,2.748,2.7308,2.7168,2.7255,2.727,2.7296,3.6036,3.5667,3.5689,3.5847,3.6048,3.5956,3.5372,3.446,3.4442,3.4426,3.4376,3.4323,3.4304,3.4251,3.3701,3.3469,3.3416,3.2901,3.2672,3.2688,3.2672,3.2672,3.2688,3.2804,3.2854,3.2854,3.2916,3.2876,3.2733,3.2733,3.2662,3.2483,3.1842,3.1538,3.1484,0.0,0.0,0.0,2.8406,2.8275,2.7965,2.6693,2.5913,2.5571,2.4359,0.0,2.3797,2.3797,2.3157,2.1812,2.1576,0.0,0.0,0.0,0.0,0.0,0.0,0.0,0.0,0.0,0.0,0.0,1.9629,1.9691,1.9425,2.0435,2.1342,2.1937,2.2573,2.2911,2.2847,2.4729,2.595,2.59,2.7023,2.7888,2.8115,2.8612,2.9071,2.9188,2.9752,3.0116,3.0066,3.0133,3.01,3.007,3.0137,3.0153,3.0124,2.9299,2.8676,2.8622,2.9123,2.973,3.0372,3.0426,3.018,2.9774,2.9664,2.954,2.909,2.8744,2.8714,2.9122,2.9395,2.9482,2.9126,2.8904,2.8698,2.8784,2.8288,2.7724,2.7209,2.7089,2.7074,3.6731,0.0,3.6142,3.6134,0.0,3.6036,3.5617,3.5186,3.5044,3.4814,3.4612,3.4653,3.4708,3.4746,3.4429,3.4306,3.4323,3.3916,3.3756,3.3739,3.3739,3.3527,3.3208,3.3259,3.308,3.2706,3.2739,3.2753,3.2753,3.2753,3.2771,3.2753,3.2328,3.2133,3.2115,3.1386,3.0321,2.8963,2.8569,2.8174,2.78,2.7015,2.6386,2.5991,2.526,0.0,0.0,0.0,0.0,0.0,0.0,0.0,0.0,0.0,0.0,2.0694,2.0371,2.0289,2.0656,2.0616,2.1085,2.2196,2.2863,2.2865,2.2082,2.288,2.3509,2.3687,2.4524,2.5032,2.4956,2.6453,2.7469,2.7466,2.8079,2.8588,2.8915,2.9261,2.9622,2.993,3.0257,3.0489,3.0489,3.0489,3.0489,3.0489,3.0489,3.0489,3.0439,2.9975,2.9553,2.9536,2.9806,3.0222,3.0592,3.0753,3.071,3.0309,3.0302,3.0227,2.9911,2.9724,2.9732,2.9947,3.0239,3.0243,2.9565,2.9159,2.8906,2.8889,2.8583,2.8298,2.7911,2.742,2.6992,3.7436,3.7394,3.6816,3.6604,3.6632,3.6144,3.5921,3.5926,0.0,0.0,0.0,3.4842,3.4885,3.4946,3.4916,3.4973,3.4994,3.487,3.48,3.4818,3.4818,3.4518,3.3952,3.3952,3.3563,3.2802,3.2801,3.273,3.2606,3.2588,3.2588,3.2588,3.2588,3.2588,3.2535,3.1862,3.0965,2.9858,2.8925,2.8166,2.753,2.7274,2.6808,2.6175,2.6032,2.5649,2.5015,2.5009,2.4363,2.2991,2.2919,2.2596,2.1985,2.1931,2.1975,2.209,2.2108,2.2367,2.3009,2.2975,2.3483,2.4852,2.5297,2.5226,2.4534,2.5034,2.5313,2.5162,2.6319,2.6959,2.6801,2.7896,2.8655,2.8671,2.873,2.9003,2.9496,2.9595,2.984,3.0332,3.0426,3.0443,3.0443,3.0443,3.0447,3.0443,3.0443,3.0447,3.0485,3.0439,3.0377,3.0377,3.0377,3.0472,3.051,3.0572,3.0671,3.0621,3.072,3.0831,3.0831,3.0871,3.0871,3.0741,3.0892,3.0607,3.0034,2.9515,2.9025,2.9008,2.8894,2.8829,2.8839,2.8094,2.7386,3.7698,3.7328,3.7203,3.7244,3.7367,3.7274,3.6928,3.638,3.6185,3.6023,3.5962,3.6149,3.6214,3.6183,3.564,3.5386,3.5388,3.4741,3.4501,3.4542,3.4561,3.4563,3.4585,3.464,3.427,3.36,3.3599,3.3279,3.2659,3.2606,3.2588,3.2588,3.2588,3.2588,3.2535,3.188,3.1418,3.1202,2.9766,2.895,2.8823,2.7546,2.6828,2.6757,2.6116,2.5775,2.5744,2.5739,2.5351,2.4536,2.4482,2.441,2.432,2.4284,2.4585,2.5183,2.5255,2.5248,2.5227,2.5225,2.5525,2.6215,2.6138,2.5959,2.592,2.6458,2.6955,2.7317,2.7968,2.836,2.8279,2.8865,2.9287,2.9301,2.9831,3.022,3.0224,3.0219,3.0231,3.0258,3.0231,3.0253,3.0269,3.0253,3.0253,3.0253,3.0274,3.029,3.0396,3.048,3.0489,3.0489,3.0489,3.0489,3.0489,3.051,3.0547,3.0526,3.0568,3.0589,3.0589,3.0609,3.063,3.0712,3.0688,3.0621,3.0597,3.0674,3.0436,3.0332,2.9939,2.9556,2.9585,2.8948,2.8468,3.8294,3.8055,3.7675,3.7562,3.7581,3.7336,3.7161,3.7038,3.6939,3.6559,3.6027,3.6165,3.6255,3.6318,3.6036,3.5942,3.6009,3.5697,3.56,3.5682,3.5702,3.5494,3.5166,3.5246,3.4897,3.4178,3.4233,3.3864,3.3159,3.3089,3.2895,3.2525,3.2473,3.249,3.2455,3.2155,3.1997,3.1944,3.0508,2.9546,2.9104,2.8428,2.7876,2.751,2.7165,2.6814,2.6453,2.6456,2.6136,2.5374,2.5338,2.5338,2.5338,2.5338,2.5481,2.5775,2.5793,2.5938,2.6291,2.66,2.7013,2.7515,2.7447,2.746,2.764,2.7538,2.7708,2.8238,2.8829,2.9129,2.9012,2.9602,2.9972,2.9947,3.0261,3.0401,3.0312,3.0312,3.0253,3.021,3.0227,3.0227,3.0227,3.0227,3.0227,3.0227,3.0205,3.0243,3.029,3.0316,3.038,3.0468,3.0489,3.0489,3.0489,3.0489,3.0489,3.0489,3.0489,3.0489,3.0489,3.0489,3.0526,3.0568,3.0547,3.0547,3.0671,3.0675,3.0692,3.0658,3.0462,3.0162,3.0166,2.9989,2.9632,3.8777,3.8739,3.8199,3.7953,3.7888,3.7376,3.7301,3.7536,3.7419,3.6896,3.6151,3.6118,3.6188,3.6297,3.6165,3.6208,3.6377,3.6398,3.6444,3.6602,3.6602,3.6331,3.5814,3.5859,3.5533,3.4853,3.4876,3.4511,3.3863,3.3775,3.3389,3.2704,3.2493,3.2406,3.2406,3.2406,3.2406,3.2335,3.131,3.0386,2.9624,2.9412,2.8968,2.829,2.828,2.7932,2.7205,2.7184,2.6939,2.6356,2.6302,2.6302,2.6297,2.6302,2.6276,2.6211,2.6229,2.6526,2.7222,2.7643,2.8132,2.8608,2.8594,2.8716,2.9044,2.8565,2.8374,2.8879,2.9502,2.9816,2.9711,3.0104,3.0443,3.0375,3.0519,3.0608,3.0429,3.0522,3.0637,3.0615,3.0593,3.0642,3.0609,3.0609,3.0675,3.0691,3.0479,3.037,3.0391,3.0293,3.0231,3.038,3.0443,3.0422,3.0426,3.0464,3.0464,3.0485,3.0489,3.0489,3.0489,3.0489,3.0489,3.0489,3.0489,3.0489,3.0489,3.0489,3.051,3.051,3.0464,3.0497,3.0563,3.0612,3.0379,3.8683,3.8777,3.8679,3.869,3.8592,3.7947,3.7662,3.765,3.7248,3.7011,3.6904,3.6611,3.6521,3.6575,3.6095,3.5961,3.6075,3.6058,3.6148,3.6322,3.6343,3.643,3.6525,3.6563,3.6257,3.5638,3.5624,3.5262,3.46,3.4566,3.4161,3.3406,3.2757,3.2441,3.2423,3.2423,3.2406,3.2406,3.2282,3.1808,3.1034,3.035,2.9679,2.8949,2.8928,2.8603,2.7965,2.7904,2.7886,2.7784,2.7762,2.778,2.7762,2.778,2.7798,2.7784,2.7784,2.8067,2.8609,2.8598,2.8773,2.9299,2.923,2.9344,2.9818,2.9553,2.9386,2.9599,3.0232,3.048,3.0344,3.0401,3.042,3.0379,3.0849,3.1182,3.112,3.1635,3.198,3.1841,3.1686,3.1825,3.1702,3.1686,3.1751,3.1644,3.1206,3.092,3.0955,3.057,3.0239,3.0271,3.0248,3.0264,3.0286,3.0338,3.0396,3.0417,3.0443,3.0447,3.0447,3.0468,3.0489,3.0426,3.0489,3.0489,3.0468,3.0489,3.0489,3.0489,3.0489,3.0489,3.0526,3.0531,3.0248,3.8488,3.856,3.8588,3.8616,3.8606,3.8373,3.8297,3.8313,3.8142,3.8081,3.7982,3.7463,3.7195,3.7136,3.6468,3.623,3.6378,3.596,3.5893,3.6105,3.6127,3.6229,3.6395,3.6461,3.635,3.6212,3.6277,3.5972,3.5349,3.4915,3.4548,3.4161,3.3424,3.3055,3.3002,3.2616,3.2406,3.2406,3.2406,3.223,3.1861,3.1159,3.0403,2.9734,2.9691,2.9614,2.9289,2.8909,2.8641,2.8623,2.8248,2.7982,2.7982,2.8425,2.8626,2.8603,2.8951,2.9215,2.9403,2.924,2.9385,2.9985,2.9803,2.9907,3.046,3.0398,3.0279,3.0133,3.034,3.0464,3.0429,3.0711,3.0871,3.086,3.1387,3.1766,3.1644,3.1888,3.2059,3.2012,3.2028,3.2044,3.2028,3.2028,3.2028,3.1996,3.1697,3.1598,3.1612,3.1368,3.105,3.0699,3.0624,3.0478,3.0277,3.0231,3.0274,3.029,3.0312,3.0316,3.0338,3.0443,3.0447,3.0342,3.0384,3.0426,3.0443,3.0468,3.0489,3.0489,3.0489,3.0489,3.0489,3.0489,3.0348,3.8391,3.8391,3.8391,3.8448,3.8532,3.8532,3.86,3.8683,3.8738,3.8766,3.8701,3.8204,3.7953,3.7743,3.6961,3.6597,3.6542,3.606,3.5831,3.59,3.5888,3.5997,3.6187,3.6251,3.6339,3.6485,3.6612,3.6472,3.5952,3.5314,3.5003,3.4881,3.4214,3.3827,3.3757,3.3073,3.2704,3.2687,3.2511,3.2406,3.2318,3.1826,3.1159,3.0492,3.0451,3.0378,3.0166,2.9667,2.938,2.9362,2.8865,2.8564,2.86,2.9097,2.9334,2.9292,2.9656,2.9963,3.0056,2.9903,3.0074,3.0595,3.0474,3.0485,3.0781,3.0814,3.075,3.0714,3.0614,3.062,3.0614,3.1177,3.1475,3.1404,3.2022,3.2382,3.2303,3.2433,3.2627,3.2579,3.2708,3.2579,3.2579,3.2643,3.2692,3.2676,3.2465,3.2303,3.2255,3.2109,3.1753,3.126,3.105,3.0664,3.0261,3.0124,3.0124,3.0146,3.0167,3.0227,3.0227,3.0338,3.0401,3.0274,3.0338,3.0359,3.0338,3.038,3.0426,3.0447,3.0464,3.0447,3.0489,3.0489,3.0489,3.8391,3.8363,3.8391,3.8408,3.8391,3.8408,3.842,3.8448,3.856,3.8616,3.8616,3.8673,3.8707,3.8624,3.7503,3.6779,3.6489,3.6413,3.6118,3.574,3.5673,3.5839,3.6187,3.6204,3.631,3.6461,3.6523,3.6574,3.6631,3.6007,3.5698,3.5704,3.5003,3.4635,3.4511,3.3827,3.3441,3.3371,3.2792,3.2441,3.2423,3.2371,3.1914,3.123,3.1158,3.086,3.0264,3.0106,3.0069,3.0053,2.9964,2.9946,2.9966,3.0017,3.0004,2.9939,2.9958,3.0174,3.0664,3.0628,3.0778,3.1259,3.1152,3.1024,3.0875,3.0771,3.0865,3.1276,3.1348,3.1365,3.1238,3.1782,3.2104,3.2059,3.2619,3.3008,3.3032,3.3501,3.3939,3.3906,3.3809,3.3761,3.3906,3.402,3.3858,3.3728,3.3404,3.3048,3.2951,3.2498,3.2158,3.1898,3.1445,3.0716,3.0129,2.9989,3.0017,3.0017,3.0098,3.0184,3.0205,3.0227,3.0205,3.0162,3.0081,3.0081,3.0184,3.0231,3.0295,3.0338,3.0396,3.0417,3.0422,3.0468,3.0468,3.8078,3.8078,3.8062,3.8078,3.8107,3.8237,3.8278,3.8294,3.8436,3.8492,3.8492,3.8532,3.8588,3.8639,3.8243,3.7827,3.7485,3.7136,3.6673,3.6215,3.6171,3.6096,3.5961,3.6019,3.6144,3.6293,3.644,3.6585,3.669,3.6466,3.6364,3.6245,3.5582,3.5217,3.5077,3.4465,3.408,3.4011,3.3385,3.3036,3.3019,3.2634,3.2248,3.1984,3.1967,3.1844,3.1581,3.1089,3.0808,3.0808,3.0387,3.009,3.0125,3.0497,3.0937,3.1306,3.1237,3.1254,3.1406,3.1276,3.1192,3.1276,3.1112,3.0969,3.087,3.1073,3.1287,3.1505,3.2518,3.2853,3.2513,3.2634,3.2764,3.2813,3.3307,3.3712,3.3761,3.3955,3.4101,3.4101,3.4101,3.4101,3.4101,3.4101,3.4101,3.4068,3.3874,3.3728,3.3696,3.3469,3.3145,3.2789,3.2465,3.206,3.1348,3.0405,2.9962,2.9946,2.9984,3.0006,3.0027,3.0049,3.0049,3.0049,2.9924,2.9946,3.0076,3.0162,3.0205,3.0231,3.029,3.029,3.0295,3.0359,3.0338,3.7905,3.7905,3.7905,3.7905,3.7889,3.8033,3.8123,3.8123,3.8266,3.8335,3.8351,3.8379,3.8464,3.8548,3.856,3.851,3.8259,3.7781,3.7245,3.6805,3.6803,3.6565,3.6186,3.6263,3.628,3.6242,3.6356,3.6502,3.6623,3.6643,3.6643,3.6632,3.6127,3.5884,3.5779,3.5133,3.4751,3.4629,3.4059,3.3713,3.3645,3.3018,3.2669,3.2617,3.2424,3.2336,3.2371,3.1861,3.1581,3.1528,3.1107,3.0827,3.0846,3.12,3.1655,3.2021,3.1949,3.1857,3.1727,3.1595,3.1404,3.1244,3.1264,3.1202,3.1125,3.1594,3.1878,3.224,3.2917,3.3599,3.3501,3.3404,3.3404,3.3477,3.3841,3.4101,3.4101,3.4084,3.4101,3.4101,3.4101,3.4101,3.4101,3.4101,3.4101,3.4101,3.4101,3.4101,3.4101,3.4084,3.3987,3.3501,3.3186,3.2829,3.2255,3.1436,3.0626,3.0496,3.0032,2.9983,2.9961,2.9945,2.9896,2.9896,2.9918,2.9924,2.9968,3.0055,3.0098,3.0124,3.0146,3.0146,3.0189,3.0227,3.0227,3.7876,3.7876,3.7905,3.7876,3.7876,3.7905,3.7905,3.7934,3.8107,3.818,3.8193,3.8323,3.8379,3.8436,3.852,3.8623,3.8636,3.8212,3.7763,3.7378,3.7452,3.7244,3.6766,3.6968,3.6811,3.6324,3.6293,3.6364,3.6502,3.6502,3.6561,3.6643,3.6612,3.6487,3.6629,3.5844,3.5499,3.5322,3.4749,3.4384,3.4297,3.3638,3.3221,3.317,3.2631,3.2406,3.2529,3.2388,3.2266,3.2301,3.2266,3.2301,3.2039,3.2057,3.2073,3.1931,3.1894,3.1785,3.1617,3.1538,3.1402,3.1376,3.1681,3.1851,3.1869,3.2221,3.2636,3.3065,3.325,3.3413,3.3922,3.4003,3.4003,3.4084,3.4084,3.4101,3.4101,3.4101,3.4101,3.4101,3.4101,3.4101,3.4101,3.4101,3.4101,3.4101,3.4101,3.4101,3.4101,3.4101,3.4084,3.3955,3.3631,3.3267,3.2886,3.2481,3.1785,3.1114,3.048,3.0107,3.0107,3.0091,2.9929,2.9896,2.9896,2.9918,2.9918,2.9984,2.9989,3.0011,3.0017,3.0055,3.0076,3.0119,3.0141,3.7628,3.7628,3.7612,3.7628,3.7628,3.773,3.7759,3.7804,3.7934,3.7992,3.802,3.8164,3.825,3.8294,3.8408,3.8588,3.8788,3.8597,3.8368,3.811,3.8204,3.7927,3.7516,3.771,3.7609,3.7064,3.6559,3.6322,3.636,3.6381,3.6402,3.6423,3.6423,3.6423,3.6426,3.6181,3.606,3.5973,3.5376,3.5035,3.4966,3.4382,3.4019,3.4003,3.3794,3.371,3.3712,3.2772,3.2231,3.2214,3.2196,3.2179,3.2109,3.2037,3.1948,3.1912,3.1857,3.1744,3.1557,3.1568,3.1655,3.1773,3.1942,3.2206,3.254,3.296,3.3247,3.3505,3.3713,3.4006,3.4077,3.4101,3.4101,3.4101,3.4101,3.4101,3.4101,3.4101,3.4101,3.4101,3.4101,3.4101,3.4101,3.4101,3.4101,3.4101,3.4101,3.4101,3.4101,3.4101,3.4101,3.4052,3.3809,3.3704,3.3477,3.3226,3.2724,3.2019,3.1313,3.0496,3.0376,3.0107,2.9961,2.9896,2.9896,2.9896,2.9896,2.9918,2.994,2.9924,2.9962,2.9984,3.0006,3.0027,3.0033,3.751,3.751,3.751,3.751,3.751,3.7599,3.7612,3.7642,3.7759,3.7817,3.7876,3.8078,3.8209,3.8237,3.8335,3.856,3.8777,3.8805,3.8793,3.8774,3.894,3.864,3.8092,3.8105,3.7951,3.7503,3.6973,3.6577,3.6301,3.6284,3.6284,3.6284,3.6284,3.6284,3.6284,3.6284,3.6284,3.6236,3.588,3.5679,3.5541,3.5047,3.4686,3.4651,3.4426,3.4304,3.42,3.3318,3.2713,3.249,3.2265,3.2073,3.2037,3.193,3.1876,3.1926,3.206,3.2156,3.2021,3.2271,3.2372,3.257,3.2719,3.2937,3.3339,3.375,3.3959,3.3979,3.4105,3.4291,3.4201,3.4126,3.4101,3.4101,3.4101,3.4101,3.4101,3.4101,3.4101,3.4101,3.4101,3.4101,3.4101,3.4101,3.4101,3.4101,3.4101,3.4101,3.4101,3.4101,3.4101,3.4101,3.402,3.4012,3.4111,3.3892,3.364,3.2983,3.2284,3.1387,3.0846,3.0253,2.9896,2.9896,2.9896,2.9896,2.9896,2.9896,2.9918,2.9896,2.9896,2.9918,2.994,2.994,2.9962,3.751,3.751,3.751,3.751,3.751,3.751,3.751,3.7539,3.7642,3.7687,3.7775,3.8036,3.818,3.8193,3.8307,3.8544,3.875,3.8805,3.8969,3.9242,3.9456,3.9277,3.8841,3.8554,3.8225,3.7865,3.765,3.7167,3.6525,3.6473,3.6318,3.6318,3.6284,3.6284,3.6284,3.6284,3.6284,3.6266,3.6249,3.6236,3.6201,3.5649,3.5287,3.5252,3.4737,3.4426,3.4444,3.4202,3.3813,3.3271,3.2681,3.2384,3.2138,3.2033,3.2151,3.2181,3.2645,3.2863,3.299,3.318,3.3519,3.3503,3.3775,3.4197,3.4174,3.4432,3.4607,3.4576,3.4448,3.4349,3.43,3.4226,3.4151,3.4109,3.4109,3.4101,3.4126,3.4126,3.4151,3.4151,3.4126,3.4126,3.4151,3.4151,3.4151,3.4151,3.4151,3.4176,3.4176,3.4201,3.4151,3.4151,3.4201,3.4226,3.4284,3.4235,3.3999,3.3771,3.3184,3.2501,3.1521,3.079,3.02,3.0167,3.0054,2.9999,2.9896,2.9913,2.9896,2.9896,2.9896,2.9896,2.9896,2.9896,2.9896,3.751,3.751,3.751,3.751,3.751,3.751,3.751,3.751,3.7524,3.7569,3.7612,3.7847,3.7992,3.8004,3.8278,3.8544,3.875,3.8805,3.8985,3.9315,3.9573,3.9876,3.9831,3.9371,3.9088,3.8986,3.8508,3.7927,3.7254,3.7185,3.6887,3.6301,3.6353,3.6301,3.6284,3.6284,3.6284,3.6284,3.6284,3.6284,3.6266,3.6111,3.6025,3.599,3.5766,3.5663,3.5645,3.518,3.4579,3.393,3.3725,3.355,3.3444,3.3427,3.3373,3.3423,3.3593,3.3727,3.3662,3.3713,3.3915,3.43,3.4356,3.4522,3.5064,3.5018,3.497,3.4851,3.4707,3.4546,3.4472,3.4399,3.4358,3.4301,3.4209,3.4151,3.4226,3.425,3.4275,3.4374,3.4358,3.4374,3.4374,3.4374,3.4374,3.4374,3.4374,3.4358,3.4333,3.4349,3.4325,3.4374,3.4399,3.4423,3.4448,3.4448,3.4399,3.4366,3.4055,3.3712,3.2707,3.1753,3.1218,3.0841,3.0581,3.0483,3.0141,2.9935,2.9935,2.9999,2.9918,2.9918,2.9896,2.9896,2.9896,3.751,3.751,3.751,3.751,3.751,3.751,3.751,3.751,3.751,3.751,3.7569,3.7772,3.7905,3.7934,3.825,3.856,3.8777,3.8805,3.8985,3.9315,3.9573,3.9969,4.0251,3.9997,3.9808,3.9641,3.9267,3.8663,3.806,3.7961,3.7547,3.6973,3.6801,3.6646,3.6284,3.6284,3.6284,3.6284,3.6284,3.6284,3.6284,3.6284,3.6284,3.6284,3.6284,3.6284,3.6215,3.587,3.5218,3.4372,3.4096,3.4096,3.4096,3.4096,3.4096,3.4113,3.4372,3.4539,3.4513,3.4617,3.4886,3.5117,3.4989,3.5071,3.5317,3.5274,3.5111,3.4975,3.4866,3.4739,3.4667,3.457,3.4497,3.444,3.4333,3.4316,3.4407,3.4415,3.444,3.4472,3.448,3.4497,3.4497,3.4497,3.4497,3.4497,3.4472,3.4456,3.4472,3.4497,3.4521,3.457,3.457,3.457,3.4618,3.4643,3.4715,3.4715,3.4706,3.4451,3.3625,3.2617,3.2089,3.1579,3.123,3.0914,3.0635,3.0358,3.0222,3.0244,3.0038,2.9918,2.9935,2.9918,2.9918,3.748,3.751,3.751,3.751,3.751,3.751,3.751,3.751,3.751,3.751,3.7569,3.7788,3.7905,3.795,3.825,3.8544,3.8805,3.8805,3.9023,3.9335,3.9651,4.0037,4.0444,4.0424,4.0227,3.9968,3.9819,3.937,3.887,3.8698,3.8323,3.7789,3.7594,3.7163,3.6715,3.649,3.6404,3.6301,3.6284,3.6284,3.6284,3.6284,3.6284,3.6284,3.6284,3.6284,3.6284,3.6163,3.568,3.4404,3.4337,3.4476,3.4404,3.4369,3.4407,3.4525,3.5007,3.5301,3.5349,3.5731,3.6041,3.5912,3.5715,3.56,3.5509,3.5412,3.5281,3.5184,3.5031,3.497,3.4923,3.4715,3.465,3.465,3.4618,3.4627,3.4643,3.4603,3.4546,3.457,3.457,3.4594,3.4594,3.4586,3.4594,3.4787,3.4763,3.478,3.4763,3.4787,3.478,3.4732,3.4732,3.4691,3.478,3.4875,3.497,3.5041,3.5105,3.4858,3.4183,3.3387,3.2866,3.2403,3.2042,3.1702,3.1438,3.1165,3.0924,3.0592,3.0473,3.0195,2.9973,2.994,2.9962,3.7359,3.751,3.751,3.751,3.751,3.751,3.751,3.751,3.751,3.751,3.7569,3.7788,3.7905,3.7918,3.825,3.856,3.8777,3.886,3.9077,3.9599,3.9772,4.0087,4.0436,4.051,4.0552,4.053,4.0636,4.0221,3.9629,3.9405,3.9077,3.8456,3.8301,3.7996,3.7335,3.7198,3.6887,3.6439,3.6318,3.6353,3.6353,3.6301,3.6284,3.6284,3.6284,3.6284,3.6284,3.6284,3.6128,3.5904,3.5749,3.5628,3.5645,3.5697,3.5663,3.568,3.5835,3.6025,3.6073,3.6113,3.6204,3.6122,3.6014,3.5883,3.5801,3.5633,3.5543,3.5469,3.5331,3.5205,3.5175,3.5135,3.5065,3.5041,3.5081,3.5105,3.5105,3.4963,3.4875,3.4963,3.5034,3.5128,3.5105,3.5081,3.5081,3.5128,3.5128,3.5128,3.5105,3.5058,3.5018,3.497,3.497,3.497,3.4994,3.5088,3.5158,3.5251,3.5337,3.5344,3.4645,3.4207,3.3746,3.3274,3.2803,3.255,3.2401,3.2134,3.1925,3.1444,3.0964,3.068,3.044,3.0255,2.9984,3.7329,3.751,3.751,3.751,3.751,3.751,3.751,3.751,3.751,3.7539,3.7612,3.7817,3.7963,3.8049,3.8307,3.856,3.8805,3.905,3.9335,3.9677,3.9833,4.013,4.0436,4.0534,4.0631,4.0847,4.0894,4.0601,4.0336,4.0164,3.9871,3.9163,3.9094,3.8698,3.8134,3.8008,3.784,3.7439,3.7008,3.6853,3.6835,3.6456,3.6284,3.6284,3.6284,3.6284,3.6284,3.6284,3.6284,3.6284,3.6284,3.6284,3.6284,3.6284,3.6284,3.6284,3.6284,3.6284,3.6262,3.6276,3.6229,3.6187,3.6122,3.6036,3.5966,3.5839,3.5734,3.56,3.5487,3.5412,3.5331,3.5308,3.5308,3.5308,3.5308,3.5308,3.5268,3.5158,3.5105,3.5198,3.5245,3.5285,3.5308,3.536,3.5331,3.5268,3.5245,3.5245,3.5232,3.5208,3.5228,3.5211,3.5245,3.5268,3.5251,3.5297,3.5367,3.5412,3.5481,3.5481,3.5227,3.4912,3.4676,3.4228,3.3815,3.3688,3.3532,3.3247,3.283,3.2286,3.178,3.1341,3.1023,3.0893,3.0446,3.7329,3.751,3.751,3.751,3.751,3.751,3.751,3.7524,3.7539,3.7628,3.773,3.786,3.8065,3.8193,3.8379,3.8572,3.8887,3.9282,3.9573,3.9703,3.9926,4.0205,4.0461,4.0558,4.0655,4.0871,4.0894,4.0843,4.0843,4.086,4.0463,3.9957,3.9871,3.9474,3.8922,3.8772,3.8634,3.8318,3.7887,3.7646,3.7599,3.7077,3.6818,3.6577,3.6335,3.6301,3.6284,3.6284,3.6284,3.6284,3.6284,3.6284,3.6284,3.6284,3.6284,3.6284,3.6284,3.6284,3.6284,3.628,3.6259,3.6208,3.6208,3.6182,3.6096,3.6014,3.5932,3.5788,3.5655,3.5616,3.5452,3.5475,3.5458,3.5452,3.5429,3.5406,3.5406,3.5406,3.5412,3.536,3.5429,3.5498,3.5498,3.5526,3.5475,3.5406,3.5406,3.54,3.5388,3.5411,3.5475,3.5526,3.5566,3.5571,3.5577,3.5571,3.5616,3.5616,3.5644,3.5644,3.5644,3.5504,3.5279,3.5209,3.4917,3.4682,3.4453,3.4199,3.3709,3.3122,3.2685,3.238,3.1978,3.1582,3.11,3.7329,3.751,3.751,3.751,3.751,3.751,3.7569,3.7642,3.7671,3.773,3.7876,3.8049,3.8135,3.8266,3.8464,3.8711,3.9023,3.9415,3.9677,3.9781,4.0054,4.0313,4.0485,4.0624,4.0728,4.0847,4.0894,4.0894,4.0894,4.0877,4.0774,4.0687,4.0636,4.0239,3.9715,3.9491,3.925,3.8922,3.8599,3.8422,3.8336,3.8134,3.7771,3.7284,3.6835,3.6542,3.6422,3.6353,3.6284,3.6284,3.6284,3.6335,3.6456,3.6456,3.6404,3.6284,3.6284,3.6284,3.6284,3.6284,3.6301,3.628,3.6276,3.6289,3.6221,3.62,3.6101,3.6048,3.5983,3.5939,3.5888,3.6004,3.5929,3.5934,3.6009,3.6009,3.6014,3.5936,3.5869,3.5791,3.5763,3.5706,3.5728,3.5728,3.5728,3.5706,3.5706,3.5723,3.5735,3.5779,3.5834,3.5878,3.5917,3.5905,3.5893,3.5888,3.5905,3.5883,3.5866,3.5866,3.5888,3.5932,3.5822,3.5616,3.5452,3.5221,3.5052,3.4973,3.4643,3.4029,3.37,3.3443,3.2945,3.2442,3.2208,3.73,3.751,3.7569,3.7599,3.7612,3.7671,3.773,3.7788,3.7817,3.7889,3.8049,3.8164,3.8294,3.8408,3.852,3.881,3.9175,3.9504,3.9713,3.9858,4.0138,4.0379,4.051,4.0648,4.0769,4.0847,4.0894,4.0894,4.0894,4.0894,4.0894,4.0894,4.0894,4.0687,4.0405,4.0325,4.0118,3.9738,3.941,3.9163,3.9117,3.8893,3.8375,3.8065,3.7715,3.7525,3.7473,3.7473,3.7512,3.7547,3.7508,3.7491,3.7439,3.7353,3.7094,3.6508,3.6353,3.6318,3.6301,3.6284,3.6284,3.6284,3.6318,3.628,3.6293,3.6251,3.6294,3.6242,3.6493,3.6573,3.6585,3.6903,3.716,3.7194,3.716,3.7125,3.7074,3.6801,3.658,3.6394,3.6195,3.6081,3.5949,3.5971,3.5993,3.6014,3.6019,3.6014,3.6027,3.6031,3.6036,3.6036,3.6036,3.6036,3.6023,3.6062,3.6062,3.6041,3.6041,3.6041,3.6036,3.6036,3.5954,3.5822,3.5684,3.5616,3.5515,3.5374,3.5161,3.4936,3.4655,3.4291,3.3778,3.3356,3.3137,3.7389,3.7569,3.7671,3.773,3.7775,3.7847,3.7918,3.7963,3.7992,3.8107,3.8266,3.8335,3.8448,3.8616,3.8711,3.892,3.9352,3.9599,3.9755,3.9935,4.0213,4.0412,4.051,4.0655,4.0799,4.0871,4.0894,4.0894,4.0894,4.0894,4.0894,4.0894,4.0894,4.0894,4.0843,4.0774,4.0894,4.0705,4.0319,3.9957,3.979,3.9232,3.8801,3.8772,3.8681,3.8508,3.8405,3.8387,3.8405,3.8422,3.8474,3.8525,3.8577,3.8594,3.8025,3.7025,3.6766,3.6749,3.6801,3.6853,3.6991,3.7025,3.6835,3.6801,3.6835,3.7004,3.6861,3.6775,3.707,3.7415,3.7523,3.7946,3.822,3.8277,3.8243,3.8288,3.8071,3.7797,3.7551,3.7237,3.6769,3.6461,3.6328,3.6127,3.6148,3.6148,3.6148,3.6131,3.6127,3.6105,3.6127,3.6092,3.6092,3.6088,3.611,3.6127,3.6148,3.6131,3.6148,3.6148,3.6122,3.6079,3.6036,3.6019,3.6041,3.5954,3.5866,3.5756,3.5576,3.543,3.5407,3.5148,3.4639,3.4308,3.4106,3.7671,3.7687,3.7817,3.7876,3.7905,3.7918,3.802,3.8164,3.8278,3.842,3.8532,3.8655,3.8722,3.8805,3.8914,3.9148,3.9432,3.9642,3.9781,3.9977,4.0288,4.0461,4.0534,4.0776,4.0847,4.0894,4.0894,4.0894,4.0894,4.0894,4.0894,4.0894,4.0894,4.0894,4.0894,4.0894,4.0894,4.0877,4.0791,4.0722,4.0584,3.9939,3.9629,3.9405,3.9077,3.8801,3.8888,3.8905,3.8858,3.8767,3.872,3.8669,3.8594,3.8594,3.856,3.837,3.8336,3.8318,3.818,3.806,3.8043,3.8008,3.8112,3.8306,3.8116,3.8134,3.8151,3.8318,3.8394,3.8389,3.8384,3.8567,3.8601,3.8722,3.8849,3.8785,3.8648,3.8631,3.8401,3.8229,3.7828,3.7162,3.6737,3.6483,3.6259,3.6259,3.6276,3.6327,3.6255,3.6285,3.6195,3.6178,3.6161,3.6178,3.6156,3.6195,3.6195,3.6216,3.6216,3.6216,3.6195,3.617,3.6216,3.6216,3.6237,3.6195,3.6045,3.5954,3.5932,3.5844,3.5684,3.5616,3.5504,3.5256,3.4929,3.7905,3.7817,3.8094,3.8209,3.8193,3.8347,3.846,3.8544,3.86,3.8655,3.8694,3.875,3.8832,3.8942,3.9148,3.9388,3.9616,3.9729,3.9884,4.0037,4.0337,4.051,4.0558,4.0752,4.0894,4.0894,4.0894,4.0894,4.0894,4.0894,4.0894,4.0894,4.0894,4.0894,4.0894,4.0894,4.0894,4.0894,4.0894,4.0894,4.0808,4.0584,4.0377,4.0377,4.0032,3.9853,3.9819,3.9911,3.9911,3.9894,3.9911,3.9911,3.9928,3.9928,3.9888,3.9911,3.9888,3.9479,3.8755,3.8663,3.8698,3.8629,3.8629,3.8525,3.8651,3.8903,3.892,3.8577,3.8991,3.9198,3.9353,3.9669,3.9842,3.9876,3.9652,3.9721,3.9618,3.9307,3.9181,3.9043,3.887,3.8249,3.7784,3.7732,3.756,3.7353,3.7193,3.7038,3.6797,3.6521,3.6418,3.6262,3.6262,3.6262,3.6241,3.6241,3.6259,3.6241,3.6241,3.6241,3.6262,3.6284,3.6284,3.6284,3.6262,3.6216,3.6152,3.6127,3.6062,3.5997,3.591,3.5844,3.5778,3.5605,3.5312,3.8193,3.8107,3.8335,3.8476,3.8532,3.8722,3.8777,3.8805,3.8832,3.886,3.8887,3.8942,3.905,3.9131,3.9388,3.9616,3.9729,3.9875,3.9986,4.0188,4.0362,4.051,4.0607,4.0799,4.0894,4.0894,4.0894,4.0894,4.0894,4.0894,4.0894,4.0894,4.0894,4.0894,4.0894,4.0894,4.0894,4.0894,4.0894,4.0894,4.0877,4.0894,4.0843,4.086,4.0894,4.0894,4.0894,4.0843,4.0825,4.0791,4.0756,4.067,4.0705,4.067,4.067,4.067,4.0653,4.0325,3.9669,3.9376,3.9203,3.9186,3.9163,3.941,3.9359,3.9565,3.9692,3.9393,3.9681,3.9957,4.0112,4.0549,4.0601,4.0653,4.0705,4.0843,4.0808,4.0256,3.9963,3.9922,3.9767,3.9543,3.9215,3.9198,3.8957,3.8582,3.8237,3.7858,3.7495,3.7077,3.6922,3.6853,3.6749,3.6646,3.6353,3.6335,3.6318,3.6318,3.6318,3.6284,3.6284,3.6284,3.6284,3.6284,3.6284,3.6262,3.6237,3.6212,3.6208,3.6127,3.6084,3.6041,3.5954,3.58,3.5622,3.8448,3.856,3.8588,3.8672,3.8794,3.8777,3.8805,3.886,3.8985,3.9023,3.9094,3.9299,3.9405,3.9484,3.9573,3.9746,3.9858,3.9884,4.0037,4.0238,4.0436,4.0558,4.068,4.0799,4.0894,4.0894,4.0894,4.0894,4.0894,4.0894,4.0894,4.0894,4.0894,4.0894,4.0894,4.0894,4.0894,4.0894,4.0894,4.0894,4.0894,4.0894,4.0894,4.0894,4.0894,4.0894,4.0894,4.0894,4.0894,4.0894,4.0894,4.0894,4.0894,4.0894,4.0894,4.0894,4.0894,4.067,4.0411,4.0377,4.0618,4.0687,4.0601,4.0411,4.0342,4.0601,4.0705,4.0498,4.0515,4.0636,4.0722,4.0877,4.0894,4.0894,4.0894,4.0894,4.0894,4.086,4.0618,4.0756,4.0601,4.0273,4.0187,4.0066,3.9825,3.9393,3.8853,3.8496,3.8301,3.7956,3.7784,3.7668,3.7495,3.7185,3.6542,3.649,3.6628,3.6542,3.6456,3.637,3.6284,3.6284,3.6284,3.6284,3.6284,3.6284,3.6284,3.6259,3.6237,3.6276,3.6233,3.617,3.6105,3.5997,3.5822,3.8644,3.8849,3.8975,3.8985,3.8942,3.9148,3.9228,3.9255,3.9388,3.9425,3.9441,3.9573,3.9642,3.9668,3.9772,3.9849,3.991,3.9986,4.0138,4.0288,4.0436,4.0558,4.0704,4.0817,4.0894,4.0894,4.0894,4.0894,4.0894,4.0894,4.0894,4.0894,4.0894,4.0894,4.0894,4.0894,4.0894,4.0894,4.0894,4.0894,4.0894,4.0894,4.0894,4.0894,4.0894,4.0894,4.0894,4.0894,4.0894,4.0894,4.0894,4.0894,4.0894,4.0894,4.0894,4.0894,4.0894,4.0894,4.0894,4.0894,4.0894,4.0894,4.0877,4.0894,4.0894,4.0894,4.0894,4.0877,4.0894,4.0894,4.0894,4.0894,4.0894,4.0894,4.0894,4.0894,4.0894,4.0894,4.0894,4.086,4.086,4.0739,4.0756,4.0791,4.0498,4.017,3.9635,3.9163,3.9008,3.8819,3.8612,3.841,3.8237,3.8065,3.7491,3.7249,3.706,3.6887,3.6715,3.6611,3.6559,3.6301,3.6301,3.6301,3.6284,3.6284,3.6284,3.6284,3.6284,3.628,3.6276,3.6233,3.6191,3.6165,3.6014,3.8777,3.9023,3.9272,3.9299,3.9202,3.9441,3.958,3.9563,3.9651,3.9703,3.9703,3.9729,3.9755,3.9781,3.9884,3.9952,3.9986,4.0045,4.0163,4.0313,4.0436,4.0558,4.0721,4.0817,4.0894,4.0894,4.0894,4.0894,4.0894,4.0894,4.0894,4.0894,4.0894,4.0894,4.0894,4.0894,4.0894,4.0894,4.0894,4.0894,4.0894,4.0894,4.0894,4.0894,4.0894,4.0894,4.0894,4.0894,4.0894,4.0894,4.0894,4.0894,4.0894,4.0894,4.0894,4.0894,4.0894,4.0894,4.0894,4.0894,4.0894,4.0894,4.0894,4.0894,4.0894,4.0894,4.0894,4.0894,4.0894,4.0894,4.0894,4.0894,4.0894,4.0894,4.0894,4.0894,4.0894,4.0894,4.0894,4.0894,4.0894,4.0894,4.0894,4.0894,4.0791,4.0567,4.0359,3.9997,3.9853,3.9646,3.9388,3.9163,3.8922,3.8767,3.856,3.8163,3.7801,3.7767,3.7542,3.7129,3.6956,3.668,3.6387,3.6301,3.6284,3.6284,3.6284,3.6284,3.6284,3.6284,3.628,3.6276,3.6276,3.6212,3.617,3.8887,3.905,3.9362,3.9501,3.9484,3.9642,3.9703,3.9703,3.9729,3.9729,3.9755,3.9875,3.9884,3.991,3.9995,4.0062,4.0062,4.0096,4.0146,4.0288,4.0387,4.0576,4.0697,4.0817,4.0888,4.0894,4.0894,4.0894,4.0894,4.0894,4.0894,4.0894,4.0894,4.0894,4.0894,4.0894,4.0894,4.0894,4.0894,4.0894,4.0894,4.0894,4.0894,4.0894,4.0894,4.0894,4.0894,4.0894,4.0894,4.0894,4.0894,4.0894,4.0894,4.0894,4.0894,4.0894,4.0894,4.0894,4.0894,4.0894,4.0894,4.0894,4.0894,4.0894,4.0894,4.0894,4.0894,4.0894,4.0894,4.0894,4.0894,4.0894,4.0894,4.0894,4.0894,4.0894,4.0894,4.0894,4.0894,4.0894,4.0894,4.0894,4.0894,4.0894,4.0894,4.0843,4.0877,4.0756,4.0549,4.0359,4.0066,3.9945,3.9704,3.9583,3.9376,3.8893,3.8599,3.856,3.8318,3.7875,3.7478,3.7185,3.6835,3.6473,3.6284,3.6284,3.6284,3.6284,3.6284,3.6284,3.6284,3.6284,3.6301,3.628,3.6233,3.9094,3.9352,3.9563,3.9677,3.9772,3.9824,3.9849,3.9858,3.991,3.9944,3.9986,4.0037,4.0037,4.0062,4.0045,4.0113,4.0113,4.0113,4.0163,4.0263,4.0337,4.0527,4.0648,4.0745,4.0817,4.0888,4.0894,4.0894,4.0894,4.0894,4.0894,4.0894,4.0894,4.0894,4.0894,4.0894,4.0894,4.0894,4.0894,4.0894,4.0894,4.0894,4.0894,4.0894,4.0894,4.0894,4.0894,4.0894,4.0894,4.0894,4.0894,4.0894,4.0894,4.0894,4.0894,4.0894,4.0894,4.0894,4.0894,4.0894,4.0894,4.0894,4.0894,4.0894,4.0894,4.0894,4.0894,4.0894,4.0894,4.0894,4.0894,4.0894,4.0894,4.0894,4.0894,4.0894,4.0894,4.0894,4.0894,4.0894,4.0894,4.0894,4.0894,4.0894,4.0894,4.0894,4.0894,4.0894,4.0739,4.0756,4.0601,4.0618,4.0498,4.0394,4.0152,3.9652,3.9376,3.9359,3.8957,3.8405,3.8065,3.7858,3.7443,3.7111,3.668,3.6284,3.6387,3.6439,3.6318,3.6284,3.6284,3.6284,3.6284,3.6284,3.6262,3.9255,3.9528,3.9694,3.9824,3.9901,3.9952,3.9961,3.9986,4.0045,4.0113,4.0096,4.0096,4.0113,4.0113,4.0113,4.0113,4.0113,4.0113,4.0113,4.0255,4.028,4.0404,4.0544,4.0666,4.0745,4.084,4.0871,4.0894,4.0894,4.0894,4.0894,4.0894,4.0894,4.0894,4.0894,4.0894,4.0894,4.0894,4.0894,4.0894,4.0894,4.0894,4.0894,4.0894,4.0894,4.0894,4.0894,4.0894,4.0894,4.0894,4.0894,4.0894,4.0894,4.0894,4.0894,4.0894,4.0894,4.0894,4.0894,4.0894,4.0894,4.0894,4.0894,4.0894,4.0894,4.0894,4.0894,4.0894,4.0894,4.0894,4.0894,4.0894,4.0894,4.0894,4.0894,4.0894,4.0894,4.0894,4.0894,4.0894,4.0894,4.0894,4.0894,4.0894,4.0894,4.0894,4.0894,4.0894,4.0894,4.0894,4.0894,4.0877,4.0877,4.0722,4.0584,4.0394,4.0187,4.0135,3.9704,3.9203,3.9077,3.8939,3.8353,3.7818,3.756,3.7232,3.6784,3.6628,3.6508,3.637,3.6284,3.6284,3.6284,3.6284,3.6284,3.9379,3.9554,3.9781,3.9901,3.9952,4.0037,4.007,4.0113,4.0113,4.0113,4.0113,4.0113,4.0113,4.0113,4.0113,4.0113,4.0113,4.0113,4.0113,4.0138,4.0213,4.0305,4.0404,4.0551,4.0624,4.0721,4.0793,4.0799,4.0871,4.0894,4.0894,4.0894,4.0894,4.0894,4.0894,4.0894,4.0894,4.0894,4.0894,4.0894,4.0894,4.0894,4.0894,4.0894,4.0894,4.0894,4.0894,4.0894,4.0894,4.0894,4.0894,4.0894,4.0894,4.0894,4.0894,4.0894,4.0894,4.0894,4.0894,4.0894,4.0894,4.0894,4.0894,4.0894,4.0894,4.0894,4.0894,4.0894,4.0894,4.0894,4.0894,4.0894,4.0894,4.0894,4.0894,4.0894,4.0894,4.0894,4.0894,4.0894,4.0894,4.0894,4.0894,4.0894,4.0894,4.0894,4.0894,4.0894,4.0894,4.0894,4.0894,4.0894,4.0894,4.0894,4.0808,4.0687,4.0653,4.0498,4.0584,4.0239,4.017,3.9888,3.937,3.8888,3.8629,3.8215,3.765,3.7094,3.6697,3.6577,3.6628,3.637,3.6404,3.6301,3.6284,3.9563,3.9798,3.9875,3.9977,4.002,4.0087,4.0113,4.0113,4.0113,4.0113,4.0113,4.0113,4.0113,4.0113,4.0113,4.0113,4.0113,4.0113,4.0113,4.0138,4.0163,4.023,4.0305,4.0404,4.0478,4.0551,4.0607,4.068,4.0769,4.084,4.0871,4.0894,4.0871,4.0871,4.0871,4.0894,4.0894,4.0894,4.0894,4.0894,4.0894,4.0894,4.0894,4.0894,4.0894,4.0894,4.0894,4.0894,4.0894,4.0894,4.0894,4.0894,4.0894,4.0894,4.0894,4.0894,4.0894,4.0894,4.0894,4.0894,4.0894,4.0894,4.0894,4.0894,4.0894,4.0894,4.0894,4.0894,4.0894,4.0894,4.0894,4.0894,4.0894,4.0894,4.0894,4.0894,4.0894,4.0894,4.0894,4.0894,4.0894,4.0894,4.0894,4.0894,4.0894,4.0894,4.0894,4.0894,4.0894,4.0894,4.0894,4.0894,4.0894,4.0894,4.0894,4.0808,4.0843,4.086,4.0877,4.0877,4.067,4.0394,4.0198,3.9784,3.9215,3.8784,3.8392,3.7853,3.7387,3.7232,3.7236,3.6818,3.6508,3.6404,3.6301,3.9711,3.9901,3.9961,4.0037,4.007,4.0113,4.0113,4.0113,4.0113,4.0113,4.0113,4.0113,4.0113,4.0113,4.0113,4.0113,4.0113,4.0113,4.0113,4.0113,4.0113,4.0138,4.023,4.028,4.0362,4.0412,4.0485,4.0558,4.0648,4.0697,4.0728,4.0728,4.0776,4.0817,4.0817,4.0847,4.0894,4.0894,4.0894,4.0894,4.0894,4.0894,4.0894,4.0894,4.0894,4.0894,4.0894,4.0894,4.0894,4.0894,4.0894,4.0894,4.0894,4.0894,4.0894,4.0894,4.0894,4.0894,4.0894,4.0894,4.0894,4.0894,4.0894,4.0894,4.0894,4.0894,4.0894,4.0894,4.0894,4.0894,4.0894,4.0894,4.0894,4.0894,4.0894,4.0894,4.0894,4.0894,4.0894,4.0894,4.0894,4.0894,4.0894,4.0894,4.0894,4.0894,4.0894,4.0894,4.0894,4.0894,4.0894,4.0894,4.0894,4.0894,4.0894,4.0894,4.0894,4.0894,4.0894,4.0894,4.0894,4.0825,4.0567,4.0112,3.9595,3.9267,3.9065,3.8651,3.8254,3.8099,3.7875,3.7564,3.706,3.6525,3.6422,3.9798,3.9926,4.0045,4.007,4.0113,4.0113,4.0113,4.0113,4.0113,4.0113,4.0113,4.0113,4.0113,4.0113,4.0113,4.0113,4.0113,4.0113,4.0113,4.0113,4.0113,4.0138,4.0163,4.023,4.0263,4.0313,4.0379,4.0412,4.0461,4.0534,4.0583,4.0493,4.0607,4.0697,4.068,4.0752,4.0799,4.0823,4.0847,4.0847,4.0871,4.0894,4.0894,4.0894,4.0894,4.0894,4.0894,4.0894,4.0894,4.0894,4.0894,4.0894,4.0894,4.0894,4.0894,4.0894,4.0894,4.0894,4.0894,4.0894,4.0894,4.0894,4.0894,4.0894,4.0894,4.0894,4.0894,4.0894,4.0894,4.0894,4.0894,4.0894,4.0894,4.0894,4.0894,4.0894,4.0894,4.0894,4.0894,4.0894,4.0894,4.0894,4.0894,4.0894,4.0894,4.0894,4.0894,4.0894,4.0894,4.0894,4.0894,4.0894,4.0894,4.0894,4.0894,4.0894,4.0894,4.0894,4.0894,4.0894,4.0894,4.0894,4.0894,4.0498,4.0095,3.9974,3.9756,3.9462,3.9169,3.8784,3.856,3.8301,3.7767,3.7129,3.6577,3.9926,4.0045,4.0087,4.0113,4.0113,4.0113,4.0113,4.0113,4.0113,4.0113,4.0113,4.0113,4.0113,4.0113,4.0113,4.0113,4.0113,4.0113,4.0113,4.0113,4.0113,4.0113,4.0113,4.0138,4.0146,4.0163,4.0213,4.0271,4.0337,4.0436,4.0485,4.051,4.0551,4.0551,4.0558,4.0631,4.068,4.0728,4.0752,4.0817,4.0864,4.0871,4.0894,4.0894,4.0894,4.0894,4.0894,4.0894,4.0894,4.0894,4.0894,4.0894,4.0894,4.0894,4.0894,4.0894,4.0894,4.0894,4.0894,4.0894,4.0894,4.0894,4.0894,4.0894,4.0894,4.0894,4.0894,4.0894,4.0894,4.0894,4.0894,4.0894,4.0894,4.0894,4.0894,4.0894,4.0894,4.0894,4.0894,4.0894,4.0894,4.0894,4.0894,4.0894,4.0894,4.0894,4.0894,4.0894,4.0894,4.0894,4.0894,4.0894,4.0894,4.0894,4.0894,4.0894,4.0894,4.0894,4.0894,4.0894,4.0894,4.0894,4.0894,4.0894,4.0664,4.0498,4.0429,4.0532,4.0204,3.9664,3.9353,3.9129,3.8715,3.8129,3.7301,3.9986,4.0113,4.0113,4.0113,4.0113,4.0113,4.0113,4.0113,4.0113,4.0113,4.0113,4.0113,4.0113,4.0113,4.0113,4.0113,4.0113,4.0113,4.0113,4.0113,4.0113,4.0113,4.0113,4.0113,4.0113,4.0113,4.0113,4.0163,4.0238,4.0263,4.0313,4.0362,4.0387,4.0429,4.0429,4.0461,4.0534,4.0607,4.0631,4.0745,4.0817,4.0864,4.0894,4.0894,4.0894,4.0894,4.0894,4.0894,4.0894,4.0894,4.0894,4.0894,4.0894,4.0894,4.0894,4.0894,4.0894,4.0894,4.0894,4.0894,4.0894,4.0894,4.0894,4.0894,4.0894,4.0894,4.0894,4.0894,4.0894,4.0894,4.0894,4.0894,4.0894,4.0894,4.0894,4.0894,4.0894,4.0894,4.0894,4.0894,4.0894,4.0894,4.0894,4.0894,4.0894,4.0894,4.0894,4.0894,4.0894,4.0894,4.0894,4.0894,4.0894,4.0894,4.0894,4.0894,4.0894,4.0894,4.0894,4.0894,4.0894,4.0894,4.0894,4.0894,4.0894,4.0843,4.086,4.0894,4.086,4.0359,4.017,3.9991,3.9543,3.9077,3.8439,3.9986,4.0113,4.0113,4.0113,4.0113,4.0113,4.0113,4.0113,4.0113,4.0113,4.0113,4.0113,4.0113,4.0113,4.0113,4.0113,4.0113,4.0113,4.0113,4.0113,4.0113,4.0113,4.0113,4.0113,4.0113,4.0113,4.0113,4.0113,4.0138,4.0146,4.0146,4.0121,4.0188,4.028,4.033,4.0362,4.0436,4.0485,4.0551,4.0648,4.0745,4.084,4.0888,4.0894,4.0894,4.0894,4.0894,4.0894,4.0894,4.0894,4.0894,4.0894,4.0894,4.0894,4.0894,4.0894,4.0894,4.0894,4.0894,4.0894,4.0894,4.0894,4.0894,4.0894,4.0894,4.0894,4.0894,4.0894,4.0894,4.0894,4.0894,4.0894,4.0894,4.0894,4.0894,4.0894,4.0894,4.0894,4.0894,4.0894,4.0894,4.0894,4.0894,4.0894,4.0894,4.0894,4.0894,4.0894,4.0894,4.0894,4.0894,4.0894,4.0894,4.0894,4.0894,4.0894,4.0894,4.0894,4.0894,4.0894,4.0894,4.0894,4.0894,4.0894,4.0894,4.0894,4.0894,4.0894,4.0843,4.0791,4.067,4.0446,4.0233,3.9802,3.956,4.0087,4.0113,4.0113,4.0113,4.0113,4.0113,4.0113,4.0113,4.0113,4.0113,4.0113,4.0113,4.0113,4.0113,4.0113,4.0113,4.0113,4.0113,4.0113,4.0113,4.0113,4.0113,4.0113,4.0113,4.0113,4.0113,4.0113,4.0113,4.0113,4.0113,4.0113,4.0113,4.0096,4.0138,4.0163,4.0213,4.0263,4.0313,4.0404,4.0478,4.0697,4.0776,4.0871,4.0894,4.0894,4.0894,4.0894,4.0894,4.0894,4.0894,4.0894,4.0894,4.0894,4.0894,4.0894,4.0894,4.0894,4.0894,4.0894,4.0894,4.0894,4.0894,4.0894,4.0894,4.0894,4.0894,4.0894,4.0894,4.0894,4.0894,4.0894,4.0894,4.0894,4.0894,4.0894,4.0894,4.0894,4.0894,4.0894,4.0894,4.0894,4.0894,4.0894,4.0894,4.0894,4.0894,4.0894,4.0894,4.0894,4.0894,4.0894,4.0894,4.0894,4.0894,4.0894,4.0894,4.0894,4.0894,4.0894,4.0894,4.0894,4.0894,4.0894,4.0894,4.0894,4.0894,4.0894,4.0894,4.0894,4.086,4.0877,4.0774,4.0612,4.0474,4.0181]}]]